Time,TemperatureF,DewpointF,PressureIn,WindDirection,WindDirectionDegrees,WindSpeedMPH,WindSpeedGustMPH,Humidity,HourlyPrecipIn,Conditions,Clouds,dailyrainin,SoftwareType,DateUTC
2013-01-13 00:00:00,19.4,14.8,30.05,NW,315,10.7,10.7,82,0.00,,,0.00,VWS V14.01,2013-01-13 06:00:00,
2013-01-13 00:01:00,19.4,14.8,30.05,NNW,338,6.2,10.7,82,0.00,,,0.00,VWS V14.01,2013-01-13 06:01:00,
2013-01-13 00:02:00,19.4,14.8,30.05,NNW,338,6.2,6.2,82,0.00,,,0.00,VWS V14.01,2013-01-13 06:02:00,
2013-01-13 00:03:00,19.4,14.8,30.05,NNW,338,6.2,6.2,82,0.00,,,0.00,VWS V14.01,2013-01-13 06:03:00,
2013-01-13 00:04:00,19.4,14.8,30.05,NNW,338,10.5,10.5,82,0.00,,,0.00,VWS V14.01,2013-01-13 06:04:00,
2013-01-13 00:05:00,19.4,14.8,30.05,NW,315,9.6,10.5,82,0.00,,,0.00,VWS V14.01,2013-01-13 06:05:00,
2013-01-13 00:06:00,19.4,14.8,30.04,NW,315,9.6,9.6,82,0.00,,,0.00,VWS V14.01,2013-01-13 06:06:00,
2013-01-13 00:07:00,19.4,14.8,30.03,NW,315,9.6,9.6,82,0.00,,,0.00,VWS V14.01,2013-01-13 06:07:00,
2013-01-13 00:08:00,19.4,14.8,30.03,NW,315,9.6,9.6,82,0.00,,,0.00,VWS V14.01,2013-01-13 06:08:00,
2013-01-13 00:09:00,19.5,14.9,30.03,WNW,292,7.8,7.8,82,0.00,,,0.00,VWS V14.01,2013-01-13 06:09:00,
2013-01-13 00:10:00,19.5,14.9,30.03,NW,315,4.0,7.8,82,0.00,,,0.00,VWS V14.01,2013-01-13 06:10:00,
2013-01-13 00:11:00,19.5,14.9,30.03,NW,315,4.0,4.0,82,0.00,,,0.00,VWS V14.01,2013-01-13 06:11:00,
2013-01-13 00:12:00,19.5,14.9,30.04,WNW,292,6.4,6.4,82,0.00,,,0.00,VWS V14.01,2013-01-13 06:12:00,
2013-01-13 00:13:00,19.5,14.9,30.04,WNW,292,6.4,6.4,82,0.00,,,0.00,VWS V14.01,2013-01-13 06:13:00,
2013-01-13 00:14:00,19.5,14.6,30.04,NNW,338,10.0,10.0,81,0.00,,,0.00,VWS V14.01,2013-01-13 06:14:00,
2013-01-13 00:15:00,19.5,14.6,30.04,NNW,338,10.0,10.0,81,0.00,,,0.00,VWS V14.01,2013-01-13 06:15:00,
2013-01-13 00:16:00,19.5,14.6,30.05,NW,315,2.9,10.0,81,0.00,,,0.00,VWS V14.01,2013-01-13 06:16:00,
2013-01-13 00:17:00,19.5,14.6,30.05,NW,315,2.9,2.9,81,0.00,,,0.00,VWS V14.01,2013-01-13 06:17:00,
2013-01-13 00:18:00,19.5,14.6,30.05,NW,315,2.9,2.9,81,0.00,,,0.00,VWS V14.01,2013-01-13 06:18:00,
2013-01-13 00:19:00,19.5,14.6,30.05,NW,315,4.0,4.0,81,0.00,,,0.00,VWS V14.01,2013-01-13 06:19:00,
2013-01-13 00:20:00,19.5,14.6,30.04,North,0,10.0,10.0,81,0.00,,,0.00,VWS V14.01,2013-01-13 06:20:00,
2013-01-13 00:21:00,19.5,14.6,30.04,North,0,10.0,10.0,81,0.00,,,0.00,VWS V14.01,2013-01-13 06:21:00,
2013-01-13 00:22:00,19.5,14.6,30.04,North,0,10.0,10.0,81,0.00,,,0.00,VWS V14.01,2013-01-13 06:22:00,
2013-01-13 00:23:00,19.5,14.6,30.04,North,0,10.0,10.0,81,0.00,,,0.00,VWS V14.01,2013-01-13 06:23:00,
2013-01-13 00:24:00,19.5,14.6,30.04,WNW,292,8.7,8.7,81,0.00,,,0.00,VWS V14.01,2013-01-13 06:24:00,
2013-01-13 00:25:00,19.5,14.6,30.03,NNW,338,9.8,9.8,81,0.00,,,0.00,VWS V14.01,2013-01-13 06:25:00,
2013-01-13 00:26:00,19.5,14.6,30.03,NNW,338,9.8,9.8,81,0.00,,,0.00,VWS V14.01,2013-01-13 06:26:00,
2013-01-13 00:27:00,19.5,14.4,30.03,NW,315,7.6,9.8,80,0.00,,,0.00,VWS V14.01,2013-01-13 06:27:00,
2013-01-13 00:28:00,19.5,14.4,30.03,NW,315,7.6,7.6,80,0.00,,,0.00,VWS V14.01,2013-01-13 06:28:00,
2013-01-13 00:29:00,19.5,14.4,30.04,NW,315,10.0,10.0,80,0.00,,,0.00,VWS V14.01,2013-01-13 06:29:00,
2013-01-13 00:30:00,19.5,14.4,30.04,NW,315,10.0,10.0,80,0.00,,,0.00,VWS V14.01,2013-01-13 06:30:00,
2013-01-13 00:31:00,19.5,14.4,30.04,NNW,338,5.5,10.0,80,0.00,,,0.00,VWS V14.01,2013-01-13 06:31:00,
2013-01-13 00:32:00,19.5,14.4,30.04,NNW,338,5.5,5.5,80,0.00,,,0.00,VWS V14.01,2013-01-13 06:32:00,
2013-01-13 00:33:00,19.5,14.4,30.04,NNW,338,5.5,5.5,80,0.00,,,0.00,VWS V14.01,2013-01-13 06:33:00,
2013-01-13 00:34:00,19.5,14.4,30.04,NW,315,9.1,9.1,80,0.00,,,0.00,VWS V14.01,2013-01-13 06:34:00,
2013-01-13 00:35:00,19.5,14.4,30.04,NNW,338,8.0,9.1,80,0.00,,,0.00,VWS V14.01,2013-01-13 06:35:00,
2013-01-13 00:36:00,19.5,14.4,30.03,NNW,338,8.0,8.0,80,0.00,,,0.00,VWS V14.01,2013-01-13 06:36:00,
2013-01-13 00:37:00,19.5,14.4,30.03,NNW,338,8.0,8.0,80,0.00,,,0.00,VWS V14.01,2013-01-13 06:37:00,
2013-01-13 00:38:00,19.5,14.4,30.03,NNW,338,8.0,8.0,80,0.00,,,0.00,VWS V14.01,2013-01-13 06:38:00,
2013-01-13 00:39:00,19.5,14.4,30.03,NNW,338,7.6,7.6,80,0.00,,,0.00,VWS V14.01,2013-01-13 06:39:00,
2013-01-13 00:40:00,19.5,14.4,30.02,NW,315,10.0,10.0,80,0.00,,,0.00,VWS V14.01,2013-01-13 06:40:00,
2013-01-13 00:41:00,19.5,14.4,30.02,NW,315,10.0,10.0,80,0.00,,,0.00,VWS V14.01,2013-01-13 06:41:00,
2013-01-13 00:42:00,19.5,14.4,30.03,North,0,13.1,13.1,80,0.00,,,0.00,VWS V14.01,2013-01-13 06:42:00,
2013-01-13 00:43:00,19.5,14.4,30.03,North,0,13.1,13.1,80,0.00,,,0.00,VWS V14.01,2013-01-13 06:43:00,
2013-01-13 00:44:00,19.5,14.1,30.02,NNW,338,6.2,13.1,79,0.00,,,0.00,VWS V14.01,2013-01-13 06:44:00,
2013-01-13 00:45:00,19.5,14.1,30.02,NNW,338,6.2,6.2,79,0.00,,,0.00,VWS V14.01,2013-01-13 06:45:00,
2013-01-13 00:46:00,19.5,14.1,30.02,NNW,338,11.8,11.8,79,0.00,,,0.00,VWS V14.01,2013-01-13 06:46:00,
2013-01-13 00:47:00,19.5,14.1,30.02,NNW,338,11.8,11.8,79,0.00,,,0.00,VWS V14.01,2013-01-13 06:47:00,
2013-01-13 00:48:00,19.5,14.1,30.02,NNW,338,11.8,11.8,79,0.00,,,0.00,VWS V14.01,2013-01-13 06:48:00,
2013-01-13 00:49:00,19.5,14.1,30.01,North,0,10.0,10.0,79,0.00,,,0.00,VWS V14.01,2013-01-13 06:49:00,
2013-01-13 00:50:00,19.7,14.3,30.01,NNW,338,6.9,10.0,79,0.00,,,0.00,VWS V14.01,2013-01-13 06:50:00,
2013-01-13 00:51:00,19.7,14.3,30.02,NNW,338,6.9,6.9,79,0.00,,,0.00,VWS V14.01,2013-01-13 06:51:00,
2013-01-13 00:52:00,19.7,14.3,30.02,NNW,338,6.9,6.9,79,0.00,,,0.00,VWS V14.01,2013-01-13 06:52:00,
2013-01-13 00:53:00,19.7,14.3,30.02,NNW,338,6.9,6.9,79,0.00,,,0.00,VWS V14.01,2013-01-13 06:53:00,
2013-01-13 00:54:00,19.7,14.3,30.02,NNW,338,8.7,8.7,79,0.00,,,0.00,VWS V14.01,2013-01-13 06:54:00,
2013-01-13 00:55:00,19.7,14.3,30.02,NNW,338,8.0,8.7,79,0.00,,,0.00,VWS V14.01,2013-01-13 06:55:00,
2013-01-13 00:56:00,19.7,14.3,30.02,NNW,338,8.0,8.0,79,0.00,,,0.00,VWS V14.01,2013-01-13 06:56:00,
2013-01-13 00:57:00,19.7,14.0,30.01,NNW,338,11.1,11.1,78,0.00,,,0.00,VWS V14.01,2013-01-13 06:57:00,
2013-01-13 00:58:00,19.7,14.0,30.01,NNW,338,11.1,11.1,78,0.00,,,0.00,VWS V14.01,2013-01-13 06:58:00,
2013-01-13 00:59:00,19.5,13.8,30.00,North,0,10.0,11.1,78,0.00,,,0.00,VWS V14.01,2013-01-13 06:59:00,
2013-01-13 01:00:00,19.5,13.8,30.00,North,0,10.0,10.0,78,0.00,,,0.00,VWS V14.01,2013-01-13 07:00:00,
2013-01-13 01:01:00,19.5,13.8,30.00,North,0,10.0,10.0,78,0.00,,,0.00,VWS V14.01,2013-01-13 07:01:00,
2013-01-13 01:02:00,19.5,13.8,30.00,North,0,10.0,10.0,78,0.00,,,0.00,VWS V14.01,2013-01-13 07:02:00,
2013-01-13 01:03:00,19.5,13.8,30.00,North,0,10.0,10.0,78,0.00,,,0.00,VWS V14.01,2013-01-13 07:03:00,
2013-01-13 01:04:00,19.5,13.8,29.99,NNW,338,14.9,14.9,78,0.00,,,0.00,VWS V14.01,2013-01-13 07:04:00,
2013-01-13 01:05:00,19.5,13.8,30.00,NNW,338,9.3,14.9,78,0.00,,,0.00,VWS V14.01,2013-01-13 07:05:00,
2013-01-13 01:06:00,19.5,13.8,30.00,NNW,338,9.3,9.3,78,0.00,,,0.00,VWS V14.01,2013-01-13 07:06:00,
2013-01-13 01:07:00,19.5,13.8,30.01,NNW,338,9.3,9.3,78,0.00,,,0.00,VWS V14.01,2013-01-13 07:07:00,
2013-01-13 01:08:00,19.5,13.8,30.01,NNW,338,9.3,9.3,78,0.00,,,0.00,VWS V14.01,2013-01-13 07:08:00,
2013-01-13 01:09:00,19.5,13.8,30.02,NNW,338,12.5,12.5,78,0.00,,,0.00,VWS V14.01,2013-01-13 07:09:00,
2013-01-13 01:10:00,19.5,13.8,30.01,NW,315,12.3,12.5,78,0.00,,,0.00,VWS V14.01,2013-01-13 07:10:00,
2013-01-13 01:11:00,19.5,13.8,30.01,NW,315,12.3,12.3,78,0.00,,,0.00,VWS V14.01,2013-01-13 07:11:00,
2013-01-13 01:12:00,19.5,13.8,30.01,NW,315,9.6,12.3,78,0.00,,,0.00,VWS V14.01,2013-01-13 07:12:00,
2013-01-13 01:13:00,19.5,13.8,30.01,NW,315,9.6,9.6,78,0.00,,,0.00,VWS V14.01,2013-01-13 07:13:00,
2013-01-13 01:14:00,19.5,13.8,30.01,NNW,338,15.4,15.4,78,0.00,,,0.00,VWS V14.01,2013-01-13 07:14:00,
2013-01-13 01:15:00,19.5,13.8,30.02,NNW,338,15.4,15.4,78,0.00,,,0.00,VWS V14.01,2013-01-13 07:15:00,
2013-01-13 01:16:00,19.5,14.1,30.02,NW,315,8.0,15.4,79,0.00,,,0.00,VWS V14.01,2013-01-13 07:16:00,
2013-01-13 01:17:00,19.5,14.1,30.03,NW,315,8.0,8.0,79,0.00,,,0.00,VWS V14.01,2013-01-13 07:17:00,
2013-01-13 01:18:00,19.5,14.1,30.03,NW,315,8.0,8.0,79,0.00,,,0.00,VWS V14.01,2013-01-13 07:18:00,
2013-01-13 01:19:00,19.5,13.8,30.04,NW,315,3.8,3.8,78,0.00,,,0.00,VWS V14.01,2013-01-13 07:19:00,
2013-01-13 01:20:00,19.5,13.8,30.04,NW,315,6.4,6.4,78,0.00,,,0.00,VWS V14.01,2013-01-13 07:20:00,
2013-01-13 01:21:00,19.5,13.8,30.04,NW,315,6.4,6.4,78,0.00,,,0.00,VWS V14.01,2013-01-13 07:21:00,
2013-01-13 01:22:00,19.5,13.8,30.04,NW,315,6.4,6.4,78,0.00,,,0.00,VWS V14.01,2013-01-13 07:22:00,
2013-01-13 01:23:00,19.5,13.8,30.04,NW,315,6.4,6.4,78,0.00,,,0.00,VWS V14.01,2013-01-13 07:23:00,
2013-01-13 01:24:00,19.5,13.8,30.05,NNW,338,14.3,14.3,78,0.00,,,0.00,VWS V14.01,2013-01-13 07:24:00,
2013-01-13 01:25:00,19.5,13.8,30.05,NW,315,8.7,14.3,78,0.00,,,0.00,VWS V14.01,2013-01-13 07:25:00,
2013-01-13 01:26:00,19.5,13.8,30.04,NW,315,8.7,8.7,78,0.00,,,0.00,VWS V14.01,2013-01-13 07:26:00,
2013-01-13 01:27:00,19.5,13.8,30.04,NW,315,11.6,11.6,78,0.00,,,0.00,VWS V14.01,2013-01-13 07:27:00,
2013-01-13 01:28:00,19.5,13.8,30.04,NW,315,11.6,11.6,78,0.00,,,0.00,VWS V14.01,2013-01-13 07:28:00,
2013-01-13 01:29:00,19.5,13.8,30.03,NW,315,4.0,11.6,78,0.00,,,0.00,VWS V14.01,2013-01-13 07:29:00,
2013-01-13 01:30:00,19.5,13.8,30.03,NW,315,4.0,4.0,78,0.00,,,0.00,VWS V14.01,2013-01-13 07:30:00,
2013-01-13 01:31:00,19.5,13.5,30.03,NW,315,5.8,5.8,77,0.00,,,0.00,VWS V14.01,2013-01-13 07:31:00,
2013-01-13 01:32:00,19.5,13.5,30.03,NW,315,5.8,5.8,77,0.00,,,0.00,VWS V14.01,2013-01-13 07:32:00,
2013-01-13 01:33:00,19.5,13.5,30.03,NW,315,5.8,5.8,77,0.00,,,0.00,VWS V14.01,2013-01-13 07:33:00,
2013-01-13 01:34:00,19.5,13.5,30.02,NNW,338,6.0,6.0,77,0.00,,,0.00,VWS V14.01,2013-01-13 07:34:00,
2013-01-13 01:35:00,19.4,13.4,30.02,NW,315,7.3,7.3,77,0.00,,,0.00,VWS V14.01,2013-01-13 07:35:00,
2013-01-13 01:36:00,19.4,13.4,30.02,NW,315,7.3,7.3,77,0.00,,,0.00,VWS V14.01,2013-01-13 07:36:00,
2013-01-13 01:37:00,19.4,13.4,30.02,NW,315,7.3,7.3,77,0.00,,,0.00,VWS V14.01,2013-01-13 07:37:00,
2013-01-13 01:38:00,19.4,13.4,30.02,NW,315,7.3,7.3,77,0.00,,,0.00,VWS V14.01,2013-01-13 07:38:00,
2013-01-13 01:39:00,19.4,13.4,30.02,NW,315,6.4,6.4,77,0.00,,,0.00,VWS V14.01,2013-01-13 07:39:00,
2013-01-13 01:40:00,19.2,13.2,30.03,NNW,338,11.6,11.6,77,0.00,,,0.00,VWS V14.01,2013-01-13 07:40:00,
2013-01-13 01:41:00,19.2,13.2,30.03,NNW,338,11.6,11.6,77,0.00,,,0.00,VWS V14.01,2013-01-13 07:41:00,
2013-01-13 01:42:00,19.2,13.2,30.03,NW,315,8.5,11.6,77,0.00,,,0.00,VWS V14.01,2013-01-13 07:42:00,
2013-01-13 01:43:00,19.2,13.2,30.03,NW,315,8.5,8.5,77,0.00,,,0.00,VWS V14.01,2013-01-13 07:43:00,
2013-01-13 01:44:00,19.2,13.2,30.03,NNW,338,5.5,8.5,77,0.00,,,0.00,VWS V14.01,2013-01-13 07:44:00,
2013-01-13 01:45:00,19.2,13.2,30.04,NNW,338,5.5,5.5,77,0.00,,,0.00,VWS V14.01,2013-01-13 07:45:00,
2013-01-13 01:46:00,19.2,13.2,30.04,NNW,338,12.5,12.5,77,0.00,,,0.00,VWS V14.01,2013-01-13 07:46:00,
2013-01-13 01:47:00,19.2,13.2,30.05,NNW,338,12.5,12.5,77,0.00,,,0.00,VWS V14.01,2013-01-13 07:47:00,
2013-01-13 01:48:00,19.2,13.2,30.05,NNW,338,12.5,12.5,77,0.00,,,0.00,VWS V14.01,2013-01-13 07:48:00,
2013-01-13 01:49:00,19.2,13.2,30.05,NW,315,6.2,6.2,77,0.00,,,0.00,VWS V14.01,2013-01-13 07:49:00,
2013-01-13 01:50:00,19.2,13.2,30.05,NNW,338,6.7,6.7,77,0.00,,,0.00,VWS V14.01,2013-01-13 07:50:00,
2013-01-13 01:51:00,19.2,13.2,30.05,NNW,338,6.7,6.7,77,0.00,,,0.00,VWS V14.01,2013-01-13 07:51:00,
2013-01-13 01:52:00,19.2,13.2,30.05,NNW,338,6.7,6.7,77,0.00,,,0.00,VWS V14.01,2013-01-13 07:52:00,
2013-01-13 01:53:00,19.2,13.2,30.05,NNW,338,6.7,6.7,77,0.00,,,0.00,VWS V14.01,2013-01-13 07:53:00,
2013-01-13 01:54:00,19.2,13.2,30.05,NNW,338,7.6,7.6,77,0.00,,,0.00,VWS V14.01,2013-01-13 07:54:00,
2013-01-13 01:55:00,19.2,13.2,30.05,NW,315,9.3,9.3,77,0.00,,,0.00,VWS V14.01,2013-01-13 07:55:00,
2013-01-13 01:56:00,19.2,13.2,30.05,NW,315,9.3,9.3,77,0.00,,,0.00,VWS V14.01,2013-01-13 07:56:00,
2013-01-13 01:57:00,19.2,13.2,30.04,NNW,338,5.3,9.3,77,0.00,,,0.00,VWS V14.01,2013-01-13 07:57:00,
2013-01-13 01:58:00,19.2,13.2,30.04,NNW,338,5.3,5.3,77,0.00,,,0.00,VWS V14.01,2013-01-13 07:58:00,
2013-01-13 01:59:00,19.2,13.5,30.04,NNW,338,6.4,6.4,78,0.00,,,0.00,VWS V14.01,2013-01-13 07:59:00,
2013-01-13 02:00:00,19.2,13.5,30.04,NNW,338,6.4,6.4,78,0.00,,,0.00,VWS V14.01,2013-01-13 08:00:00,
2013-01-13 02:01:00,19.2,13.5,30.04,NNW,338,6.4,6.4,78,0.00,,,0.00,VWS V14.01,2013-01-13 08:01:00,
2013-01-13 02:02:00,19.2,13.5,30.04,NNW,338,6.4,6.4,78,0.00,,,0.00,VWS V14.01,2013-01-13 08:02:00,
2013-01-13 02:03:00,19.2,13.5,30.04,NNW,338,6.4,6.4,78,0.00,,,0.00,VWS V14.01,2013-01-13 08:03:00,
2013-01-13 02:04:00,19.0,12.7,30.06,NNW,338,13.4,13.4,76,0.00,,,0.00,VWS V14.01,2013-01-13 08:04:00,
2013-01-13 02:05:00,19.0,12.7,30.07,WNW,292,7.1,13.4,76,0.00,,,0.00,VWS V14.01,2013-01-13 08:05:00,
2013-01-13 02:06:00,19.0,12.7,30.07,WNW,292,7.1,7.1,76,0.00,,,0.00,VWS V14.01,2013-01-13 08:06:00,
2013-01-13 02:07:00,19.0,12.7,30.07,WNW,292,7.1,7.1,76,0.00,,,0.00,VWS V14.01,2013-01-13 08:07:00,
2013-01-13 02:08:00,19.0,12.7,30.07,WNW,292,7.1,7.1,76,0.00,,,0.00,VWS V14.01,2013-01-13 08:08:00,
2013-01-13 02:09:00,19.0,12.7,30.06,NW,315,7.1,7.1,76,0.00,,,0.00,VWS V14.01,2013-01-13 08:09:00,
2013-01-13 02:10:00,19.0,12.7,30.06,WNW,292,2.2,7.1,76,0.00,,,0.00,VWS V14.01,2013-01-13 08:10:00,
2013-01-13 02:11:00,19.0,12.7,30.07,WNW,292,2.2,2.2,76,0.00,,,0.00,VWS V14.01,2013-01-13 08:11:00,
2013-01-13 02:12:00,19.0,12.7,30.06,NW,315,8.5,8.5,76,0.00,,,0.00,VWS V14.01,2013-01-13 08:12:00,
2013-01-13 02:13:00,19.0,12.7,30.06,NW,315,8.5,8.5,76,0.00,,,0.00,VWS V14.01,2013-01-13 08:13:00,
2013-01-13 02:14:00,18.8,12.5,30.07,NW,315,2.2,8.5,76,0.00,,,0.00,VWS V14.01,2013-01-13 08:14:00,
2013-01-13 02:15:00,18.8,12.5,30.07,NW,315,2.2,2.2,76,0.00,,,0.00,VWS V14.01,2013-01-13 08:15:00,
2013-01-13 02:16:00,18.8,12.5,30.07,NW,315,5.3,5.3,76,0.00,,,0.00,VWS V14.01,2013-01-13 08:16:00,
2013-01-13 02:17:00,18.8,12.5,30.07,NW,315,5.3,5.3,76,0.00,,,0.00,VWS V14.01,2013-01-13 08:17:00,
2013-01-13 02:18:00,18.8,12.5,30.07,NW,315,5.3,5.3,76,0.00,,,0.00,VWS V14.01,2013-01-13 08:18:00,
2013-01-13 02:19:00,18.8,12.5,30.07,NW,315,7.8,7.8,76,0.00,,,0.00,VWS V14.01,2013-01-13 08:19:00,
2013-01-13 02:20:00,18.8,12.2,30.07,North,0,5.5,7.8,75,0.00,,,0.00,VWS V14.01,2013-01-13 08:20:00,
2013-01-13 02:21:00,18.6,12.0,30.07,North,0,5.5,5.5,75,0.00,,,0.00,VWS V14.01,2013-01-13 08:21:00,
2013-01-13 02:22:00,18.6,12.0,30.07,North,0,5.5,5.5,75,0.00,,,0.00,VWS V14.01,2013-01-13 08:22:00,
2013-01-13 02:23:00,18.6,12.0,30.07,North,0,5.5,5.5,75,0.00,,,0.00,VWS V14.01,2013-01-13 08:23:00,
2013-01-13 02:24:00,18.6,12.0,30.07,NNW,338,6.9,6.9,75,0.00,,,0.00,VWS V14.01,2013-01-13 08:24:00,
2013-01-13 02:25:00,18.6,12.0,30.07,NW,315,8.9,8.9,75,0.00,,,0.00,VWS V14.01,2013-01-13 08:25:00,
2013-01-13 02:26:00,18.6,12.0,30.07,NW,315,8.9,8.9,75,0.00,,,0.00,VWS V14.01,2013-01-13 08:26:00,
2013-01-13 02:27:00,18.6,12.0,30.07,NW,315,6.9,8.9,75,0.00,,,0.00,VWS V14.01,2013-01-13 08:27:00,
2013-01-13 02:28:00,18.6,12.0,30.07,NW,315,6.9,6.9,75,0.00,,,0.00,VWS V14.01,2013-01-13 08:28:00,
2013-01-13 02:29:00,18.6,12.0,30.07,NW,315,6.7,6.9,75,0.00,,,0.00,VWS V14.01,2013-01-13 08:29:00,
2013-01-13 02:30:00,18.6,12.0,30.07,NW,315,6.7,6.7,75,0.00,,,0.00,VWS V14.01,2013-01-13 08:30:00,
2013-01-13 02:31:00,18.6,12.0,30.07,NNW,338,2.2,6.7,75,0.00,,,0.00,VWS V14.01,2013-01-13 08:31:00,
2013-01-13 02:32:00,18.6,12.0,30.07,NNW,338,2.2,2.2,75,0.00,,,0.00,VWS V14.01,2013-01-13 08:32:00,
2013-01-13 02:33:00,18.6,12.0,30.07,NNW,338,2.2,2.2,75,0.00,,,0.00,VWS V14.01,2013-01-13 08:33:00,
2013-01-13 02:34:00,18.6,12.0,30.06,NW,315,10.0,10.0,75,0.00,,,0.00,VWS V14.01,2013-01-13 08:34:00,
2013-01-13 02:35:00,18.5,11.9,30.06,North,0,10.7,10.7,75,0.00,,,0.00,VWS V14.01,2013-01-13 08:35:00,
2013-01-13 02:36:00,18.5,11.9,30.06,North,0,10.7,10.7,75,0.00,,,0.00,VWS V14.01,2013-01-13 08:36:00,
2013-01-13 02:37:00,18.5,11.9,30.07,NW,315,8.9,10.7,75,0.00,,,0.00,VWS V14.01,2013-01-13 08:37:00,
2013-01-13 02:38:00,18.5,11.9,30.07,NW,315,8.9,8.9,75,0.00,,,0.00,VWS V14.01,2013-01-13 08:38:00,
2013-01-13 02:39:00,18.5,11.9,30.06,NW,315,8.9,8.9,75,0.00,,,0.00,VWS V14.01,2013-01-13 08:39:00,
2013-01-13 02:40:00,18.5,11.9,30.06,NNW,338,13.8,13.8,75,0.00,,,0.00,VWS V14.01,2013-01-13 08:40:00,
2013-01-13 02:41:00,18.5,11.9,30.06,NNW,338,13.8,13.8,75,0.00,,,0.00,VWS V14.01,2013-01-13 08:41:00,
2013-01-13 02:42:00,18.3,11.7,30.06,NNW,338,12.7,13.8,75,0.00,,,0.00,VWS V14.01,2013-01-13 08:42:00,
2013-01-13 02:43:00,18.3,11.7,30.06,NNW,338,12.7,12.7,75,0.00,,,0.00,VWS V14.01,2013-01-13 08:43:00,
2013-01-13 02:44:00,18.3,11.4,30.06,NW,315,5.8,12.7,74,0.00,,,0.00,VWS V14.01,2013-01-13 08:44:00,
2013-01-13 02:45:00,18.3,11.4,30.06,NW,315,5.8,5.8,74,0.00,,,0.00,VWS V14.01,2013-01-13 08:45:00,
2013-01-13 02:46:00,18.3,11.4,30.06,NNW,338,10.9,10.9,74,0.00,,,0.00,VWS V14.01,2013-01-13 08:46:00,
2013-01-13 02:47:00,18.3,11.4,30.06,NNW,338,10.9,10.9,74,0.00,,,0.00,VWS V14.01,2013-01-13 08:47:00,
2013-01-13 02:48:00,18.3,11.4,30.06,NNW,338,10.9,10.9,74,0.00,,,0.00,VWS V14.01,2013-01-13 08:48:00,
2013-01-13 02:49:00,18.3,11.4,30.07,NNW,338,6.2,6.2,74,0.00,,,0.00,VWS V14.01,2013-01-13 08:49:00,
2013-01-13 02:50:00,18.3,11.4,30.07,NW,315,17.0,17.0,74,0.00,,,0.00,VWS V14.01,2013-01-13 08:50:00,
2013-01-13 02:51:00,18.3,11.4,30.07,NW,315,17.0,17.0,74,0.00,,,0.00,VWS V14.01,2013-01-13 08:51:00,
2013-01-13 02:52:00,18.3,11.4,30.07,NW,315,8.7,17.0,74,0.00,,,0.00,VWS V14.01,2013-01-13 08:52:00,
2013-01-13 02:53:00,18.3,11.4,30.07,NW,315,8.7,8.7,74,0.00,,,0.00,VWS V14.01,2013-01-13 08:53:00,
2013-01-13 02:54:00,18.3,11.4,30.07,NW,315,8.7,8.7,74,0.00,,,0.00,VWS V14.01,2013-01-13 08:54:00,
2013-01-13 02:55:00,18.3,11.4,30.07,NW,315,7.1,8.7,74,0.00,,,0.00,VWS V14.01,2013-01-13 08:55:00,
2013-01-13 02:56:00,18.3,11.4,30.07,NW,315,7.1,7.1,74,0.00,,,0.00,VWS V14.01,2013-01-13 08:56:00,
2013-01-13 02:57:00,18.3,11.4,30.07,NW,315,6.4,7.1,74,0.00,,,0.00,VWS V14.01,2013-01-13 08:57:00,
2013-01-13 02:58:00,18.3,11.4,30.07,NW,315,6.4,6.4,74,0.00,,,0.00,VWS V14.01,2013-01-13 08:58:00,
2013-01-13 02:59:00,18.1,11.5,30.06,NNW,338,7.8,7.8,75,0.00,,,0.00,VWS V14.01,2013-01-13 08:59:00,
2013-01-13 03:00:00,18.1,11.5,30.06,NNW,338,7.8,7.8,75,0.00,,,0.00,VWS V14.01,2013-01-13 09:00:00,
2013-01-13 03:01:00,18.1,11.5,30.06,NNW,338,7.8,7.8,75,0.00,,,0.00,VWS V14.01,2013-01-13 09:01:00,
2013-01-13 03:02:00,18.1,11.5,30.06,NNW,338,7.8,7.8,75,0.00,,,0.00,VWS V14.01,2013-01-13 09:02:00,
2013-01-13 03:03:00,18.1,11.5,30.06,NNW,338,7.8,7.8,75,0.00,,,0.00,VWS V14.01,2013-01-13 09:03:00,
2013-01-13 03:04:00,17.9,11.3,30.06,NNW,338,6.4,6.4,75,0.00,,,0.00,VWS V14.01,2013-01-13 09:04:00,
2013-01-13 03:05:00,17.7,11.1,30.06,NW,315,6.9,6.9,75,0.00,,,0.00,VWS V14.01,2013-01-13 09:05:00,
2013-01-13 03:06:00,17.7,11.1,30.06,NW,315,6.9,6.9,75,0.00,,,0.00,VWS V14.01,2013-01-13 09:06:00,
2013-01-13 03:07:00,17.7,11.1,30.06,NNW,338,10.7,10.7,75,0.00,,,0.00,VWS V14.01,2013-01-13 09:07:00,
2013-01-13 03:08:00,17.7,11.1,30.06,NNW,338,10.7,10.7,75,0.00,,,0.00,VWS V14.01,2013-01-13 09:08:00,
2013-01-13 03:09:00,17.7,11.1,30.05,NNW,338,10.7,10.7,75,0.00,,,0.00,VWS V14.01,2013-01-13 09:09:00,
2013-01-13 03:10:00,17.6,11.0,30.05,NNW,338,8.0,10.7,75,0.00,,,0.00,VWS V14.01,2013-01-13 09:10:00,
2013-01-13 03:11:00,17.6,11.0,30.05,NNW,338,8.0,8.0,75,0.00,,,0.00,VWS V14.01,2013-01-13 09:11:00,
2013-01-13 03:12:00,17.4,10.9,30.05,NNW,338,6.4,8.0,75,0.00,,,0.00,VWS V14.01,2013-01-13 09:12:00,
2013-01-13 03:13:00,17.4,10.9,30.05,NNW,338,6.4,6.4,75,0.00,,,0.00,VWS V14.01,2013-01-13 09:13:00,
2013-01-13 03:14:00,17.4,11.1,30.06,NNW,338,3.5,6.4,76,0.00,,,0.00,VWS V14.01,2013-01-13 09:14:00,
2013-01-13 03:15:00,17.4,11.1,30.06,NNW,338,3.5,3.5,76,0.00,,,0.00,VWS V14.01,2013-01-13 09:15:00,
2013-01-13 03:16:00,17.2,10.9,30.06,NNW,338,7.6,7.6,76,0.00,,,0.00,VWS V14.01,2013-01-13 09:16:00,
2013-01-13 03:17:00,17.2,10.9,30.06,NNW,338,7.6,7.6,76,0.00,,,0.00,VWS V14.01,2013-01-13 09:17:00,
2013-01-13 03:18:00,17.2,10.9,30.06,NNW,338,7.6,7.6,76,0.00,,,0.00,VWS V14.01,2013-01-13 09:18:00,
2013-01-13 03:19:00,17.2,10.9,30.06,NNW,338,4.9,4.9,76,0.00,,,0.00,VWS V14.01,2013-01-13 09:19:00,
2013-01-13 03:20:00,17.2,10.9,30.06,North,0,5.3,5.3,76,0.00,,,0.00,VWS V14.01,2013-01-13 09:20:00,
2013-01-13 03:21:00,17.2,10.9,30.06,North,0,5.3,5.3,76,0.00,,,0.00,VWS V14.01,2013-01-13 09:21:00,
2013-01-13 03:22:00,17.2,10.9,30.06,NW,315,4.6,5.3,76,0.00,,,0.00,VWS V14.01,2013-01-13 09:22:00,
2013-01-13 03:23:00,17.2,10.9,30.06,NW,315,4.6,4.6,76,0.00,,,0.00,VWS V14.01,2013-01-13 09:23:00,
2013-01-13 03:24:00,17.2,10.9,30.07,NW,315,4.6,4.6,76,0.00,,,0.00,VWS V14.01,2013-01-13 09:24:00,
2013-01-13 03:25:00,16.8,10.6,30.07,NW,315,7.3,7.3,76,0.00,,,0.00,VWS V14.01,2013-01-13 09:25:00,
2013-01-13 03:26:00,16.8,10.6,30.07,NW,315,7.3,7.3,76,0.00,,,0.00,VWS V14.01,2013-01-13 09:26:00,
2013-01-13 03:27:00,16.8,10.6,30.06,NNW,338,6.9,7.3,76,0.00,,,0.00,VWS V14.01,2013-01-13 09:27:00,
2013-01-13 03:28:00,16.8,10.6,30.06,NNW,338,6.9,6.9,76,0.00,,,0.00,VWS V14.01,2013-01-13 09:28:00,
2013-01-13 03:29:00,16.8,10.6,30.07,NW,315,7.8,7.8,76,0.00,,,0.00,VWS V14.01,2013-01-13 09:29:00,
2013-01-13 03:30:00,16.8,10.6,30.07,NW,315,7.8,7.8,76,0.00,,,0.00,VWS V14.01,2013-01-13 09:30:00,
2013-01-13 03:31:00,16.8,10.9,30.07,NNW,338,6.7,7.8,77,0.00,,,0.00,VWS V14.01,2013-01-13 09:31:00,
2013-01-13 03:32:00,16.8,10.9,30.07,NNW,338,6.7,6.7,77,0.00,,,0.00,VWS V14.01,2013-01-13 09:32:00,
2013-01-13 03:33:00,16.8,10.9,30.07,NNW,338,6.7,6.7,77,0.00,,,0.00,VWS V14.01,2013-01-13 09:33:00,
2013-01-13 03:34:00,16.8,10.9,30.07,NNW,338,5.8,5.8,77,0.00,,,0.00,VWS V14.01,2013-01-13 09:34:00,
2013-01-13 03:35:00,16.8,10.9,30.07,NNW,338,6.2,6.2,77,0.00,,,0.00,VWS V14.01,2013-01-13 09:35:00,
2013-01-13 03:36:00,16.8,10.9,30.07,NNW,338,6.2,6.2,77,0.00,,,0.00,VWS V14.01,2013-01-13 09:36:00,
2013-01-13 03:37:00,16.8,10.9,30.08,WNW,292,5.3,6.2,77,0.00,,,0.00,VWS V14.01,2013-01-13 09:37:00,
2013-01-13 03:38:00,16.8,10.9,30.08,WNW,292,5.3,5.3,77,0.00,,,0.00,VWS V14.01,2013-01-13 09:38:00,
2013-01-13 03:39:00,16.8,10.9,30.08,WNW,292,5.3,5.3,77,0.00,,,0.00,VWS V14.01,2013-01-13 09:39:00,
2013-01-13 03:40:00,16.8,10.9,30.08,WNW,292,5.1,5.3,77,0.00,,,0.00,VWS V14.01,2013-01-13 09:40:00,
2013-01-13 03:41:00,16.8,10.9,30.08,WNW,292,5.1,5.1,77,0.00,,,0.00,VWS V14.01,2013-01-13 09:41:00,
2013-01-13 03:42:00,17.0,11.1,30.08,WNW,292,3.8,5.1,77,0.00,,,0.00,VWS V14.01,2013-01-13 09:42:00,
2013-01-13 03:43:00,17.0,11.1,30.08,WNW,292,3.8,3.8,77,0.00,,,0.00,VWS V14.01,2013-01-13 09:43:00,
2013-01-13 03:44:00,17.0,11.1,30.07,North,0,4.0,4.0,77,0.00,,,0.00,VWS V14.01,2013-01-13 09:44:00,
2013-01-13 03:45:00,17.0,11.1,30.07,North,0,4.0,4.0,77,0.00,,,0.00,VWS V14.01,2013-01-13 09:45:00,
2013-01-13 03:46:00,16.8,10.9,30.07,WNW,292,6.2,6.2,77,0.00,,,0.00,VWS V14.01,2013-01-13 09:46:00,
2013-01-13 03:47:00,16.8,10.9,30.07,WNW,292,6.2,6.2,77,0.00,,,0.00,VWS V14.01,2013-01-13 09:47:00,
2013-01-13 03:48:00,16.8,10.9,30.07,WNW,292,6.2,6.2,77,0.00,,,0.00,VWS V14.01,2013-01-13 09:48:00,
2013-01-13 03:49:00,16.8,10.9,30.07,NW,315,5.5,5.5,77,0.00,,,0.00,VWS V14.01,2013-01-13 09:49:00,
2013-01-13 03:50:00,16.8,10.9,30.07,WNW,292,7.1,7.1,77,0.00,,,0.00,VWS V14.01,2013-01-13 09:50:00,
2013-01-13 03:51:00,16.8,10.9,30.07,WNW,292,7.1,7.1,77,0.00,,,0.00,VWS V14.01,2013-01-13 09:51:00,
2013-01-13 03:52:00,16.8,10.9,30.07,NW,315,5.5,7.1,77,0.00,,,0.00,VWS V14.01,2013-01-13 09:52:00,
2013-01-13 03:53:00,16.8,10.9,30.07,NW,315,5.5,5.5,77,0.00,,,0.00,VWS V14.01,2013-01-13 09:53:00,
2013-01-13 03:54:00,16.8,10.9,30.07,NW,315,5.5,5.5,77,0.00,,,0.00,VWS V14.01,2013-01-13 09:54:00,
2013-01-13 03:55:00,16.7,10.8,30.07,WNW,292,5.3,5.5,77,0.00,,,0.00,VWS V14.01,2013-01-13 09:55:00,
2013-01-13 03:56:00,16.7,10.8,30.07,WNW,292,5.3,5.3,77,0.00,,,0.00,VWS V14.01,2013-01-13 09:56:00,
2013-01-13 03:57:00,16.5,10.6,30.07,NW,315,4.9,5.3,77,0.00,,,0.00,VWS V14.01,2013-01-13 09:57:00,
2013-01-13 03:58:00,16.5,10.6,30.07,NW,315,4.9,4.9,77,0.00,,,0.00,VWS V14.01,2013-01-13 09:58:00,
2013-01-13 03:59:00,16.5,10.6,30.07,NNW,338,8.7,8.7,77,0.00,,,0.00,VWS V14.01,2013-01-13 09:59:00,
2013-01-13 04:00:00,16.5,10.6,30.07,NNW,338,8.7,8.7,77,0.00,,,0.00,VWS V14.01,2013-01-13 10:00:00,
2013-01-13 04:01:00,16.5,10.6,30.07,NNW,338,8.7,8.7,77,0.00,,,0.00,VWS V14.01,2013-01-13 10:01:00,
2013-01-13 04:02:00,16.5,10.6,30.07,NNW,338,8.7,8.7,77,0.00,,,0.00,VWS V14.01,2013-01-13 10:02:00,
2013-01-13 04:03:00,16.5,10.6,30.07,NNW,338,8.7,8.7,77,0.00,,,0.00,VWS V14.01,2013-01-13 10:03:00,
2013-01-13 04:04:00,16.3,10.1,30.07,NW,315,4.4,4.4,76,0.00,,,0.00,VWS V14.01,2013-01-13 10:04:00,
2013-01-13 04:05:00,16.1,9.9,30.07,WNW,292,5.8,5.8,76,0.00,,,0.00,VWS V14.01,2013-01-13 10:05:00,
2013-01-13 04:06:00,16.1,9.9,30.07,WNW,292,5.8,5.8,76,0.00,,,0.00,VWS V14.01,2013-01-13 10:06:00,
2013-01-13 04:07:00,16.1,9.9,30.06,NW,315,7.1,7.1,76,0.00,,,0.00,VWS V14.01,2013-01-13 10:07:00,
2013-01-13 04:08:00,16.1,9.9,30.06,NW,315,7.1,7.1,76,0.00,,,0.00,VWS V14.01,2013-01-13 10:08:00,
2013-01-13 04:09:00,16.1,9.9,30.07,NW,315,7.1,7.1,76,0.00,,,0.00,VWS V14.01,2013-01-13 10:09:00,
2013-01-13 04:10:00,15.9,9.7,30.07,NNW,338,8.5,8.5,76,0.00,,,0.00,VWS V14.01,2013-01-13 10:10:00,
2013-01-13 04:11:00,15.9,9.7,30.07,NNW,338,8.5,8.5,76,0.00,,,0.00,VWS V14.01,2013-01-13 10:11:00,
2013-01-13 04:12:00,15.9,10.0,30.06,WNW,292,7.1,8.5,77,0.00,,,0.00,VWS V14.01,2013-01-13 10:12:00,
2013-01-13 04:13:00,15.9,10.0,30.06,WNW,292,7.1,7.1,77,0.00,,,0.00,VWS V14.01,2013-01-13 10:13:00,
2013-01-13 04:14:00,15.6,9.7,30.07,WNW,292,5.1,7.1,77,0.00,,,0.00,VWS V14.01,2013-01-13 10:14:00,
2013-01-13 04:15:00,15.6,9.7,30.07,WNW,292,5.1,5.1,77,0.00,,,0.00,VWS V14.01,2013-01-13 10:15:00,
2013-01-13 04:16:00,15.6,9.7,30.07,WNW,292,6.9,6.9,77,0.00,,,0.00,VWS V14.01,2013-01-13 10:16:00,
2013-01-13 04:17:00,15.6,9.7,30.07,WNW,292,6.9,6.9,77,0.00,,,0.00,VWS V14.01,2013-01-13 10:17:00,
2013-01-13 04:18:00,15.6,9.7,30.07,WNW,292,6.9,6.9,77,0.00,,,0.00,VWS V14.01,2013-01-13 10:18:00,
2013-01-13 04:19:00,15.6,9.7,30.07,WNW,292,4.9,4.9,77,0.00,,,0.00,VWS V14.01,2013-01-13 10:19:00,
2013-01-13 04:20:00,15.6,9.7,30.07,NW,315,9.6,9.6,77,0.00,,,0.00,VWS V14.01,2013-01-13 10:20:00,
2013-01-13 04:21:00,15.6,9.7,30.07,NW,315,9.6,9.6,77,0.00,,,0.00,VWS V14.01,2013-01-13 10:21:00,
2013-01-13 04:22:00,15.6,9.7,30.07,NW,315,3.5,9.6,77,0.00,,,0.00,VWS V14.01,2013-01-13 10:22:00,
2013-01-13 04:23:00,15.6,9.7,30.07,NW,315,3.5,3.5,77,0.00,,,0.00,VWS V14.01,2013-01-13 10:23:00,
2013-01-13 04:24:00,15.6,9.7,30.07,NW,315,3.5,3.5,77,0.00,,,0.00,VWS V14.01,2013-01-13 10:24:00,
2013-01-13 04:25:00,15.8,9.9,30.07,WNW,292,6.0,6.0,77,0.00,,,0.00,VWS V14.01,2013-01-13 10:25:00,
2013-01-13 04:26:00,15.8,9.9,30.07,WNW,292,6.0,6.0,77,0.00,,,0.00,VWS V14.01,2013-01-13 10:26:00,
2013-01-13 04:27:00,15.9,10.0,30.08,NW,315,5.5,6.0,77,0.00,,,0.00,VWS V14.01,2013-01-13 10:27:00,
2013-01-13 04:28:00,15.9,10.0,30.08,NW,315,5.5,5.5,77,0.00,,,0.00,VWS V14.01,2013-01-13 10:28:00,
2013-01-13 04:29:00,15.9,10.0,30.08,WNW,292,5.5,5.5,77,0.00,,,0.00,VWS V14.01,2013-01-13 10:29:00,
2013-01-13 04:30:00,15.9,10.0,30.08,WNW,292,5.5,5.5,77,0.00,,,0.00,VWS V14.01,2013-01-13 10:30:00,
2013-01-13 04:31:00,15.9,10.0,30.08,WNW,292,4.4,5.5,77,0.00,,,0.00,VWS V14.01,2013-01-13 10:31:00,
2013-01-13 04:32:00,15.9,10.0,30.08,WNW,292,4.4,4.4,77,0.00,,,0.00,VWS V14.01,2013-01-13 10:32:00,
2013-01-13 04:33:00,15.9,10.0,30.08,WNW,292,4.4,4.4,77,0.00,,,0.00,VWS V14.01,2013-01-13 10:33:00,
2013-01-13 04:34:00,15.9,10.0,30.09,WNW,292,10.7,10.7,77,0.00,,,0.00,VWS V14.01,2013-01-13 10:34:00,
2013-01-13 04:35:00,15.9,10.0,30.08,WNW,292,5.8,10.7,77,0.00,,,0.00,VWS V14.01,2013-01-13 10:35:00,
2013-01-13 04:36:00,15.9,10.0,30.07,WNW,292,5.8,5.8,77,0.00,,,0.00,VWS V14.01,2013-01-13 10:36:00,
2013-01-13 04:37:00,15.9,10.0,30.08,WNW,292,7.8,7.8,77,0.00,,,0.00,VWS V14.01,2013-01-13 10:37:00,
2013-01-13 04:38:00,15.9,10.0,30.08,WNW,292,7.8,7.8,77,0.00,,,0.00,VWS V14.01,2013-01-13 10:38:00,
2013-01-13 04:39:00,16.1,10.2,30.09,West,270,4.6,7.8,77,0.00,,,0.00,VWS V14.01,2013-01-13 10:39:00,
2013-01-13 04:40:00,15.9,10.0,30.09,West,270,4.6,4.6,77,0.00,,,0.00,VWS V14.01,2013-01-13 10:40:00,
2013-01-13 04:41:00,15.9,10.0,30.08,West,270,4.6,4.6,77,0.00,,,0.00,VWS V14.01,2013-01-13 10:41:00,
2013-01-13 04:42:00,16.1,10.2,30.09,WNW,292,9.3,9.3,77,0.00,,,0.00,VWS V14.01,2013-01-13 10:42:00,
2013-01-13 04:43:00,16.1,10.2,30.09,WNW,292,9.3,9.3,77,0.00,,,0.00,VWS V14.01,2013-01-13 10:43:00,
2013-01-13 04:44:00,16.1,10.2,30.09,WNW,292,6.7,9.3,77,0.00,,,0.00,VWS V14.01,2013-01-13 10:44:00,
2013-01-13 04:45:00,16.1,10.2,30.09,WNW,292,6.7,6.7,77,0.00,,,0.00,VWS V14.01,2013-01-13 10:45:00,
2013-01-13 04:46:00,16.1,10.2,30.09,WNW,292,9.8,9.8,77,0.00,,,0.00,VWS V14.01,2013-01-13 10:46:00,
2013-01-13 04:47:00,16.1,10.2,30.09,WNW,292,9.8,9.8,77,0.00,,,0.00,VWS V14.01,2013-01-13 10:47:00,
2013-01-13 04:48:00,16.1,10.2,30.09,WNW,292,9.8,9.8,77,0.00,,,0.00,VWS V14.01,2013-01-13 10:48:00,
2013-01-13 04:49:00,16.1,10.2,30.10,WNW,292,6.9,6.9,77,0.00,,,0.00,VWS V14.01,2013-01-13 10:49:00,
2013-01-13 04:50:00,16.1,10.2,30.09,WNW,292,6.0,6.9,77,0.00,,,0.00,VWS V14.01,2013-01-13 10:50:00,
2013-01-13 04:51:00,16.1,10.2,30.08,WNW,292,6.0,6.0,77,0.00,,,0.00,VWS V14.01,2013-01-13 10:51:00,
2013-01-13 04:52:00,16.1,10.2,30.08,WNW,292,8.5,8.5,77,0.00,,,0.00,VWS V14.01,2013-01-13 10:52:00,
2013-01-13 04:53:00,16.1,10.2,30.08,WNW,292,8.5,8.5,77,0.00,,,0.00,VWS V14.01,2013-01-13 10:53:00,
2013-01-13 04:54:00,16.1,10.2,30.09,WNW,292,8.5,8.5,77,0.00,,,0.00,VWS V14.01,2013-01-13 10:54:00,
2013-01-13 04:55:00,15.9,9.7,30.09,WNW,292,6.0,8.5,76,0.00,,,0.00,VWS V14.01,2013-01-13 10:55:00,
2013-01-13 04:56:00,15.9,9.7,30.09,WNW,292,6.0,6.0,76,0.00,,,0.00,VWS V14.01,2013-01-13 10:56:00,
2013-01-13 04:57:00,15.9,9.7,30.09,NNW,338,6.7,6.7,76,0.00,,,0.00,VWS V14.01,2013-01-13 10:57:00,
2013-01-13 04:58:00,15.9,9.7,30.09,NNW,338,6.7,6.7,76,0.00,,,0.00,VWS V14.01,2013-01-13 10:58:00,
2013-01-13 04:59:00,15.9,9.7,30.09,WNW,292,6.4,6.7,76,0.00,,,0.00,VWS V14.01,2013-01-13 10:59:00,
2013-01-13 05:00:00,15.9,9.7,30.09,WNW,292,6.4,6.4,76,0.00,,,0.00,VWS V14.01,2013-01-13 11:00:00,
2013-01-13 05:01:00,15.9,9.7,30.10,WNW,292,6.4,6.4,76,0.00,,,0.00,VWS V14.01,2013-01-13 11:01:00,
2013-01-13 05:02:00,15.9,9.7,30.10,WNW,292,6.4,6.4,76,0.00,,,0.00,VWS V14.01,2013-01-13 11:02:00,
2013-01-13 05:03:00,15.9,9.7,30.10,WNW,292,6.4,6.4,76,0.00,,,0.00,VWS V14.01,2013-01-13 11:03:00,
2013-01-13 05:04:00,15.9,9.7,30.09,WNW,292,3.1,3.1,76,0.00,,,0.00,VWS V14.01,2013-01-13 11:04:00,
2013-01-13 05:05:00,15.8,9.6,30.09,WNW,292,6.4,6.4,76,0.00,,,0.00,VWS V14.01,2013-01-13 11:05:00,
2013-01-13 05:06:00,15.8,9.6,30.09,WNW,292,6.4,6.4,76,0.00,,,0.00,VWS V14.01,2013-01-13 11:06:00,
2013-01-13 05:07:00,15.6,9.1,30.08,NW,315,5.8,6.4,75,0.00,,,0.00,VWS V14.01,2013-01-13 11:07:00,
2013-01-13 05:08:00,15.6,9.1,30.08,NW,315,5.8,5.8,75,0.00,,,0.00,VWS V14.01,2013-01-13 11:08:00,
2013-01-13 05:09:00,15.6,9.1,30.09,WNW,292,6.7,6.7,75,0.00,,,0.00,VWS V14.01,2013-01-13 11:09:00,
2013-01-13 05:10:00,15.6,9.1,30.09,WNW,292,6.7,6.7,75,0.00,,,0.00,VWS V14.01,2013-01-13 11:10:00,
2013-01-13 05:11:00,15.6,9.1,30.09,WNW,292,6.7,6.7,75,0.00,,,0.00,VWS V14.01,2013-01-13 11:11:00,
2013-01-13 05:12:00,15.6,9.1,30.09,NW,315,5.8,6.7,75,0.00,,,0.00,VWS V14.01,2013-01-13 11:12:00,
2013-01-13 05:13:00,15.6,9.1,30.09,NW,315,5.8,5.8,75,0.00,,,0.00,VWS V14.01,2013-01-13 11:13:00,
2013-01-13 05:14:00,15.6,9.1,30.09,WNW,292,1.5,5.8,75,0.00,,,0.00,VWS V14.01,2013-01-13 11:14:00,
2013-01-13 05:15:00,15.6,9.1,30.09,WNW,292,1.5,1.5,75,0.00,,,0.00,VWS V14.01,2013-01-13 11:15:00,
2013-01-13 05:16:00,15.6,9.1,30.09,NW,315,6.9,6.9,75,0.00,,,0.00,VWS V14.01,2013-01-13 11:16:00,
2013-01-13 05:17:00,15.6,9.1,30.09,NW,315,6.9,6.9,75,0.00,,,0.00,VWS V14.01,2013-01-13 11:17:00,
2013-01-13 05:18:00,15.6,9.1,30.09,NW,315,6.9,6.9,75,0.00,,,0.00,VWS V14.01,2013-01-13 11:18:00,
2013-01-13 05:19:00,15.6,9.1,30.09,NNW,338,3.5,3.5,75,0.00,,,0.00,VWS V14.01,2013-01-13 11:19:00,
2013-01-13 05:20:00,15.6,9.1,30.09,NW,315,11.1,11.1,75,0.00,,,0.00,VWS V14.01,2013-01-13 11:20:00,
2013-01-13 05:21:00,15.6,9.1,30.09,NW,315,11.1,11.1,75,0.00,,,0.00,VWS V14.01,2013-01-13 11:21:00,
2013-01-13 05:22:00,15.6,9.1,30.09,WNW,292,5.8,11.1,75,0.00,,,0.00,VWS V14.01,2013-01-13 11:22:00,
2013-01-13 05:23:00,15.6,9.1,30.09,WNW,292,5.8,5.8,75,0.00,,,0.00,VWS V14.01,2013-01-13 11:23:00,
2013-01-13 05:24:00,15.6,9.1,30.09,WNW,292,5.3,5.8,75,0.00,,,0.00,VWS V14.01,2013-01-13 11:24:00,
2013-01-13 05:25:00,15.6,9.1,30.09,WNW,292,5.3,5.3,75,0.00,,,0.00,VWS V14.01,2013-01-13 11:25:00,
2013-01-13 05:26:00,15.6,9.1,30.09,WNW,292,5.3,5.3,75,0.00,,,0.00,VWS V14.01,2013-01-13 11:26:00,
2013-01-13 05:27:00,15.6,9.1,30.09,NW,315,8.0,8.0,75,0.00,,,0.00,VWS V14.01,2013-01-13 11:27:00,
2013-01-13 05:28:00,15.6,9.1,30.09,NW,315,8.0,8.0,75,0.00,,,0.00,VWS V14.01,2013-01-13 11:28:00,
2013-01-13 05:29:00,15.4,8.9,30.09,NW,315,4.2,8.0,75,0.00,,,0.00,VWS V14.01,2013-01-13 11:29:00,
2013-01-13 05:30:00,15.4,8.9,30.09,NW,315,4.2,4.2,75,0.00,,,0.00,VWS V14.01,2013-01-13 11:30:00,
2013-01-13 05:31:00,15.4,8.9,30.09,WNW,292,7.6,7.6,75,0.00,,,0.00,VWS V14.01,2013-01-13 11:31:00,
2013-01-13 05:32:00,15.4,8.9,30.09,WNW,292,7.6,7.6,75,0.00,,,0.00,VWS V14.01,2013-01-13 11:32:00,
2013-01-13 05:33:00,15.4,8.9,30.09,WNW,292,7.6,7.6,75,0.00,,,0.00,VWS V14.01,2013-01-13 11:33:00,
2013-01-13 05:34:00,15.4,8.9,30.10,WNW,292,3.1,3.1,75,0.00,,,0.00,VWS V14.01,2013-01-13 11:34:00,
2013-01-13 05:35:00,15.4,8.9,30.10,West,270,7.1,7.1,75,0.00,,,0.00,VWS V14.01,2013-01-13 11:35:00,
2013-01-13 05:36:00,15.4,8.9,30.10,West,270,7.1,7.1,75,0.00,,,0.00,VWS V14.01,2013-01-13 11:36:00,
2013-01-13 05:37:00,15.4,8.9,30.09,WNW,292,10.7,10.7,75,0.00,,,0.00,VWS V14.01,2013-01-13 11:37:00,
2013-01-13 05:38:00,15.4,8.9,30.09,WNW,292,10.7,10.7,75,0.00,,,0.00,VWS V14.01,2013-01-13 11:38:00,
2013-01-13 05:39:00,15.4,8.9,30.09,NW,315,8.5,10.7,75,0.00,,,0.00,VWS V14.01,2013-01-13 11:39:00,
2013-01-13 05:40:00,15.4,8.6,30.09,NW,315,8.5,8.5,74,0.00,,,0.00,VWS V14.01,2013-01-13 11:40:00,
2013-01-13 05:41:00,15.4,8.6,30.09,NW,315,8.5,8.5,74,0.00,,,0.00,VWS V14.01,2013-01-13 11:41:00,
2013-01-13 05:42:00,15.4,8.6,30.09,NW,315,5.1,8.5,74,0.00,,,0.00,VWS V14.01,2013-01-13 11:42:00,
2013-01-13 05:43:00,15.4,8.6,30.09,NW,315,5.1,5.1,74,0.00,,,0.00,VWS V14.01,2013-01-13 11:43:00,
2013-01-13 05:44:00,15.2,8.4,30.09,NW,315,10.5,10.5,74,0.00,,,0.00,VWS V14.01,2013-01-13 11:44:00,
2013-01-13 05:45:00,15.2,8.4,30.09,NW,315,10.5,10.5,74,0.00,,,0.00,VWS V14.01,2013-01-13 11:45:00,
2013-01-13 05:46:00,15.2,8.4,30.10,NW,315,8.5,10.5,74,0.00,,,0.00,VWS V14.01,2013-01-13 11:46:00,
2013-01-13 05:47:00,15.2,8.4,30.10,NW,315,8.5,8.5,74,0.00,,,0.00,VWS V14.01,2013-01-13 11:47:00,
2013-01-13 05:48:00,15.2,8.4,30.10,NW,315,8.5,8.5,74,0.00,,,0.00,VWS V14.01,2013-01-13 11:48:00,
2013-01-13 05:49:00,15.2,8.4,30.10,NW,315,7.3,7.3,74,0.00,,,0.00,VWS V14.01,2013-01-13 11:49:00,
2013-01-13 05:50:00,15.2,8.4,30.10,NW,315,7.3,7.3,74,0.00,,,0.00,VWS V14.01,2013-01-13 11:50:00,
2013-01-13 05:51:00,15.2,8.1,30.10,NW,315,6.7,7.3,73,0.00,,,0.00,VWS V14.01,2013-01-13 11:51:00,
2013-01-13 05:52:00,15.2,8.1,30.10,WNW,292,10.2,10.2,73,0.00,,,0.00,VWS V14.01,2013-01-13 11:52:00,
2013-01-13 05:53:00,15.2,8.1,30.10,WNW,292,10.2,10.2,73,0.00,,,0.00,VWS V14.01,2013-01-13 11:53:00,
2013-01-13 05:54:00,15.0,7.9,30.10,NNW,338,6.4,10.2,73,0.00,,,0.00,VWS V14.01,2013-01-13 11:54:00,
2013-01-13 05:55:00,15.0,7.9,30.10,NNW,338,6.4,6.4,73,0.00,,,0.00,VWS V14.01,2013-01-13 11:55:00,
2013-01-13 05:56:00,15.0,7.9,30.10,NNW,338,6.4,6.4,73,0.00,,,0.00,VWS V14.01,2013-01-13 11:56:00,
2013-01-13 05:57:00,15.2,8.1,30.10,WNW,292,6.9,6.9,73,0.00,,,0.00,VWS V14.01,2013-01-13 11:57:00,
2013-01-13 05:58:00,15.2,8.1,30.10,WNW,292,6.9,6.9,73,0.00,,,0.00,VWS V14.01,2013-01-13 11:58:00,
2013-01-13 05:59:00,15.2,8.4,30.09,WNW,292,11.1,11.1,74,0.00,,,0.00,VWS V14.01,2013-01-13 11:59:00,
2013-01-13 06:00:00,15.2,8.4,30.09,WNW,292,11.1,11.1,74,0.00,,,0.00,VWS V14.01,2013-01-13 12:00:00,
2013-01-13 06:01:00,15.2,8.4,30.10,WNW,292,11.1,11.1,74,0.00,,,0.00,VWS V14.01,2013-01-13 12:01:00,
2013-01-13 06:02:00,15.2,8.4,30.10,WNW,292,11.1,11.1,74,0.00,,,0.00,VWS V14.01,2013-01-13 12:02:00,
2013-01-13 06:03:00,15.2,8.4,30.10,WNW,292,11.1,11.1,74,0.00,,,0.00,VWS V14.01,2013-01-13 12:03:00,
2013-01-13 06:04:00,15.0,7.9,30.11,WNW,292,5.5,5.5,73,0.00,,,0.00,VWS V14.01,2013-01-13 12:04:00,
2013-01-13 06:05:00,15.0,7.9,30.12,WNW,292,7.6,7.6,73,0.00,,,0.00,VWS V14.01,2013-01-13 12:05:00,
2013-01-13 06:06:00,15.0,7.9,30.12,WNW,292,7.6,7.6,73,0.00,,,0.00,VWS V14.01,2013-01-13 12:06:00,
2013-01-13 06:07:00,15.0,7.9,30.12,NW,315,3.3,7.6,73,0.00,,,0.00,VWS V14.01,2013-01-13 12:07:00,
2013-01-13 06:08:00,15.0,7.9,30.12,NW,315,3.3,3.3,73,0.00,,,0.00,VWS V14.01,2013-01-13 12:08:00,
2013-01-13 06:09:00,15.0,7.9,30.12,NW,315,3.3,3.3,73,0.00,,,0.00,VWS V14.01,2013-01-13 12:09:00,
2013-01-13 06:10:00,15.0,8.2,30.12,WNW,292,6.9,6.9,74,0.00,,,0.00,VWS V14.01,2013-01-13 12:10:00,
2013-01-13 06:11:00,15.0,8.2,30.12,WNW,292,6.9,6.9,74,0.00,,,0.00,VWS V14.01,2013-01-13 12:11:00,
2013-01-13 06:12:00,15.0,8.2,30.11,NNW,338,5.3,6.9,74,0.00,,,0.00,VWS V14.01,2013-01-13 12:12:00,
2013-01-13 06:13:00,15.0,8.2,30.11,NNW,338,5.3,5.3,74,0.00,,,0.00,VWS V14.01,2013-01-13 12:13:00,
2013-01-13 06:14:00,15.0,8.2,30.10,NNW,338,4.0,5.3,74,0.00,,,0.00,VWS V14.01,2013-01-13 12:14:00,
2013-01-13 06:15:00,15.0,8.2,30.11,NNW,338,4.0,4.0,74,0.00,,,0.00,VWS V14.01,2013-01-13 12:15:00,
2013-01-13 06:16:00,15.0,8.2,30.11,NNW,338,4.2,4.2,74,0.00,,,0.00,VWS V14.01,2013-01-13 12:16:00,
2013-01-13 06:17:00,15.0,8.2,30.10,NNW,338,4.2,4.2,74,0.00,,,0.00,VWS V14.01,2013-01-13 12:17:00,
2013-01-13 06:18:00,15.0,8.2,30.10,NNW,338,4.2,4.2,74,0.00,,,0.00,VWS V14.01,2013-01-13 12:18:00,
2013-01-13 06:19:00,15.0,8.5,30.10,NW,315,6.0,6.0,75,0.00,,,0.00,VWS V14.01,2013-01-13 12:19:00,
2013-01-13 06:20:00,15.0,8.5,30.11,NNW,338,6.4,6.4,75,0.00,,,0.00,VWS V14.01,2013-01-13 12:20:00,
2013-01-13 06:21:00,15.0,8.5,30.11,NNW,338,6.4,6.4,75,0.00,,,0.00,VWS V14.01,2013-01-13 12:21:00,
2013-01-13 06:22:00,15.0,8.5,30.10,NNW,338,9.8,9.8,75,0.00,,,0.00,VWS V14.01,2013-01-13 12:22:00,
2013-01-13 06:23:00,15.0,8.5,30.10,NNW,338,9.8,9.8,75,0.00,,,0.00,VWS V14.01,2013-01-13 12:23:00,
2013-01-13 06:24:00,15.0,8.5,30.11,NNW,338,7.3,9.8,75,0.00,,,0.00,VWS V14.01,2013-01-13 12:24:00,
2013-01-13 06:25:00,15.0,8.5,30.10,NNW,338,7.3,7.3,75,0.00,,,0.00,VWS V14.01,2013-01-13 12:25:00,
2013-01-13 06:26:00,15.0,8.5,30.11,NNW,338,7.3,7.3,75,0.00,,,0.00,VWS V14.01,2013-01-13 12:26:00,
2013-01-13 06:27:00,15.0,8.5,30.11,NNW,338,6.0,7.3,75,0.00,,,0.00,VWS V14.01,2013-01-13 12:27:00,
2013-01-13 06:28:00,15.0,8.5,30.11,NNW,338,6.0,6.0,75,0.00,,,0.00,VWS V14.01,2013-01-13 12:28:00,
2013-01-13 06:29:00,15.0,8.5,30.10,WNW,292,6.7,6.7,75,0.00,,,0.00,VWS V14.01,2013-01-13 12:29:00,
2013-01-13 06:30:00,15.0,8.5,30.11,WNW,292,6.7,6.7,75,0.00,,,0.00,VWS V14.01,2013-01-13 12:30:00,
2013-01-13 06:31:00,15.0,8.5,30.11,WNW,292,4.4,6.7,75,0.00,,,0.00,VWS V14.01,2013-01-13 12:31:00,
2013-01-13 06:32:00,15.0,8.5,30.11,WNW,292,4.4,4.4,75,0.00,,,0.00,VWS V14.01,2013-01-13 12:32:00,
2013-01-13 06:33:00,15.0,8.5,30.11,WNW,292,4.4,4.4,75,0.00,,,0.00,VWS V14.01,2013-01-13 12:33:00,
2013-01-13 06:34:00,14.9,8.4,30.10,WNW,292,8.7,8.7,75,0.00,,,0.00,VWS V14.01,2013-01-13 12:34:00,
2013-01-13 06:35:00,14.9,8.4,30.10,WNW,292,5.5,8.7,75,0.00,,,0.00,VWS V14.01,2013-01-13 12:35:00,
2013-01-13 06:36:00,14.9,8.4,30.10,WNW,292,5.5,5.5,75,0.00,,,0.00,VWS V14.01,2013-01-13 12:36:00,
2013-01-13 06:37:00,14.9,8.4,30.10,NW,315,4.6,5.5,75,0.00,,,0.00,VWS V14.01,2013-01-13 12:37:00,
2013-01-13 06:38:00,14.9,8.4,30.10,NW,315,4.6,4.6,75,0.00,,,0.00,VWS V14.01,2013-01-13 12:38:00,
2013-01-13 06:39:00,14.9,8.4,30.10,WNW,292,5.1,5.1,75,0.00,,,0.00,VWS V14.01,2013-01-13 12:39:00,
2013-01-13 06:40:00,14.9,8.4,30.10,WNW,292,5.1,5.1,75,0.00,,,0.00,VWS V14.01,2013-01-13 12:40:00,
2013-01-13 06:41:00,14.9,8.4,30.10,WNW,292,5.1,5.1,75,0.00,,,0.00,VWS V14.01,2013-01-13 12:41:00,
2013-01-13 06:42:00,14.7,8.2,30.10,WNW,292,7.3,7.3,75,0.00,,,0.00,VWS V14.01,2013-01-13 12:42:00,
2013-01-13 06:43:00,14.7,8.2,30.10,WNW,292,7.3,7.3,75,0.00,,,0.00,VWS V14.01,2013-01-13 12:43:00,
2013-01-13 06:44:00,14.7,8.2,30.10,NNW,338,7.1,7.3,75,0.00,,,0.00,VWS V14.01,2013-01-13 12:44:00,
2013-01-13 06:45:00,14.7,8.2,30.10,NNW,338,7.1,7.1,75,0.00,,,0.00,VWS V14.01,2013-01-13 12:45:00,
2013-01-13 06:46:00,14.7,8.2,30.10,WNW,292,9.8,9.8,75,0.00,,,0.00,VWS V14.01,2013-01-13 12:46:00,
2013-01-13 06:47:00,14.7,8.2,30.11,WNW,292,9.8,9.8,75,0.00,,,0.00,VWS V14.01,2013-01-13 12:47:00,
2013-01-13 06:48:00,14.7,8.2,30.11,WNW,292,9.8,9.8,75,0.00,,,0.00,VWS V14.01,2013-01-13 12:48:00,
2013-01-13 06:49:00,14.7,8.2,30.12,WNW,292,5.8,5.8,75,0.00,,,0.00,VWS V14.01,2013-01-13 12:49:00,
2013-01-13 06:50:00,14.7,8.2,30.12,NW,315,5.5,5.8,75,0.00,,,0.00,VWS V14.01,2013-01-13 12:50:00,
2013-01-13 06:51:00,14.7,8.2,30.12,NW,315,5.5,5.5,75,0.00,,,0.00,VWS V14.01,2013-01-13 12:51:00,
2013-01-13 06:52:00,14.7,8.2,30.12,NW,315,1.7,5.5,75,0.00,,,0.00,VWS V14.01,2013-01-13 12:52:00,
2013-01-13 06:53:00,14.7,8.2,30.12,NW,315,1.7,1.7,75,0.00,,,0.00,VWS V14.01,2013-01-13 12:53:00,
2013-01-13 06:54:00,14.7,8.2,30.12,WNW,292,9.3,9.3,75,0.00,,,0.00,VWS V14.01,2013-01-13 12:54:00,
2013-01-13 06:55:00,14.7,8.5,30.12,WNW,292,9.3,9.3,76,0.00,,,0.00,VWS V14.01,2013-01-13 12:55:00,
2013-01-13 06:56:00,14.7,8.5,30.12,WNW,292,9.3,9.3,76,0.00,,,0.00,VWS V14.01,2013-01-13 12:56:00,
2013-01-13 06:57:00,14.7,8.5,30.12,WNW,292,4.6,9.3,76,0.00,,,0.00,VWS V14.01,2013-01-13 12:57:00,
2013-01-13 06:58:00,14.7,8.5,30.12,WNW,292,4.6,4.6,76,0.00,,,0.00,VWS V14.01,2013-01-13 12:58:00,
2013-01-13 06:59:00,14.7,8.5,30.12,NW,315,10.0,10.0,76,0.00,,,0.00,VWS V14.01,2013-01-13 12:59:00,
2013-01-13 07:00:00,14.7,8.5,30.12,NW,315,10.0,10.0,76,0.00,,,0.00,VWS V14.01,2013-01-13 13:00:00,
2013-01-13 07:01:00,14.7,8.5,30.12,NW,315,10.0,10.0,76,0.00,,,0.00,VWS V14.01,2013-01-13 13:01:00,
2013-01-13 07:02:00,14.7,8.5,30.12,NW,315,10.0,10.0,76,0.00,,,0.00,VWS V14.01,2013-01-13 13:02:00,
2013-01-13 07:03:00,14.7,8.5,30.12,NW,315,10.0,10.0,76,0.00,,,0.00,VWS V14.01,2013-01-13 13:03:00,
2013-01-13 07:04:00,14.7,8.2,30.12,WNW,292,6.2,6.2,75,0.00,,,0.00,VWS V14.01,2013-01-13 13:04:00,
2013-01-13 07:05:00,14.7,8.2,30.12,WNW,292,4.2,6.2,75,0.00,,,0.00,VWS V14.01,2013-01-13 13:05:00,
2013-01-13 07:06:00,14.7,8.2,30.12,WNW,292,4.2,4.2,75,0.00,,,0.00,VWS V14.01,2013-01-13 13:06:00,
2013-01-13 07:07:00,14.7,8.2,30.13,WNW,292,8.7,8.7,75,0.00,,,0.00,VWS V14.01,2013-01-13 13:07:00,
2013-01-13 07:08:00,14.7,8.2,30.13,WNW,292,8.7,8.7,75,0.00,,,0.00,VWS V14.01,2013-01-13 13:08:00,
2013-01-13 07:09:00,14.7,8.2,30.13,WNW,292,11.4,11.4,75,0.00,,,0.00,VWS V14.01,2013-01-13 13:09:00,
2013-01-13 07:10:00,14.7,8.2,30.13,WNW,292,11.4,11.4,75,0.00,,,0.00,VWS V14.01,2013-01-13 13:10:00,
2013-01-13 07:11:00,14.7,8.2,30.13,WNW,292,11.4,11.4,75,0.00,,,0.00,VWS V14.01,2013-01-13 13:11:00,
2013-01-13 07:12:00,14.5,8.0,30.13,WNW,292,10.9,11.4,75,0.00,,,0.00,VWS V14.01,2013-01-13 13:12:00,
2013-01-13 07:13:00,14.5,8.0,30.13,WNW,292,10.9,10.9,75,0.00,,,0.00,VWS V14.01,2013-01-13 13:13:00,
2013-01-13 07:14:00,14.5,8.0,30.14,West,270,5.8,10.9,75,0.00,,,0.00,VWS V14.01,2013-01-13 13:14:00,
2013-01-13 07:15:00,14.5,8.0,30.14,West,270,5.8,5.8,75,0.00,,,0.00,VWS V14.01,2013-01-13 13:15:00,
2013-01-13 07:16:00,14.5,8.0,30.15,WNW,292,6.0,6.0,75,0.00,,,0.00,VWS V14.01,2013-01-13 13:16:00,
2013-01-13 07:17:00,14.5,8.0,30.15,WNW,292,6.0,6.0,75,0.00,,,0.00,VWS V14.01,2013-01-13 13:17:00,
2013-01-13 07:18:00,14.3,7.6,30.15,NW,315,4.9,6.0,74,0.00,,,0.00,VWS V14.01,2013-01-13 13:18:00,
2013-01-13 07:19:00,14.3,7.6,30.15,NW,315,4.9,4.9,74,0.00,,,0.00,VWS V14.01,2013-01-13 13:19:00,
2013-01-13 07:20:00,14.1,7.3,30.15,WNW,292,8.7,8.7,74,0.00,,,0.00,VWS V14.01,2013-01-13 13:20:00,
2013-01-13 07:21:00,14.1,7.3,30.15,WNW,292,8.7,8.7,74,0.00,,,0.00,VWS V14.01,2013-01-13 13:21:00,
2013-01-13 07:22:00,14.1,7.3,30.15,WNW,292,8.9,8.9,74,0.00,,,0.00,VWS V14.01,2013-01-13 13:22:00,
2013-01-13 07:23:00,14.1,7.3,30.15,WNW,292,8.9,8.9,74,0.00,,,0.00,VWS V14.01,2013-01-13 13:23:00,
2013-01-13 07:24:00,14.1,7.3,30.15,WNW,292,6.0,8.9,74,0.00,,,0.00,VWS V14.01,2013-01-13 13:24:00,
2013-01-13 07:25:00,14.1,7.3,30.15,WNW,292,6.0,6.0,74,0.00,,,0.00,VWS V14.01,2013-01-13 13:25:00,
2013-01-13 07:26:00,14.1,7.3,30.15,WNW,292,6.0,6.0,74,0.00,,,0.00,VWS V14.01,2013-01-13 13:26:00,
2013-01-13 07:27:00,14.1,7.3,30.15,WNW,292,7.3,7.3,74,0.00,,,0.00,VWS V14.01,2013-01-13 13:27:00,
2013-01-13 07:28:00,14.1,7.3,30.15,WNW,292,7.3,7.3,74,0.00,,,0.00,VWS V14.01,2013-01-13 13:28:00,
2013-01-13 07:29:00,14.0,7.2,30.15,WNW,292,10.0,10.0,74,0.00,,,0.00,VWS V14.01,2013-01-13 13:29:00,
2013-01-13 07:30:00,14.0,7.2,30.15,WNW,292,10.0,10.0,74,0.00,,,0.00,VWS V14.01,2013-01-13 13:30:00,
2013-01-13 07:31:00,13.8,6.8,30.15,West,270,11.4,11.4,73,0.00,,,0.00,VWS V14.01,2013-01-13 13:31:00,
2013-01-13 07:32:00,13.8,6.8,30.15,West,270,11.4,11.4,73,0.00,,,0.00,VWS V14.01,2013-01-13 13:32:00,
2013-01-13 07:33:00,13.8,6.8,30.15,WNW,292,15.6,15.6,73,0.00,,,0.00,VWS V14.01,2013-01-13 13:33:00,
2013-01-13 07:34:00,13.8,6.8,30.15,WNW,292,15.6,15.6,73,0.00,,,0.00,VWS V14.01,2013-01-13 13:34:00,
2013-01-13 07:35:00,13.8,6.8,30.15,WNW,292,8.2,15.6,73,0.00,,,0.00,VWS V14.01,2013-01-13 13:35:00,
2013-01-13 07:36:00,13.8,6.8,30.15,WNW,292,8.2,8.2,73,0.00,,,0.00,VWS V14.01,2013-01-13 13:36:00,
2013-01-13 07:37:00,13.8,7.1,30.15,WNW,292,6.0,6.0,74,0.00,,,0.00,VWS V14.01,2013-01-13 13:37:00,
2013-01-13 07:38:00,13.8,7.1,30.15,WNW,292,6.0,6.0,74,0.00,,,0.00,VWS V14.01,2013-01-13 13:38:00,
2013-01-13 07:39:00,13.8,7.1,30.16,West,270,7.8,7.8,74,0.00,,,0.00,VWS V14.01,2013-01-13 13:39:00,
2013-01-13 07:40:00,13.8,7.1,30.16,West,270,7.8,7.8,74,0.00,,,0.00,VWS V14.01,2013-01-13 13:40:00,
2013-01-13 07:41:00,13.8,7.1,30.16,West,270,7.8,7.8,74,0.00,,,0.00,VWS V14.01,2013-01-13 13:41:00,
2013-01-13 07:42:00,13.8,7.1,30.16,WNW,292,7.3,7.3,74,0.00,,,0.00,VWS V14.01,2013-01-13 13:42:00,
2013-01-13 07:43:00,13.8,7.1,30.16,WNW,292,7.3,7.3,74,0.00,,,0.00,VWS V14.01,2013-01-13 13:43:00,
2013-01-13 07:44:00,13.8,7.1,30.16,WNW,292,5.8,7.3,74,0.00,,,0.00,VWS V14.01,2013-01-13 13:44:00,
2013-01-13 07:45:00,13.8,7.1,30.16,WNW,292,5.8,5.8,74,0.00,,,0.00,VWS V14.01,2013-01-13 13:45:00,
2013-01-13 07:46:00,13.8,7.1,30.16,WNW,292,11.1,11.1,74,0.00,,,0.00,VWS V14.01,2013-01-13 13:46:00,
2013-01-13 07:47:00,13.8,7.1,30.16,WNW,292,11.1,11.1,74,0.00,,,0.00,VWS V14.01,2013-01-13 13:47:00,
2013-01-13 07:48:00,13.6,6.6,30.16,WNW,292,13.1,13.1,73,0.00,,,0.00,VWS V14.01,2013-01-13 13:48:00,
2013-01-13 07:49:00,13.6,6.6,30.15,WNW,292,13.1,13.1,73,0.00,,,0.00,VWS V14.01,2013-01-13 13:49:00,
2013-01-13 07:50:00,13.6,6.9,30.15,WNW,292,8.9,13.1,74,0.00,,,0.00,VWS V14.01,2013-01-13 13:50:00,
2013-01-13 07:51:00,13.6,6.9,30.15,WNW,292,8.9,8.9,74,0.00,,,0.00,VWS V14.01,2013-01-13 13:51:00,
2013-01-13 07:52:00,13.6,6.6,30.15,West,270,8.0,8.0,73,0.00,,,0.00,VWS V14.01,2013-01-13 13:52:00,
2013-01-13 07:53:00,13.6,6.6,30.15,West,270,8.0,8.0,73,0.00,,,0.00,VWS V14.01,2013-01-13 13:53:00,
2013-01-13 07:54:00,13.6,6.6,30.15,WNW,292,8.2,8.2,73,0.00,,,0.00,VWS V14.01,2013-01-13 13:54:00,
2013-01-13 07:55:00,13.6,6.9,30.15,WNW,292,8.2,8.2,74,0.00,,,0.00,VWS V14.01,2013-01-13 13:55:00,
2013-01-13 07:56:00,13.6,6.9,30.15,WNW,292,8.2,8.2,74,0.00,,,0.00,VWS V14.01,2013-01-13 13:56:00,
2013-01-13 07:57:00,13.6,6.9,30.16,WNW,292,5.8,5.8,74,0.00,,,0.00,VWS V14.01,2013-01-13 13:57:00,
2013-01-13 07:58:00,13.6,6.9,30.16,WNW,292,5.8,5.8,74,0.00,,,0.00,VWS V14.01,2013-01-13 13:58:00,
2013-01-13 07:59:00,13.6,6.9,30.15,West,270,7.8,7.8,74,0.00,,,0.00,VWS V14.01,2013-01-13 13:59:00,
2013-01-13 08:00:00,13.6,6.9,30.16,West,270,7.8,7.8,74,0.00,,,0.00,VWS V14.01,2013-01-13 14:00:00,
2013-01-13 08:01:00,13.6,6.9,30.16,WNW,292,4.0,7.8,74,0.00,,,0.00,VWS V14.01,2013-01-13 14:01:00,
2013-01-13 08:02:00,13.6,6.9,30.16,WNW,292,4.0,4.0,74,0.00,,,0.00,VWS V14.01,2013-01-13 14:02:00,
2013-01-13 08:03:00,13.8,7.1,30.16,WNW,292,5.3,5.3,74,0.00,,,0.00,VWS V14.01,2013-01-13 14:03:00,
2013-01-13 08:04:00,13.8,7.1,30.16,WNW,292,5.3,5.3,74,0.00,,,0.00,VWS V14.01,2013-01-13 14:04:00,
2013-01-13 08:05:00,13.6,6.9,30.16,West,270,11.1,11.1,74,0.00,,,0.00,VWS V14.01,2013-01-13 14:05:00,
2013-01-13 08:06:00,13.6,6.9,30.17,West,270,11.1,11.1,74,0.00,,,0.00,VWS V14.01,2013-01-13 14:06:00,
2013-01-13 08:07:00,13.6,6.9,30.16,WNW,292,6.4,6.4,74,0.00,,,0.00,VWS V14.01,2013-01-13 14:07:00,
2013-01-13 08:08:00,13.6,6.9,30.16,WNW,292,6.4,6.4,74,0.00,,,0.00,VWS V14.01,2013-01-13 14:08:00,
2013-01-13 08:09:00,13.6,6.9,30.16,NW,315,7.6,7.6,74,0.00,,,0.00,VWS V14.01,2013-01-13 14:09:00,
2013-01-13 08:10:00,13.6,6.9,30.15,NW,315,7.6,7.6,74,0.00,,,0.00,VWS V14.01,2013-01-13 14:10:00,
2013-01-13 08:11:00,13.6,6.9,30.15,NW,315,7.6,7.6,74,0.00,,,0.00,VWS V14.01,2013-01-13 14:11:00,
2013-01-13 08:12:00,13.6,6.9,30.15,NW,315,12.7,12.7,74,0.00,,,0.00,VWS V14.01,2013-01-13 14:12:00,
2013-01-13 08:13:00,13.6,6.9,30.15,NW,315,12.7,12.7,74,0.00,,,0.00,VWS V14.01,2013-01-13 14:13:00,
2013-01-13 08:14:00,13.6,6.9,30.15,NW,315,10.9,12.7,74,0.00,,,0.00,VWS V14.01,2013-01-13 14:14:00,
2013-01-13 08:15:00,13.6,6.9,30.15,NW,315,10.9,10.9,74,0.00,,,0.00,VWS V14.01,2013-01-13 14:15:00,
2013-01-13 08:16:00,13.6,6.9,30.16,WNW,292,11.1,11.1,74,0.00,,,0.00,VWS V14.01,2013-01-13 14:16:00,
2013-01-13 08:17:00,13.6,6.9,30.16,WNW,292,11.1,11.1,74,0.00,,,0.00,VWS V14.01,2013-01-13 14:17:00,
2013-01-13 08:18:00,13.6,6.9,30.16,WNW,292,8.5,11.1,74,0.00,,,0.00,VWS V14.01,2013-01-13 14:18:00,
2013-01-13 08:19:00,13.6,6.9,30.16,WNW,292,8.5,8.5,74,0.00,,,0.00,VWS V14.01,2013-01-13 14:19:00,
2013-01-13 08:20:00,13.6,6.9,30.16,West,270,6.4,8.5,74,0.00,,,0.00,VWS V14.01,2013-01-13 14:20:00,
2013-01-13 08:21:00,13.6,6.9,30.16,West,270,6.4,6.4,74,0.00,,,0.00,VWS V14.01,2013-01-13 14:21:00,
2013-01-13 08:22:00,13.6,6.9,30.16,WNW,292,10.7,10.7,74,0.00,,,0.00,VWS V14.01,2013-01-13 14:22:00,
2013-01-13 08:23:00,13.6,6.9,30.16,WNW,292,10.7,10.7,74,0.00,,,0.00,VWS V14.01,2013-01-13 14:23:00,
2013-01-13 08:24:00,13.6,6.9,30.16,NW,315,6.4,10.7,74,0.00,,,0.00,VWS V14.01,2013-01-13 14:24:00,
2013-01-13 08:25:00,13.6,6.9,30.16,NW,315,6.4,6.4,74,0.00,,,0.00,VWS V14.01,2013-01-13 14:25:00,
2013-01-13 08:26:00,13.2,6.5,30.16,NW,315,6.4,6.4,74,0.00,,,0.00,VWS V14.01,2013-01-13 14:26:00,
2013-01-13 08:27:00,13.2,6.2,30.17,NW,315,5.1,5.1,73,0.00,,,0.00,VWS V14.01,2013-01-13 14:27:00,
2013-01-13 08:28:00,13.2,6.2,30.17,NW,315,5.1,5.1,73,0.00,,,0.00,VWS V14.01,2013-01-13 14:28:00,
2013-01-13 08:29:00,13.4,6.4,30.17,WNW,292,7.1,7.1,73,0.00,,,0.00,VWS V14.01,2013-01-13 14:29:00,
2013-01-13 08:30:00,13.4,6.4,30.17,WNW,292,7.1,7.1,73,0.00,,,0.00,VWS V14.01,2013-01-13 14:30:00,
2013-01-13 08:31:00,13.2,6.2,30.18,West,270,8.9,8.9,73,0.00,,,0.00,VWS V14.01,2013-01-13 14:31:00,
2013-01-13 08:32:00,13.2,6.2,30.18,West,270,8.9,8.9,73,0.00,,,0.00,VWS V14.01,2013-01-13 14:32:00,
2013-01-13 08:33:00,13.2,6.2,30.17,WNW,292,13.4,13.4,73,0.00,,,0.00,VWS V14.01,2013-01-13 14:33:00,
2013-01-13 08:34:00,13.2,6.2,30.17,WNW,292,13.4,13.4,73,0.00,,,0.00,VWS V14.01,2013-01-13 14:34:00,
2013-01-13 08:35:00,13.2,6.2,30.17,WNW,292,10.0,13.4,73,0.00,,,0.00,VWS V14.01,2013-01-13 14:35:00,
2013-01-13 08:36:00,13.2,6.2,30.17,WNW,292,10.0,10.0,73,0.00,,,0.00,VWS V14.01,2013-01-13 14:36:00,
2013-01-13 08:37:00,13.2,6.2,30.17,WNW,292,8.7,8.7,73,0.00,,,0.00,VWS V14.01,2013-01-13 14:37:00,
2013-01-13 08:38:00,13.2,6.2,30.17,WNW,292,8.7,8.7,73,0.00,,,0.00,VWS V14.01,2013-01-13 14:38:00,
2013-01-13 08:39:00,13.2,6.2,30.17,West,270,4.9,8.7,73,0.00,,,0.00,VWS V14.01,2013-01-13 14:39:00,
2013-01-13 08:40:00,13.2,6.2,30.17,West,270,4.9,4.9,73,0.00,,,0.00,VWS V14.01,2013-01-13 14:40:00,
2013-01-13 08:41:00,13.2,6.5,30.17,West,270,4.9,4.9,74,0.00,,,0.00,VWS V14.01,2013-01-13 14:41:00,
2013-01-13 08:42:00,13.2,6.5,30.17,WNW,292,10.0,10.0,74,0.00,,,0.00,VWS V14.01,2013-01-13 14:42:00,
2013-01-13 08:43:00,13.2,6.5,30.17,WNW,292,10.0,10.0,74,0.00,,,0.00,VWS V14.01,2013-01-13 14:43:00,
2013-01-13 08:44:00,13.2,6.2,30.17,WNW,292,5.1,10.0,73,0.00,,,0.00,VWS V14.01,2013-01-13 14:44:00,
2013-01-13 08:45:00,13.2,6.2,30.17,WNW,292,5.1,5.1,73,0.00,,,0.00,VWS V14.01,2013-01-13 14:45:00,
2013-01-13 08:46:00,13.1,6.1,30.17,West,270,6.7,6.7,73,0.00,,,0.00,VWS V14.01,2013-01-13 14:46:00,
2013-01-13 08:47:00,13.1,6.1,30.17,West,270,6.7,6.7,73,0.00,,,0.00,VWS V14.01,2013-01-13 14:47:00,
2013-01-13 08:48:00,13.1,6.4,30.16,NW,315,4.4,6.7,74,0.00,,,0.00,VWS V14.01,2013-01-13 14:48:00,
2013-01-13 08:49:00,13.1,6.4,30.16,NW,315,4.4,4.4,74,0.00,,,0.00,VWS V14.01,2013-01-13 14:49:00,
2013-01-13 08:50:00,13.2,6.5,30.16,WNW,292,5.5,5.5,74,0.00,,,0.00,VWS V14.01,2013-01-13 14:50:00,
2013-01-13 08:51:00,13.2,6.5,30.16,WNW,292,5.5,5.5,74,0.00,,,0.00,VWS V14.01,2013-01-13 14:51:00,
2013-01-13 08:52:00,13.2,6.5,30.16,WNW,292,7.8,7.8,74,0.00,,,0.00,VWS V14.01,2013-01-13 14:52:00,
2013-01-13 08:53:00,13.2,6.5,30.16,WNW,292,7.8,7.8,74,0.00,,,0.00,VWS V14.01,2013-01-13 14:53:00,
2013-01-13 08:54:00,13.2,6.2,30.16,WNW,292,8.7,8.7,73,0.00,,,0.00,VWS V14.01,2013-01-13 14:54:00,
2013-01-13 08:55:00,13.2,6.2,30.16,WNW,292,8.7,8.7,73,0.00,,,0.00,VWS V14.01,2013-01-13 14:55:00,
2013-01-13 08:56:00,13.2,6.5,30.16,NNW,338,9.1,9.1,74,0.00,,,0.00,VWS V14.01,2013-01-13 14:56:00,
2013-01-13 08:57:00,13.2,6.5,30.15,NNW,338,9.1,9.1,74,0.00,,,0.00,VWS V14.01,2013-01-13 14:57:00,
2013-01-13 08:58:00,13.2,6.5,30.15,NNW,338,9.1,9.1,74,0.00,,,0.00,VWS V14.01,2013-01-13 14:58:00,
2013-01-13 08:59:00,13.6,6.9,30.15,NNW,338,3.3,9.1,74,0.00,,,0.00,VWS V14.01,2013-01-13 14:59:00,
2013-01-13 09:00:00,13.6,6.9,30.15,NNW,338,3.3,3.3,74,0.00,,,0.00,VWS V14.01,2013-01-13 15:00:00,
2013-01-13 09:01:00,13.8,7.1,30.16,North,0,6.4,6.4,74,0.00,,,0.00,VWS V14.01,2013-01-13 15:01:00,
2013-01-13 09:02:00,13.8,7.1,30.15,North,0,6.4,6.4,74,0.00,,,0.00,VWS V14.01,2013-01-13 15:02:00,
2013-01-13 09:03:00,14.1,7.1,30.16,WNW,292,6.9,6.9,73,0.00,,,0.00,VWS V14.01,2013-01-13 15:03:00,
2013-01-13 09:04:00,14.1,7.1,30.16,WNW,292,6.9,6.9,73,0.00,,,0.00,VWS V14.01,2013-01-13 15:04:00,
2013-01-13 09:05:00,14.1,7.1,30.16,WNW,292,6.7,6.9,73,0.00,,,0.00,VWS V14.01,2013-01-13 15:05:00,
2013-01-13 09:06:00,14.1,7.1,30.16,WNW,292,6.7,6.7,73,0.00,,,0.00,VWS V14.01,2013-01-13 15:06:00,
2013-01-13 09:07:00,13.8,6.8,30.17,WNW,292,5.3,5.3,73,0.00,,,0.00,VWS V14.01,2013-01-13 15:07:00,
2013-01-13 09:08:00,13.8,6.8,30.16,WNW,292,5.3,5.3,73,0.00,,,0.00,VWS V14.01,2013-01-13 15:08:00,
2013-01-13 09:09:00,13.8,6.8,30.16,NW,315,9.1,9.1,73,0.00,,,0.00,VWS V14.01,2013-01-13 15:09:00,
2013-01-13 09:10:00,13.8,6.8,30.16,NW,315,9.1,9.1,73,0.00,,,0.00,VWS V14.01,2013-01-13 15:10:00,
2013-01-13 09:11:00,13.8,6.8,30.16,NNW,338,4.0,9.1,73,0.00,,,0.00,VWS V14.01,2013-01-13 15:11:00,
2013-01-13 09:12:00,13.8,6.8,30.16,NNW,338,4.0,4.0,73,0.00,,,0.00,VWS V14.01,2013-01-13 15:12:00,
2013-01-13 09:13:00,13.8,6.8,30.16,NNW,338,4.0,4.0,73,0.00,,,0.00,VWS V14.01,2013-01-13 15:13:00,
2013-01-13 09:14:00,13.8,6.8,30.16,North,0,5.8,5.8,73,0.00,,,0.00,VWS V14.01,2013-01-13 15:14:00,
2013-01-13 09:15:00,13.8,6.8,30.16,North,0,5.8,5.8,73,0.00,,,0.00,VWS V14.01,2013-01-13 15:15:00,
2013-01-13 09:16:00,14.1,7.1,30.16,NW,315,5.5,5.8,73,0.00,,,0.00,VWS V14.01,2013-01-13 15:16:00,
2013-01-13 09:17:00,14.1,7.1,30.16,NW,315,5.5,5.5,73,0.00,,,0.00,VWS V14.01,2013-01-13 15:17:00,
2013-01-13 09:18:00,14.1,7.1,30.16,WNW,292,8.2,8.2,73,0.00,,,0.00,VWS V14.01,2013-01-13 15:18:00,
2013-01-13 09:19:00,14.1,7.1,30.16,WNW,292,8.2,8.2,73,0.00,,,0.00,VWS V14.01,2013-01-13 15:19:00,
2013-01-13 09:20:00,14.1,7.1,30.16,NNW,338,5.8,8.2,73,0.00,,,0.00,VWS V14.01,2013-01-13 15:20:00,
2013-01-13 09:21:00,14.1,7.1,30.16,NNW,338,5.8,5.8,73,0.00,,,0.00,VWS V14.01,2013-01-13 15:21:00,
2013-01-13 09:22:00,14.1,6.8,30.16,NNW,338,5.1,5.1,72,0.00,,,0.00,VWS V14.01,2013-01-13 15:22:00,
2013-01-13 09:23:00,14.1,6.8,30.16,NNW,338,5.1,5.1,72,0.00,,,0.00,VWS V14.01,2013-01-13 15:23:00,
2013-01-13 09:24:00,14.0,6.7,30.16,WNW,292,7.3,7.3,72,0.00,,,0.00,VWS V14.01,2013-01-13 15:24:00,
2013-01-13 09:25:00,14.0,6.7,30.16,WNW,292,7.3,7.3,72,0.00,,,0.00,VWS V14.01,2013-01-13 15:25:00,
2013-01-13 09:26:00,14.0,7.0,30.16,West,270,9.3,9.3,73,0.00,,,0.00,VWS V14.01,2013-01-13 15:26:00,
2013-01-13 09:27:00,13.8,6.8,30.16,West,270,9.3,9.3,73,0.00,,,0.00,VWS V14.01,2013-01-13 15:27:00,
2013-01-13 09:28:00,13.8,6.8,30.16,West,270,9.3,9.3,73,0.00,,,0.00,VWS V14.01,2013-01-13 15:28:00,
2013-01-13 09:29:00,14.1,7.1,30.16,NNW,338,6.9,9.3,73,0.00,,,0.00,VWS V14.01,2013-01-13 15:29:00,
2013-01-13 09:30:00,14.1,7.1,30.16,NNW,338,6.9,6.9,73,0.00,,,0.00,VWS V14.01,2013-01-13 15:30:00,
2013-01-13 09:31:00,14.1,7.1,30.16,WNW,292,7.6,7.6,73,0.00,,,0.00,VWS V14.01,2013-01-13 15:31:00,
2013-01-13 09:32:00,14.1,7.1,30.16,WNW,292,7.6,7.6,73,0.00,,,0.00,VWS V14.01,2013-01-13 15:32:00,
2013-01-13 09:33:00,14.3,7.2,30.16,WNW,292,11.1,11.1,73,0.00,,,0.00,VWS V14.01,2013-01-13 15:33:00,
2013-01-13 09:34:00,14.3,7.2,30.15,WNW,292,11.1,11.1,73,0.00,,,0.00,VWS V14.01,2013-01-13 15:34:00,
2013-01-13 09:35:00,14.1,6.8,30.15,WNW,292,8.0,11.1,72,0.00,,,0.00,VWS V14.01,2013-01-13 15:35:00,
2013-01-13 09:36:00,14.1,6.8,30.15,WNW,292,8.0,8.0,72,0.00,,,0.00,VWS V14.01,2013-01-13 15:36:00,
2013-01-13 09:37:00,13.8,6.5,30.15,WNW,292,10.2,10.2,72,0.00,,,0.00,VWS V14.01,2013-01-13 15:37:00,
2013-01-13 09:38:00,13.8,6.5,30.15,WNW,292,10.2,10.2,72,0.00,,,0.00,VWS V14.01,2013-01-13 15:38:00,
2013-01-13 09:39:00,13.8,6.5,30.15,WNW,292,9.1,10.2,72,0.00,,,0.00,VWS V14.01,2013-01-13 15:39:00,
2013-01-13 09:40:00,13.6,6.3,30.15,WNW,292,9.1,9.1,72,0.00,,,0.00,VWS V14.01,2013-01-13 15:40:00,
2013-01-13 09:41:00,13.2,5.9,30.15,WNW,292,7.1,9.1,72,0.00,,,0.00,VWS V14.01,2013-01-13 15:41:00,
2013-01-13 09:42:00,13.2,5.9,30.15,WNW,292,7.1,7.1,72,0.00,,,0.00,VWS V14.01,2013-01-13 15:42:00,
2013-01-13 09:43:00,13.2,5.9,30.15,WNW,292,7.1,7.1,72,0.00,,,0.00,VWS V14.01,2013-01-13 15:43:00,
2013-01-13 09:44:00,13.2,6.2,30.15,WNW,292,8.0,8.0,73,0.00,,,0.00,VWS V14.01,2013-01-13 15:44:00,
2013-01-13 09:45:00,13.2,6.2,30.15,WNW,292,8.0,8.0,73,0.00,,,0.00,VWS V14.01,2013-01-13 15:45:00,
2013-01-13 09:46:00,13.2,6.2,30.15,WNW,292,5.5,8.0,73,0.00,,,0.00,VWS V14.01,2013-01-13 15:46:00,
2013-01-13 09:47:00,13.2,6.2,30.15,WNW,292,5.5,5.5,73,0.00,,,0.00,VWS V14.01,2013-01-13 15:47:00,
2013-01-13 09:48:00,13.2,6.2,30.15,WNW,292,7.1,7.1,73,0.00,,,0.00,VWS V14.01,2013-01-13 15:48:00,
2013-01-13 09:49:00,13.2,6.2,30.15,WNW,292,7.1,7.1,73,0.00,,,0.00,VWS V14.01,2013-01-13 15:49:00,
2013-01-13 09:50:00,13.6,6.6,30.15,NW,315,9.1,9.1,73,0.00,,,0.00,VWS V14.01,2013-01-13 15:50:00,
2013-01-13 09:51:00,13.6,6.6,30.15,NW,315,9.1,9.1,73,0.00,,,0.00,VWS V14.01,2013-01-13 15:51:00,
2013-01-13 09:52:00,14.1,6.8,30.15,WNW,292,5.5,5.5,72,0.00,,,0.00,VWS V14.01,2013-01-13 15:52:00,
2013-01-13 09:53:00,14.1,6.8,30.16,WNW,292,5.5,5.5,72,0.00,,,0.00,VWS V14.01,2013-01-13 15:53:00,
2013-01-13 09:54:00,15.0,6.7,30.16,West,270,9.6,9.6,69,0.00,,,0.00,VWS V14.01,2013-01-13 15:54:00,
2013-01-13 09:55:00,15.0,6.7,30.16,West,270,9.6,9.6,69,0.00,,,0.00,VWS V14.01,2013-01-13 15:55:00,
2013-01-13 09:56:00,15.8,7.4,30.16,West,270,9.6,9.6,69,0.00,,,0.00,VWS V14.01,2013-01-13 15:56:00,
2013-01-13 09:57:00,15.8,7.4,30.16,WNW,292,9.6,9.6,69,0.00,,,0.00,VWS V14.01,2013-01-13 15:57:00,
2013-01-13 09:58:00,15.8,7.4,30.15,WNW,292,9.6,9.6,69,0.00,,,0.00,VWS V14.01,2013-01-13 15:58:00,
2013-01-13 09:59:00,15.4,6.7,30.15,NW,315,7.8,9.6,68,0.00,,,0.00,VWS V14.01,2013-01-13 15:59:00,
2013-01-13 10:00:00,15.4,6.7,30.15,NW,315,7.8,7.8,68,0.00,,,0.00,VWS V14.01,2013-01-13 16:00:00,
2013-01-13 10:01:00,15.6,7.3,30.16,WNW,292,6.2,7.8,69,0.00,,,0.00,VWS V14.01,2013-01-13 16:01:00,
2013-01-13 10:02:00,15.6,7.3,30.16,WNW,292,6.2,6.2,69,0.00,,,0.00,VWS V14.01,2013-01-13 16:02:00,
2013-01-13 10:03:00,15.4,6.7,30.16,West,270,3.8,6.2,68,0.00,,,0.00,VWS V14.01,2013-01-13 16:03:00,
2013-01-13 10:04:00,15.4,6.7,30.16,West,270,3.8,3.8,68,0.00,,,0.00,VWS V14.01,2013-01-13 16:04:00,
2013-01-13 10:05:00,15.6,6.9,30.16,West,270,7.1,7.1,68,0.00,,,0.00,VWS V14.01,2013-01-13 16:05:00,
2013-01-13 10:06:00,15.6,6.9,30.16,West,270,7.1,7.1,68,0.00,,,0.00,VWS V14.01,2013-01-13 16:06:00,
2013-01-13 10:07:00,16.5,7.8,30.16,WNW,292,9.3,9.3,68,0.00,,,0.00,VWS V14.01,2013-01-13 16:07:00,
2013-01-13 10:08:00,16.5,7.8,30.16,WNW,292,9.3,9.3,68,0.00,,,0.00,VWS V14.01,2013-01-13 16:08:00,
2013-01-13 10:09:00,17.2,7.8,30.16,West,270,12.9,12.9,66,0.00,,,0.00,VWS V14.01,2013-01-13 16:09:00,
2013-01-13 10:10:00,17.2,7.8,30.16,West,270,12.9,12.9,66,0.00,,,0.00,VWS V14.01,2013-01-13 16:10:00,
2013-01-13 10:11:00,17.7,8.3,30.16,West,270,12.9,12.9,66,0.00,,,0.00,VWS V14.01,2013-01-13 16:11:00,
2013-01-13 10:12:00,17.7,8.3,30.15,WNW,292,7.8,7.8,66,0.00,,,0.00,VWS V14.01,2013-01-13 16:12:00,
2013-01-13 10:13:00,17.7,8.3,30.15,WNW,292,7.8,7.8,66,0.00,,,0.00,VWS V14.01,2013-01-13 16:13:00,
2013-01-13 10:14:00,17.9,8.1,30.15,NW,315,2.9,7.8,65,0.00,,,0.00,VWS V14.01,2013-01-13 16:14:00,
2013-01-13 10:15:00,17.9,8.1,30.15,NW,315,2.9,2.9,65,0.00,,,0.00,VWS V14.01,2013-01-13 16:15:00,
2013-01-13 10:16:00,17.4,7.3,30.15,NW,315,4.2,4.2,64,0.00,,,0.00,VWS V14.01,2013-01-13 16:16:00,
2013-01-13 10:17:00,17.4,7.3,30.15,NW,315,4.2,4.2,64,0.00,,,0.00,VWS V14.01,2013-01-13 16:17:00,
2013-01-13 10:18:00,17.4,7.7,30.15,NW,315,7.6,7.6,65,0.00,,,0.00,VWS V14.01,2013-01-13 16:18:00,
2013-01-13 10:19:00,17.4,7.7,30.15,NW,315,7.6,7.6,65,0.00,,,0.00,VWS V14.01,2013-01-13 16:19:00,
2013-01-13 10:20:00,17.9,7.8,30.15,WNW,292,7.8,7.8,64,0.00,,,0.00,VWS V14.01,2013-01-13 16:20:00,
2013-01-13 10:21:00,17.9,7.8,30.16,WNW,292,7.8,7.8,64,0.00,,,0.00,VWS V14.01,2013-01-13 16:21:00,
2013-01-13 10:22:00,18.6,8.5,30.16,WNW,292,5.8,5.8,64,0.00,,,0.00,VWS V14.01,2013-01-13 16:22:00,
2013-01-13 10:23:00,18.6,8.5,30.16,WNW,292,5.8,5.8,64,0.00,,,0.00,VWS V14.01,2013-01-13 16:23:00,
2013-01-13 10:24:00,19.0,8.8,30.16,WNW,292,4.6,5.8,64,0.00,,,0.00,VWS V14.01,2013-01-13 16:24:00,
2013-01-13 10:25:00,19.0,8.8,30.16,WNW,292,4.6,4.6,64,0.00,,,0.00,VWS V14.01,2013-01-13 16:25:00,
2013-01-13 10:26:00,19.0,8.8,30.16,WNW,292,8.9,8.9,64,0.00,,,0.00,VWS V14.01,2013-01-13 16:26:00,
2013-01-13 10:27:00,17.4,7.3,30.16,WNW,292,8.9,8.9,64,0.00,,,0.00,VWS V14.01,2013-01-13 16:27:00,
2013-01-13 10:28:00,17.4,7.3,30.16,WNW,292,8.9,8.9,64,0.00,,,0.00,VWS V14.01,2013-01-13 16:28:00,
2013-01-13 10:29:00,16.8,7.1,30.16,North,0,6.2,8.9,65,0.00,,,0.00,VWS V14.01,2013-01-13 16:29:00,
2013-01-13 10:30:00,16.8,7.1,30.16,North,0,6.2,6.2,65,0.00,,,0.00,VWS V14.01,2013-01-13 16:30:00,
2013-01-13 10:31:00,16.3,6.6,30.16,WNW,292,8.9,8.9,65,0.00,,,0.00,VWS V14.01,2013-01-13 16:31:00,
2013-01-13 10:32:00,16.3,6.6,30.16,WNW,292,8.9,8.9,65,0.00,,,0.00,VWS V14.01,2013-01-13 16:32:00,
2013-01-13 10:33:00,16.1,6.8,30.16,WNW,292,9.6,9.6,66,0.00,,,0.00,VWS V14.01,2013-01-13 16:33:00,
2013-01-13 10:34:00,16.1,6.8,30.16,WNW,292,9.6,9.6,66,0.00,,,0.00,VWS V14.01,2013-01-13 16:34:00,
2013-01-13 10:35:00,15.6,6.3,30.16,WNW,292,3.8,9.6,66,0.00,,,0.00,VWS V14.01,2013-01-13 16:35:00,
2013-01-13 10:36:00,15.6,6.3,30.16,WNW,292,3.8,3.8,66,0.00,,,0.00,VWS V14.01,2013-01-13 16:36:00,
2013-01-13 10:37:00,15.6,6.6,30.16,West,270,7.6,7.6,67,0.00,,,0.00,VWS V14.01,2013-01-13 16:37:00,
2013-01-13 10:38:00,15.6,6.6,30.17,West,270,7.6,7.6,67,0.00,,,0.00,VWS V14.01,2013-01-13 16:38:00,
2013-01-13 10:39:00,15.8,6.8,30.17,WNW,292,7.8,7.8,67,0.00,,,0.00,VWS V14.01,2013-01-13 16:39:00,
2013-01-13 10:40:00,15.8,6.8,30.17,WNW,292,7.8,7.8,67,0.00,,,0.00,VWS V14.01,2013-01-13 16:40:00,
2013-01-13 10:41:00,16.3,7.3,30.18,WNW,292,6.2,7.8,67,0.00,,,0.00,VWS V14.01,2013-01-13 16:41:00,
2013-01-13 10:42:00,16.3,7.3,30.17,WNW,292,6.2,6.2,67,0.00,,,0.00,VWS V14.01,2013-01-13 16:42:00,
2013-01-13 10:43:00,16.3,7.3,30.17,WNW,292,6.2,6.2,67,0.00,,,0.00,VWS V14.01,2013-01-13 16:43:00,
2013-01-13 10:44:00,17.2,8.1,30.17,WNW,292,5.5,6.2,67,0.00,,,0.00,VWS V14.01,2013-01-13 16:44:00,
2013-01-13 10:45:00,17.2,8.1,30.17,WNW,292,5.5,5.5,67,0.00,,,0.00,VWS V14.01,2013-01-13 16:45:00,
2013-01-13 10:46:00,17.7,8.6,30.17,WNW,292,2.6,5.5,67,0.00,,,0.00,VWS V14.01,2013-01-13 16:46:00,
2013-01-13 10:47:00,17.7,8.6,30.17,WNW,292,2.6,2.6,67,0.00,,,0.00,VWS V14.01,2013-01-13 16:47:00,
2013-01-13 10:48:00,17.7,8.3,30.17,WNW,292,4.6,4.6,66,0.00,,,0.00,VWS V14.01,2013-01-13 16:48:00,
2013-01-13 10:49:00,17.7,8.3,30.17,WNW,292,4.6,4.6,66,0.00,,,0.00,VWS V14.01,2013-01-13 16:49:00,
2013-01-13 10:50:00,18.3,8.9,30.17,SW,225,3.5,4.6,66,0.00,,,0.00,VWS V14.01,2013-01-13 16:50:00,
2013-01-13 10:51:00,18.3,8.9,30.17,SW,225,3.5,3.5,66,0.00,,,0.00,VWS V14.01,2013-01-13 16:51:00,
2013-01-13 10:52:00,18.6,8.8,30.16,West,270,4.6,4.6,65,0.00,,,0.00,VWS V14.01,2013-01-13 16:52:00,
2013-01-13 10:53:00,18.6,8.8,30.16,West,270,4.6,4.6,65,0.00,,,0.00,VWS V14.01,2013-01-13 16:53:00,
2013-01-13 10:54:00,18.1,8.3,30.16,South,180,4.6,4.6,65,0.00,,,0.00,VWS V14.01,2013-01-13 16:54:00,
2013-01-13 10:55:00,18.1,8.3,30.16,South,180,4.6,4.6,65,0.00,,,0.00,VWS V14.01,2013-01-13 16:55:00,
2013-01-13 10:56:00,18.1,8.3,30.16,South,180,4.6,4.6,65,0.00,,,0.00,VWS V14.01,2013-01-13 16:56:00,
2013-01-13 10:57:00,18.1,8.7,30.16,SSW,202,3.8,3.8,66,0.00,,,0.00,VWS V14.01,2013-01-13 16:57:00,
2013-01-13 10:58:00,18.1,8.7,30.16,SSW,202,3.8,3.8,66,0.00,,,0.00,VWS V14.01,2013-01-13 16:58:00,
2013-01-13 10:59:00,18.3,8.5,30.15,West,270,4.9,4.9,65,0.00,,,0.00,VWS V14.01,2013-01-13 16:59:00,
2013-01-13 11:00:00,18.3,8.5,30.15,West,270,4.9,4.9,65,0.00,,,0.00,VWS V14.01,2013-01-13 17:00:00,
2013-01-13 11:01:00,18.1,8.3,30.15,West,270,1.3,4.9,65,0.00,,,0.00,VWS V14.01,2013-01-13 17:01:00,
2013-01-13 11:02:00,18.1,8.3,30.15,West,270,1.3,1.3,65,0.00,,,0.00,VWS V14.01,2013-01-13 17:02:00,
2013-01-13 11:03:00,18.5,8.4,30.15,WSW,248,4.2,4.2,64,0.00,,,0.00,VWS V14.01,2013-01-13 17:03:00,
2013-01-13 11:04:00,18.5,8.4,30.15,WSW,248,4.2,4.2,64,0.00,,,0.00,VWS V14.01,2013-01-13 17:04:00,
2013-01-13 11:05:00,18.5,8.7,30.15,West,270,6.7,6.7,65,0.00,,,0.00,VWS V14.01,2013-01-13 17:05:00,
2013-01-13 11:06:00,18.5,8.7,30.15,West,270,6.7,6.7,65,0.00,,,0.00,VWS V14.01,2013-01-13 17:06:00,
2013-01-13 11:07:00,17.7,7.6,30.15,WNW,292,6.0,6.0,64,0.00,,,0.00,VWS V14.01,2013-01-13 17:07:00,
2013-01-13 11:08:00,17.7,7.6,30.15,WNW,292,6.0,6.0,64,0.00,,,0.00,VWS V14.01,2013-01-13 17:08:00,
2013-01-13 11:09:00,17.7,7.6,30.15,West,270,10.5,10.5,64,0.00,,,0.00,VWS V14.01,2013-01-13 17:09:00,
2013-01-13 11:10:00,17.7,8.3,30.14,West,270,10.5,10.5,66,0.00,,,0.00,VWS V14.01,2013-01-13 17:10:00,
2013-01-13 11:11:00,17.7,8.3,30.14,SSW,202,4.2,10.5,66,0.00,,,0.00,VWS V14.01,2013-01-13 17:11:00,
2013-01-13 11:12:00,17.7,8.3,30.14,SSW,202,4.2,4.2,66,0.00,,,0.00,VWS V14.01,2013-01-13 17:12:00,
2013-01-13 11:13:00,17.7,8.3,30.15,SSW,202,4.2,4.2,66,0.00,,,0.00,VWS V14.01,2013-01-13 17:13:00,
2013-01-13 11:14:00,18.1,8.7,30.15,WNW,292,11.1,11.1,66,0.00,,,0.00,VWS V14.01,2013-01-13 17:14:00,
2013-01-13 11:15:00,18.1,8.7,30.15,WNW,292,11.1,11.1,66,0.00,,,0.00,VWS V14.01,2013-01-13 17:15:00,
2013-01-13 11:16:00,17.7,7.6,30.15,WNW,292,6.0,11.1,64,0.00,,,0.00,VWS V14.01,2013-01-13 17:16:00,
2013-01-13 11:17:00,17.7,7.6,30.15,WNW,292,6.0,6.0,64,0.00,,,0.00,VWS V14.01,2013-01-13 17:17:00,
2013-01-13 11:18:00,17.7,7.9,30.15,WNW,292,6.9,6.9,65,0.00,,,0.00,VWS V14.01,2013-01-13 17:18:00,
2013-01-13 11:19:00,17.7,7.9,30.15,WNW,292,6.9,6.9,65,0.00,,,0.00,VWS V14.01,2013-01-13 17:19:00,
2013-01-13 11:20:00,17.4,7.0,30.15,WNW,292,6.9,6.9,63,0.00,,,0.00,VWS V14.01,2013-01-13 17:20:00,
2013-01-13 11:21:00,17.4,7.0,30.15,WNW,292,6.9,6.9,63,0.00,,,0.00,VWS V14.01,2013-01-13 17:21:00,
2013-01-13 11:22:00,17.2,7.5,30.15,West,270,2.6,2.6,65,0.00,,,0.00,VWS V14.01,2013-01-13 17:22:00,
2013-01-13 11:23:00,17.2,7.5,30.15,West,270,2.6,2.6,65,0.00,,,0.00,VWS V14.01,2013-01-13 17:23:00,
2013-01-13 11:24:00,16.1,6.4,30.15,WNW,292,11.1,11.1,65,0.00,,,0.00,VWS V14.01,2013-01-13 17:24:00,
2013-01-13 11:25:00,16.1,6.4,30.15,WNW,292,11.1,11.1,65,0.00,,,0.00,VWS V14.01,2013-01-13 17:25:00,
2013-01-13 11:26:00,15.9,6.6,30.15,West,270,4.4,11.1,66,0.00,,,0.00,VWS V14.01,2013-01-13 17:26:00,
2013-01-13 11:27:00,15.9,6.6,30.15,West,270,4.4,4.4,66,0.00,,,0.00,VWS V14.01,2013-01-13 17:27:00,
2013-01-13 11:28:00,15.9,6.6,30.15,West,270,4.4,4.4,66,0.00,,,0.00,VWS V14.01,2013-01-13 17:28:00,
2013-01-13 11:29:00,15.9,6.6,30.15,West,270,3.5,4.4,66,0.00,,,0.00,VWS V14.01,2013-01-13 17:29:00,
2013-01-13 11:30:00,15.9,6.6,30.15,West,270,3.5,3.5,66,0.00,,,0.00,VWS V14.01,2013-01-13 17:30:00,
2013-01-13 11:31:00,16.5,6.8,30.15,West,270,2.4,3.5,65,0.00,,,0.00,VWS V14.01,2013-01-13 17:31:00,
2013-01-13 11:32:00,16.5,6.8,30.15,West,270,2.4,2.4,65,0.00,,,0.00,VWS V14.01,2013-01-13 17:32:00,
2013-01-13 11:33:00,16.7,6.3,30.15,WNW,292,11.6,11.6,63,0.00,,,0.00,VWS V14.01,2013-01-13 17:33:00,
2013-01-13 11:34:00,16.7,6.3,30.15,WNW,292,11.6,11.6,63,0.00,,,0.00,VWS V14.01,2013-01-13 17:34:00,
2013-01-13 11:35:00,17.2,7.1,30.15,WNW,292,7.1,11.6,64,0.00,,,0.00,VWS V14.01,2013-01-13 17:35:00,
2013-01-13 11:36:00,17.2,7.1,30.15,WNW,292,7.1,7.1,64,0.00,,,0.00,VWS V14.01,2013-01-13 17:36:00,
2013-01-13 11:37:00,17.2,6.8,30.15,SW,225,5.5,5.5,63,0.00,,,0.00,VWS V14.01,2013-01-13 17:37:00,
2013-01-13 11:38:00,17.2,6.8,30.15,SW,225,5.5,5.5,63,0.00,,,0.00,VWS V14.01,2013-01-13 17:38:00,
2013-01-13 11:39:00,16.8,6.1,30.15,West,270,2.2,5.5,62,0.00,,,0.00,VWS V14.01,2013-01-13 17:39:00,
2013-01-13 11:40:00,16.8,6.1,30.15,West,270,2.2,2.2,62,0.00,,,0.00,VWS V14.01,2013-01-13 17:40:00,
2013-01-13 11:41:00,16.8,6.4,30.15,WSW,248,5.3,5.3,63,0.00,,,0.00,VWS V14.01,2013-01-13 17:41:00,
2013-01-13 11:42:00,16.8,6.4,30.15,WSW,248,5.3,5.3,63,0.00,,,0.00,VWS V14.01,2013-01-13 17:42:00,
2013-01-13 11:43:00,16.8,6.4,30.16,West,270,6.4,6.4,63,0.00,,,0.00,VWS V14.01,2013-01-13 17:43:00,
2013-01-13 11:44:00,17.0,6.6,30.16,West,270,6.4,6.4,63,0.00,,,0.00,VWS V14.01,2013-01-13 17:44:00,
2013-01-13 11:45:00,17.0,6.6,30.15,West,270,6.4,6.4,63,0.00,,,0.00,VWS V14.01,2013-01-13 17:45:00,
2013-01-13 11:46:00,17.4,7.0,30.16,WNW,292,6.7,6.7,63,0.00,,,0.00,VWS V14.01,2013-01-13 17:46:00,
2013-01-13 11:47:00,17.4,7.0,30.16,WNW,292,6.7,6.7,63,0.00,,,0.00,VWS V14.01,2013-01-13 17:47:00,
2013-01-13 11:48:00,17.7,7.3,30.16,WNW,292,10.7,10.7,63,0.00,,,0.00,VWS V14.01,2013-01-13 17:48:00,
2013-01-13 11:49:00,17.7,7.3,30.17,WNW,292,10.7,10.7,63,0.00,,,0.00,VWS V14.01,2013-01-13 17:49:00,
2013-01-13 11:50:00,17.7,6.9,30.17,WNW,292,5.3,10.7,62,0.00,,,0.00,VWS V14.01,2013-01-13 17:50:00,
2013-01-13 11:51:00,17.7,6.9,30.16,WNW,292,5.3,5.3,62,0.00,,,0.00,VWS V14.01,2013-01-13 17:51:00,
2013-01-13 11:52:00,17.4,6.3,30.16,West,270,6.0,6.0,61,0.00,,,0.00,VWS V14.01,2013-01-13 17:52:00,
2013-01-13 11:53:00,17.4,6.3,30.17,West,270,6.0,6.0,61,0.00,,,0.00,VWS V14.01,2013-01-13 17:53:00,
2013-01-13 11:54:00,17.2,6.1,30.16,WNW,292,7.1,7.1,61,0.00,,,0.00,VWS V14.01,2013-01-13 17:54:00,
2013-01-13 11:55:00,17.2,6.1,30.16,WNW,292,7.1,7.1,61,0.00,,,0.00,VWS V14.01,2013-01-13 17:55:00,
2013-01-13 11:56:00,17.2,6.8,30.16,West,270,6.0,7.1,63,0.00,,,0.00,VWS V14.01,2013-01-13 17:56:00,
2013-01-13 11:57:00,17.2,6.8,30.17,West,270,6.0,6.0,63,0.00,,,0.00,VWS V14.01,2013-01-13 17:57:00,
2013-01-13 11:58:00,17.2,6.8,30.16,West,270,2.4,6.0,63,0.00,,,0.00,VWS V14.01,2013-01-13 17:58:00,
2013-01-13 11:59:00,17.4,7.0,30.16,West,270,2.4,2.4,63,0.00,,,0.00,VWS V14.01,2013-01-13 17:59:00,
2013-01-13 12:00:00,17.4,7.0,30.16,West,270,2.4,2.4,63,0.00,,,0.00,VWS V14.01,2013-01-13 18:00:00,
2013-01-13 12:01:00,17.4,6.6,30.16,WNW,292,5.8,5.8,62,0.00,,,0.00,VWS V14.01,2013-01-13 18:01:00,
2013-01-13 12:02:00,17.4,6.6,30.16,WNW,292,5.8,5.8,62,0.00,,,0.00,VWS V14.01,2013-01-13 18:02:00,
2013-01-13 12:03:00,17.2,6.1,30.16,WNW,292,6.7,6.7,61,0.00,,,0.00,VWS V14.01,2013-01-13 18:03:00,
2013-01-13 12:04:00,17.2,6.1,30.16,WNW,292,6.7,6.7,61,0.00,,,0.00,VWS V14.01,2013-01-13 18:04:00,
2013-01-13 12:05:00,17.2,6.8,30.16,WNW,292,5.8,6.7,63,0.00,,,0.00,VWS V14.01,2013-01-13 18:05:00,
2013-01-13 12:06:00,17.2,6.8,30.16,WNW,292,5.8,5.8,63,0.00,,,0.00,VWS V14.01,2013-01-13 18:06:00,
2013-01-13 12:07:00,17.2,6.8,30.16,WNW,292,5.8,5.8,63,0.00,,,0.00,VWS V14.01,2013-01-13 18:07:00,
2013-01-13 12:08:00,17.2,6.8,30.16,West,270,7.3,7.3,63,0.00,,,0.00,VWS V14.01,2013-01-13 18:08:00,
2013-01-13 12:09:00,17.2,6.8,30.16,West,270,3.8,7.3,63,0.00,,,0.00,VWS V14.01,2013-01-13 18:09:00,
2013-01-13 12:10:00,17.2,6.8,30.16,West,270,3.8,3.8,63,0.00,,,0.00,VWS V14.01,2013-01-13 18:10:00,
2013-01-13 12:11:00,17.2,7.1,30.16,West,270,14.3,14.3,64,0.00,,,0.00,VWS V14.01,2013-01-13 18:11:00,
2013-01-13 12:12:00,17.2,7.1,30.15,West,270,14.3,14.3,64,0.00,,,0.00,VWS V14.01,2013-01-13 18:12:00,
2013-01-13 12:13:00,17.4,7.3,30.15,NW,315,6.9,14.3,64,0.00,,,0.00,VWS V14.01,2013-01-13 18:13:00,
2013-01-13 12:14:00,17.4,7.0,30.15,NW,315,6.9,6.9,63,0.00,,,0.00,VWS V14.01,2013-01-13 18:14:00,
2013-01-13 12:15:00,17.4,7.0,30.15,NW,315,6.9,6.9,63,0.00,,,0.00,VWS V14.01,2013-01-13 18:15:00,
2013-01-13 12:16:00,17.7,7.3,30.15,WNW,292,16.7,16.7,63,0.00,,,0.00,VWS V14.01,2013-01-13 18:16:00,
2013-01-13 12:17:00,17.7,7.3,30.15,WNW,292,16.7,16.7,63,0.00,,,0.00,VWS V14.01,2013-01-13 18:17:00,
2013-01-13 12:18:00,17.4,7.0,30.15,West,270,6.0,16.7,63,0.00,,,0.00,VWS V14.01,2013-01-13 18:18:00,
2013-01-13 12:19:00,17.4,7.0,30.15,West,270,6.0,6.0,63,0.00,,,0.00,VWS V14.01,2013-01-13 18:19:00,
2013-01-13 12:20:00,17.4,7.0,30.15,WNW,292,4.2,6.0,63,0.00,,,0.00,VWS V14.01,2013-01-13 18:20:00,
2013-01-13 12:21:00,17.4,7.0,30.15,WNW,292,4.2,4.2,63,0.00,,,0.00,VWS V14.01,2013-01-13 18:21:00,
2013-01-13 12:22:00,17.4,7.0,30.15,WNW,292,4.2,4.2,63,0.00,,,0.00,VWS V14.01,2013-01-13 18:22:00,
2013-01-13 12:23:00,17.4,7.0,30.16,WNW,292,4.2,4.2,63,0.00,,,0.00,VWS V14.01,2013-01-13 18:23:00,
2013-01-13 12:24:00,17.2,6.4,30.16,WSW,248,2.6,4.2,62,0.00,,,0.00,VWS V14.01,2013-01-13 18:24:00,
2013-01-13 12:25:00,17.2,6.4,30.16,WSW,248,2.6,2.6,62,0.00,,,0.00,VWS V14.01,2013-01-13 18:25:00,
2013-01-13 12:26:00,17.2,6.8,30.16,WNW,292,6.2,6.2,63,0.00,,,0.00,VWS V14.01,2013-01-13 18:26:00,
2013-01-13 12:27:00,17.2,6.8,30.16,WNW,292,6.2,6.2,63,0.00,,,0.00,VWS V14.01,2013-01-13 18:27:00,
2013-01-13 12:28:00,17.2,6.8,30.16,WNW,292,6.2,6.2,63,0.00,,,0.00,VWS V14.01,2013-01-13 18:28:00,
2013-01-13 12:29:00,17.4,7.0,30.16,WNW,292,6.2,6.2,63,0.00,,,0.00,VWS V14.01,2013-01-13 18:29:00,
2013-01-13 12:30:00,17.4,7.0,30.16,WNW,292,9.3,9.3,63,0.00,,,0.00,VWS V14.01,2013-01-13 18:30:00,
2013-01-13 12:31:00,17.4,7.0,30.16,WNW,292,9.3,9.3,63,0.00,,,0.00,VWS V14.01,2013-01-13 18:31:00,
2013-01-13 12:32:00,17.4,7.0,30.16,WNW,292,9.3,9.3,63,0.00,,,0.00,VWS V14.01,2013-01-13 18:32:00,
2013-01-13 12:33:00,17.4,6.6,30.16,WNW,292,12.7,12.7,62,0.00,,,0.00,VWS V14.01,2013-01-13 18:33:00,
2013-01-13 12:34:00,17.4,6.6,30.15,WNW,292,12.7,12.7,62,0.00,,,0.00,VWS V14.01,2013-01-13 18:34:00,
2013-01-13 12:35:00,17.4,6.6,30.16,WNW,292,9.6,12.7,62,0.00,,,0.00,VWS V14.01,2013-01-13 18:35:00,
2013-01-13 12:36:00,17.4,6.6,30.16,WNW,292,9.6,9.6,62,0.00,,,0.00,VWS V14.01,2013-01-13 18:36:00,
2013-01-13 12:37:00,17.4,6.6,30.16,West,270,20.1,20.1,62,0.00,,,0.00,VWS V14.01,2013-01-13 18:37:00,
2013-01-13 12:38:00,17.4,7.3,30.15,West,270,20.1,20.1,64,0.00,,,0.00,VWS V14.01,2013-01-13 18:38:00,
2013-01-13 12:39:00,17.4,7.0,30.15,West,270,12.0,20.1,63,0.00,,,0.00,VWS V14.01,2013-01-13 18:39:00,
2013-01-13 12:40:00,17.4,7.0,30.15,West,270,12.0,12.0,63,0.00,,,0.00,VWS V14.01,2013-01-13 18:40:00,
2013-01-13 12:41:00,17.2,6.8,30.15,West,270,9.1,12.0,63,0.00,,,0.00,VWS V14.01,2013-01-13 18:41:00,
2013-01-13 12:42:00,17.2,6.8,30.15,West,270,9.1,9.1,63,0.00,,,0.00,VWS V14.01,2013-01-13 18:42:00,
2013-01-13 12:43:00,17.2,6.8,30.15,WNW,292,7.1,9.1,63,0.00,,,0.00,VWS V14.01,2013-01-13 18:43:00,
2013-01-13 12:44:00,17.2,6.8,30.15,WNW,292,7.1,7.1,63,0.00,,,0.00,VWS V14.01,2013-01-13 18:44:00,
2013-01-13 12:45:00,17.2,6.8,30.15,WNW,292,8.5,8.5,63,0.00,,,0.00,VWS V14.01,2013-01-13 18:45:00,
2013-01-13 12:46:00,17.7,7.6,30.15,WNW,292,8.5,8.5,64,0.00,,,0.00,VWS V14.01,2013-01-13 18:46:00,
2013-01-13 12:47:00,17.7,7.6,30.15,WNW,292,8.5,8.5,64,0.00,,,0.00,VWS V14.01,2013-01-13 18:47:00,
2013-01-13 12:48:00,17.9,7.4,30.15,WNW,292,12.3,12.3,63,0.00,,,0.00,VWS V14.01,2013-01-13 18:48:00,
2013-01-13 12:49:00,17.9,7.4,30.15,WNW,292,12.3,12.3,63,0.00,,,0.00,VWS V14.01,2013-01-13 18:49:00,
2013-01-13 12:50:00,17.7,6.9,30.14,West,270,8.2,12.3,62,0.00,,,0.00,VWS V14.01,2013-01-13 18:50:00,
2013-01-13 12:51:00,17.7,6.9,30.14,West,270,8.2,8.2,62,0.00,,,0.00,VWS V14.01,2013-01-13 18:51:00,
2013-01-13 12:52:00,17.4,7.3,30.14,WNW,292,9.8,9.8,64,0.00,,,0.00,VWS V14.01,2013-01-13 18:52:00,
2013-01-13 12:53:00,17.4,7.3,30.14,WNW,292,9.8,9.8,64,0.00,,,0.00,VWS V14.01,2013-01-13 18:53:00,
2013-01-13 12:54:00,17.4,7.3,30.14,West,270,3.8,9.8,64,0.00,,,0.00,VWS V14.01,2013-01-13 18:54:00,
2013-01-13 12:55:00,17.4,7.3,30.14,West,270,3.8,3.8,64,0.00,,,0.00,VWS V14.01,2013-01-13 18:55:00,
2013-01-13 12:56:00,17.4,7.0,30.14,WNW,292,2.4,3.8,63,0.00,,,0.00,VWS V14.01,2013-01-13 18:56:00,
2013-01-13 12:57:00,17.4,7.0,30.14,WNW,292,2.4,2.4,63,0.00,,,0.00,VWS V14.01,2013-01-13 18:57:00,
2013-01-13 12:58:00,17.2,7.1,30.14,West,270,7.3,7.3,64,0.00,,,0.00,VWS V14.01,2013-01-13 18:58:00,
2013-01-13 12:59:00,17.2,7.1,30.14,West,270,7.3,7.3,64,0.00,,,0.00,VWS V14.01,2013-01-13 18:59:00,
2013-01-13 13:00:00,17.2,7.5,30.14,WNW,292,10.9,10.9,65,0.00,,,0.00,VWS V14.01,2013-01-13 19:00:00,
2013-01-13 13:01:00,17.2,7.5,30.15,WNW,292,10.9,10.9,65,0.00,,,0.00,VWS V14.01,2013-01-13 19:01:00,
2013-01-13 13:02:00,17.2,7.5,30.14,WNW,292,10.9,10.9,65,0.00,,,0.00,VWS V14.01,2013-01-13 19:02:00,
2013-01-13 13:03:00,17.2,7.5,30.15,WNW,292,15.8,15.8,65,0.00,,,0.00,VWS V14.01,2013-01-13 19:03:00,
2013-01-13 13:04:00,17.2,7.5,30.14,WNW,292,15.8,15.8,65,0.00,,,0.00,VWS V14.01,2013-01-13 19:04:00,
2013-01-13 13:05:00,17.2,7.1,30.15,West,270,14.5,15.8,64,0.00,,,0.00,VWS V14.01,2013-01-13 19:05:00,
2013-01-13 13:06:00,17.2,7.1,30.14,West,270,14.5,14.5,64,0.00,,,0.00,VWS V14.01,2013-01-13 19:06:00,
2013-01-13 13:07:00,17.4,7.3,30.14,West,270,4.9,4.9,64,0.00,,,0.00,VWS V14.01,2013-01-13 19:07:00,
2013-01-13 13:08:00,17.4,7.3,30.13,West,270,4.9,4.9,64,0.00,,,0.00,VWS V14.01,2013-01-13 19:08:00,
2013-01-13 13:09:00,17.2,7.1,30.14,WNW,292,7.8,7.8,64,0.00,,,0.00,VWS V14.01,2013-01-13 19:09:00,
2013-01-13 13:10:00,17.2,7.1,30.14,WNW,292,7.8,7.8,64,0.00,,,0.00,VWS V14.01,2013-01-13 19:10:00,
2013-01-13 13:11:00,17.0,7.3,30.14,WNW,292,8.7,8.7,65,0.00,,,0.00,VWS V14.01,2013-01-13 19:11:00,
2013-01-13 13:12:00,17.0,7.3,30.14,WNW,292,8.7,8.7,65,0.00,,,0.00,VWS V14.01,2013-01-13 19:12:00,
2013-01-13 13:13:00,17.0,6.9,30.13,WNW,292,12.0,12.0,64,0.00,,,0.00,VWS V14.01,2013-01-13 19:13:00,
2013-01-13 13:14:00,17.0,6.9,30.13,WNW,292,12.0,12.0,64,0.00,,,0.00,VWS V14.01,2013-01-13 19:14:00,
2013-01-13 13:15:00,17.2,7.5,30.13,WNW,292,13.4,13.4,65,0.00,,,0.00,VWS V14.01,2013-01-13 19:15:00,
2013-01-13 13:16:00,17.2,7.5,30.12,WNW,292,13.4,13.4,65,0.00,,,0.00,VWS V14.01,2013-01-13 19:16:00,
2013-01-13 13:17:00,17.2,7.5,30.12,WNW,292,13.4,13.4,65,0.00,,,0.00,VWS V14.01,2013-01-13 19:17:00,
2013-01-13 13:18:00,17.2,7.8,30.12,WNW,292,6.9,13.4,66,0.00,,,0.00,VWS V14.01,2013-01-13 19:18:00,
2013-01-13 13:19:00,17.2,7.8,30.13,WNW,292,6.9,6.9,66,0.00,,,0.00,VWS V14.01,2013-01-13 19:19:00,
2013-01-13 13:20:00,17.6,8.2,30.13,NW,315,6.2,6.9,66,0.00,,,0.00,VWS V14.01,2013-01-13 19:20:00,
2013-01-13 13:21:00,17.6,8.2,30.13,NW,315,6.2,6.2,66,0.00,,,0.00,VWS V14.01,2013-01-13 19:21:00,
2013-01-13 13:22:00,17.9,8.1,30.13,WNW,292,10.5,10.5,65,0.00,,,0.00,VWS V14.01,2013-01-13 19:22:00,
2013-01-13 13:23:00,17.9,8.1,30.13,WNW,292,10.5,10.5,65,0.00,,,0.00,VWS V14.01,2013-01-13 19:23:00,
2013-01-13 13:24:00,18.1,8.0,30.13,WNW,292,17.0,17.0,64,0.00,,,0.00,VWS V14.01,2013-01-13 19:24:00,
2013-01-13 13:25:00,18.1,8.0,30.13,WNW,292,17.0,17.0,64,0.00,,,0.00,VWS V14.01,2013-01-13 19:25:00,
2013-01-13 13:26:00,18.1,8.3,30.13,West,270,8.2,17.0,65,0.00,,,0.00,VWS V14.01,2013-01-13 19:26:00,
2013-01-13 13:27:00,18.1,8.3,30.13,West,270,8.2,8.2,65,0.00,,,0.00,VWS V14.01,2013-01-13 19:27:00,
2013-01-13 13:28:00,18.3,8.5,30.13,WNW,292,12.3,12.3,65,0.00,,,0.00,VWS V14.01,2013-01-13 19:28:00,
2013-01-13 13:29:00,18.3,8.5,30.13,WNW,292,12.3,12.3,65,0.00,,,0.00,VWS V14.01,2013-01-13 19:29:00,
2013-01-13 13:30:00,18.3,8.2,30.13,West,270,10.5,12.3,64,0.00,,,0.00,VWS V14.01,2013-01-13 19:30:00,
2013-01-13 13:31:00,18.3,8.2,30.13,West,270,10.5,10.5,64,0.00,,,0.00,VWS V14.01,2013-01-13 19:31:00,
2013-01-13 13:32:00,18.3,8.2,30.13,West,270,10.5,10.5,64,0.00,,,0.00,VWS V14.01,2013-01-13 19:32:00,
2013-01-13 13:33:00,18.3,8.2,30.13,NW,315,8.0,10.5,64,0.00,,,0.00,VWS V14.01,2013-01-13 19:33:00,
2013-01-13 13:34:00,18.3,8.2,30.13,NW,315,8.0,8.0,64,0.00,,,0.00,VWS V14.01,2013-01-13 19:34:00,
2013-01-13 13:35:00,18.3,7.8,30.13,WNW,292,6.4,8.0,63,0.00,,,0.00,VWS V14.01,2013-01-13 19:35:00,
2013-01-13 13:36:00,18.3,7.8,30.13,WNW,292,6.4,6.4,63,0.00,,,0.00,VWS V14.01,2013-01-13 19:36:00,
2013-01-13 13:37:00,18.3,7.8,30.14,West,270,10.9,10.9,63,0.00,,,0.00,VWS V14.01,2013-01-13 19:37:00,
2013-01-13 13:38:00,18.3,7.8,30.14,West,270,10.9,10.9,63,0.00,,,0.00,VWS V14.01,2013-01-13 19:38:00,
2013-01-13 13:39:00,18.1,8.0,30.13,WNW,292,6.4,10.9,64,0.00,,,0.00,VWS V14.01,2013-01-13 19:39:00,
2013-01-13 13:40:00,18.1,8.0,30.13,WNW,292,6.4,6.4,64,0.00,,,0.00,VWS V14.01,2013-01-13 19:40:00,
2013-01-13 13:41:00,18.8,8.6,30.14,WNW,292,9.1,9.1,64,0.00,,,0.00,VWS V14.01,2013-01-13 19:41:00,
2013-01-13 13:42:00,18.8,8.6,30.14,WNW,292,9.1,9.1,64,0.00,,,0.00,VWS V14.01,2013-01-13 19:42:00,
2013-01-13 13:43:00,19.4,9.6,30.14,West,270,7.1,9.1,65,0.00,,,0.00,VWS V14.01,2013-01-13 19:43:00,
2013-01-13 13:44:00,19.4,9.6,30.14,West,270,7.1,7.1,65,0.00,,,0.00,VWS V14.01,2013-01-13 19:44:00,
2013-01-13 13:45:00,18.3,7.8,30.14,WNW,292,5.1,7.1,63,0.00,,,0.00,VWS V14.01,2013-01-13 19:45:00,
2013-01-13 13:46:00,18.3,7.8,30.14,WNW,292,5.1,5.1,63,0.00,,,0.00,VWS V14.01,2013-01-13 19:46:00,
2013-01-13 13:47:00,18.3,7.8,30.14,WNW,292,6.7,6.7,63,0.00,,,0.00,VWS V14.01,2013-01-13 19:47:00,
2013-01-13 13:48:00,17.7,7.9,30.14,WNW,292,6.7,6.7,65,0.00,,,0.00,VWS V14.01,2013-01-13 19:48:00,
2013-01-13 13:49:00,17.7,7.9,30.14,WNW,292,6.7,6.7,65,0.00,,,0.00,VWS V14.01,2013-01-13 19:49:00,
2013-01-13 13:50:00,18.1,8.0,30.14,NW,315,8.2,8.2,64,0.00,,,0.00,VWS V14.01,2013-01-13 19:50:00,
2013-01-13 13:51:00,18.1,8.0,30.14,NW,315,8.2,8.2,64,0.00,,,0.00,VWS V14.01,2013-01-13 19:51:00,
2013-01-13 13:52:00,18.3,8.2,30.14,NW,315,11.1,11.1,64,0.00,,,0.00,VWS V14.01,2013-01-13 19:52:00,
2013-01-13 13:53:00,18.3,8.2,30.14,NW,315,11.1,11.1,64,0.00,,,0.00,VWS V14.01,2013-01-13 19:53:00,
2013-01-13 13:54:00,18.6,8.1,30.14,West,270,6.0,11.1,63,0.00,,,0.00,VWS V14.01,2013-01-13 19:54:00,
2013-01-13 13:55:00,18.6,8.1,30.13,West,270,6.0,6.0,63,0.00,,,0.00,VWS V14.01,2013-01-13 19:55:00,
2013-01-13 13:56:00,18.8,8.3,30.13,WNW,292,20.3,20.3,63,0.00,,,0.00,VWS V14.01,2013-01-13 19:56:00,
2013-01-13 13:57:00,18.8,8.3,30.13,WNW,292,20.3,20.3,63,0.00,,,0.00,VWS V14.01,2013-01-13 19:57:00,
2013-01-13 13:58:00,18.6,8.1,30.13,WNW,292,9.8,20.3,63,0.00,,,0.00,VWS V14.01,2013-01-13 19:58:00,
2013-01-13 13:59:00,18.6,8.1,30.13,WNW,292,9.8,9.8,63,0.00,,,0.00,VWS V14.01,2013-01-13 19:59:00,
2013-01-13 14:00:00,18.3,7.8,30.14,WSW,248,6.7,9.8,63,0.00,,,0.00,VWS V14.01,2013-01-13 20:00:00,
2013-01-13 14:01:00,18.3,7.8,30.14,WSW,248,6.7,6.7,63,0.00,,,0.00,VWS V14.01,2013-01-13 20:01:00,
2013-01-13 14:02:00,18.3,7.8,30.14,West,270,6.2,6.2,63,0.00,,,0.00,VWS V14.01,2013-01-13 20:02:00,
2013-01-13 14:03:00,17.9,7.4,30.14,West,270,6.2,6.2,63,0.00,,,0.00,VWS V14.01,2013-01-13 20:03:00,
2013-01-13 14:04:00,17.9,7.4,30.14,West,270,6.2,6.2,63,0.00,,,0.00,VWS V14.01,2013-01-13 20:04:00,
2013-01-13 14:05:00,17.7,7.6,30.14,West,270,15.8,15.8,64,0.00,,,0.00,VWS V14.01,2013-01-13 20:05:00,
2013-01-13 14:06:00,17.7,7.6,30.14,West,270,15.8,15.8,64,0.00,,,0.00,VWS V14.01,2013-01-13 20:06:00,
2013-01-13 14:07:00,17.7,7.6,30.14,WNW,292,9.6,9.6,64,0.00,,,0.00,VWS V14.01,2013-01-13 20:07:00,
2013-01-13 14:08:00,17.7,7.6,30.14,WNW,292,9.6,9.6,64,0.00,,,0.00,VWS V14.01,2013-01-13 20:08:00,
2013-01-13 14:09:00,17.9,7.8,30.14,WNW,292,10.7,10.7,64,0.00,,,0.00,VWS V14.01,2013-01-13 20:09:00,
2013-01-13 14:10:00,17.9,7.8,30.14,WNW,292,10.7,10.7,64,0.00,,,0.00,VWS V14.01,2013-01-13 20:10:00,
2013-01-13 14:11:00,17.9,7.8,30.14,West,270,6.4,10.7,64,0.00,,,0.00,VWS V14.01,2013-01-13 20:11:00,
2013-01-13 14:12:00,17.9,7.8,30.14,West,270,6.4,6.4,64,0.00,,,0.00,VWS V14.01,2013-01-13 20:12:00,
2013-01-13 14:13:00,18.5,8.7,30.14,West,270,9.1,9.1,65,0.00,,,0.00,VWS V14.01,2013-01-13 20:13:00,
2013-01-13 14:14:00,18.5,8.7,30.14,West,270,9.1,9.1,65,0.00,,,0.00,VWS V14.01,2013-01-13 20:14:00,
2013-01-13 14:15:00,18.6,8.5,30.14,NNW,338,8.5,9.1,64,0.00,,,0.00,VWS V14.01,2013-01-13 20:15:00,
2013-01-13 14:16:00,18.6,8.5,30.14,NNW,338,8.5,8.5,64,0.00,,,0.00,VWS V14.01,2013-01-13 20:16:00,
2013-01-13 14:17:00,18.8,8.6,30.13,NW,315,9.1,9.1,64,0.00,,,0.00,VWS V14.01,2013-01-13 20:17:00,
2013-01-13 14:18:00,18.8,8.6,30.14,NW,315,9.1,9.1,64,0.00,,,0.00,VWS V14.01,2013-01-13 20:18:00,
2013-01-13 14:19:00,18.8,8.6,30.14,NW,315,9.1,9.1,64,0.00,,,0.00,VWS V14.01,2013-01-13 20:19:00,
2013-01-13 14:20:00,18.5,8.0,30.14,WNW,292,15.4,15.4,63,0.00,,,0.00,VWS V14.01,2013-01-13 20:20:00,
2013-01-13 14:21:00,18.5,8.0,30.14,WNW,292,15.4,15.4,63,0.00,,,0.00,VWS V14.01,2013-01-13 20:21:00,
2013-01-13 14:22:00,18.1,8.0,30.14,WNW,292,6.0,15.4,64,0.00,,,0.00,VWS V14.01,2013-01-13 20:22:00,
2013-01-13 14:23:00,18.1,8.0,30.14,WNW,292,6.0,6.0,64,0.00,,,0.00,VWS V14.01,2013-01-13 20:23:00,
2013-01-13 14:24:00,18.1,8.0,30.14,WNW,292,7.1,7.1,64,0.00,,,0.00,VWS V14.01,2013-01-13 20:24:00,
2013-01-13 14:25:00,18.1,8.0,30.15,WNW,292,7.1,7.1,64,0.00,,,0.00,VWS V14.01,2013-01-13 20:25:00,
2013-01-13 14:26:00,18.1,8.0,30.15,WNW,292,16.3,16.3,64,0.00,,,0.00,VWS V14.01,2013-01-13 20:26:00,
2013-01-13 14:27:00,18.1,8.0,30.15,WNW,292,16.3,16.3,64,0.00,,,0.00,VWS V14.01,2013-01-13 20:27:00,
2013-01-13 14:28:00,17.4,7.3,30.15,WNW,292,10.5,16.3,64,0.00,,,0.00,VWS V14.01,2013-01-13 20:28:00,
2013-01-13 14:29:00,17.4,7.3,30.15,WNW,292,10.5,10.5,64,0.00,,,0.00,VWS V14.01,2013-01-13 20:29:00,
2013-01-13 14:30:00,17.2,7.1,30.15,WNW,292,9.3,10.5,64,0.00,,,0.00,VWS V14.01,2013-01-13 20:30:00,
2013-01-13 14:31:00,17.2,7.1,30.15,WNW,292,9.3,9.3,64,0.00,,,0.00,VWS V14.01,2013-01-13 20:31:00,
2013-01-13 14:32:00,17.2,7.1,30.15,WNW,292,9.3,9.3,64,0.00,,,0.00,VWS V14.01,2013-01-13 20:32:00,
2013-01-13 14:33:00,17.2,7.1,30.15,WNW,292,14.3,14.3,64,0.00,,,0.00,VWS V14.01,2013-01-13 20:33:00,
2013-01-13 14:34:00,17.2,7.1,30.15,WNW,292,14.3,14.3,64,0.00,,,0.00,VWS V14.01,2013-01-13 20:34:00,
2013-01-13 14:35:00,16.7,6.7,30.15,West,270,3.3,14.3,64,0.00,,,0.00,VWS V14.01,2013-01-13 20:35:00,
2013-01-13 14:36:00,16.7,6.7,30.16,West,270,3.3,3.3,64,0.00,,,0.00,VWS V14.01,2013-01-13 20:36:00,
2013-01-13 14:37:00,16.7,6.7,30.16,West,270,3.3,3.3,64,0.00,,,0.00,VWS V14.01,2013-01-13 20:37:00,
2013-01-13 14:38:00,16.3,6.6,30.16,WNW,292,10.9,10.9,65,0.00,,,0.00,VWS V14.01,2013-01-13 20:38:00,
2013-01-13 14:39:00,16.5,6.8,30.16,WNW,292,11.6,11.6,65,0.00,,,0.00,VWS V14.01,2013-01-13 20:39:00,
2013-01-13 14:40:00,16.5,6.8,30.16,WNW,292,11.6,11.6,65,0.00,,,0.00,VWS V14.01,2013-01-13 20:40:00,
2013-01-13 14:41:00,16.8,7.1,30.16,WNW,292,8.5,11.6,65,0.00,,,0.00,VWS V14.01,2013-01-13 20:41:00,
2013-01-13 14:42:00,16.8,7.1,30.16,WNW,292,8.5,8.5,65,0.00,,,0.00,VWS V14.01,2013-01-13 20:42:00,
2013-01-13 14:43:00,16.7,6.7,30.16,WNW,292,10.7,10.7,64,0.00,,,0.00,VWS V14.01,2013-01-13 20:43:00,
2013-01-13 14:44:00,16.7,6.7,30.16,WNW,292,10.7,10.7,64,0.00,,,0.00,VWS V14.01,2013-01-13 20:44:00,
2013-01-13 14:45:00,16.3,6.3,30.17,West,270,2.0,10.7,64,0.00,,,0.00,VWS V14.01,2013-01-13 20:45:00,
2013-01-13 14:46:00,16.3,6.6,30.17,West,270,2.0,2.0,65,0.00,,,0.00,VWS V14.01,2013-01-13 20:46:00,
2013-01-13 14:47:00,16.3,6.6,30.17,West,270,2.0,2.0,65,0.00,,,0.00,VWS V14.01,2013-01-13 20:47:00,
2013-01-13 14:48:00,16.1,6.4,30.17,West,270,8.2,8.2,65,0.00,,,0.00,VWS V14.01,2013-01-13 20:48:00,
2013-01-13 14:49:00,16.1,6.4,30.17,West,270,8.2,8.2,65,0.00,,,0.00,VWS V14.01,2013-01-13 20:49:00,
2013-01-13 14:50:00,15.8,6.5,30.17,West,270,5.1,8.2,66,0.00,,,0.00,VWS V14.01,2013-01-13 20:50:00,
2013-01-13 14:51:00,15.8,6.5,30.17,West,270,5.1,5.1,66,0.00,,,0.00,VWS V14.01,2013-01-13 20:51:00,
2013-01-13 14:52:00,15.8,6.5,30.17,West,270,5.1,5.1,66,0.00,,,0.00,VWS V14.01,2013-01-13 20:52:00,
2013-01-13 14:53:00,15.4,6.4,30.17,West,270,5.1,5.1,67,0.00,,,0.00,VWS V14.01,2013-01-13 20:53:00,
2013-01-13 14:54:00,15.2,6.2,30.17,West,270,5.5,5.5,67,0.00,,,0.00,VWS V14.01,2013-01-13 20:54:00,
2013-01-13 14:55:00,15.2,6.2,30.18,West,270,5.5,5.5,67,0.00,,,0.00,VWS V14.01,2013-01-13 20:55:00,
2013-01-13 14:56:00,15.0,6.4,30.18,WSW,248,6.7,6.7,68,0.00,,,0.00,VWS V14.01,2013-01-13 20:56:00,
2013-01-13 14:57:00,15.0,6.4,30.18,WSW,248,6.7,6.7,68,0.00,,,0.00,VWS V14.01,2013-01-13 20:57:00,
2013-01-13 14:58:00,15.0,6.0,30.18,West,270,8.9,8.9,67,0.00,,,0.00,VWS V14.01,2013-01-13 20:58:00,
2013-01-13 14:59:00,15.0,6.0,30.18,West,270,8.9,8.9,67,0.00,,,0.00,VWS V14.01,2013-01-13 20:59:00,
2013-01-13 15:00:00,14.7,6.1,30.18,West,270,4.9,8.9,68,0.00,,,0.00,VWS V14.01,2013-01-13 21:00:00,
2013-01-13 15:01:00,14.7,6.1,30.18,West,270,4.9,4.9,68,0.00,,,0.00,VWS V14.01,2013-01-13 21:01:00,
2013-01-13 15:02:00,14.7,6.1,30.18,West,270,4.9,4.9,68,0.00,,,0.00,VWS V14.01,2013-01-13 21:02:00,
2013-01-13 15:03:00,14.7,6.1,30.18,West,270,8.7,8.7,68,0.00,,,0.00,VWS V14.01,2013-01-13 21:03:00,
2013-01-13 15:04:00,14.7,6.1,30.18,West,270,8.7,8.7,68,0.00,,,0.00,VWS V14.01,2013-01-13 21:04:00,
2013-01-13 15:05:00,14.5,5.9,30.18,WNW,292,5.8,8.7,68,0.00,,,0.00,VWS V14.01,2013-01-13 21:05:00,
2013-01-13 15:06:00,14.5,5.9,30.18,WNW,292,5.8,5.8,68,0.00,,,0.00,VWS V14.01,2013-01-13 21:06:00,
2013-01-13 15:07:00,14.5,5.9,30.18,WNW,292,5.8,5.8,68,0.00,,,0.00,VWS V14.01,2013-01-13 21:07:00,
2013-01-13 15:08:00,15.0,6.7,30.19,WNW,292,6.0,6.0,69,0.00,,,0.00,VWS V14.01,2013-01-13 21:08:00,
2013-01-13 15:09:00,15.6,7.3,30.18,West,270,6.0,6.0,69,0.00,,,0.00,VWS V14.01,2013-01-13 21:09:00,
2013-01-13 15:10:00,15.6,7.3,30.18,West,270,6.0,6.0,69,0.00,,,0.00,VWS V14.01,2013-01-13 21:10:00,
2013-01-13 15:11:00,15.9,7.5,30.19,WNW,292,5.1,6.0,69,0.00,,,0.00,VWS V14.01,2013-01-13 21:11:00,
2013-01-13 15:12:00,15.9,7.5,30.19,WNW,292,5.1,5.1,69,0.00,,,0.00,VWS V14.01,2013-01-13 21:12:00,
2013-01-13 15:13:00,15.9,7.5,30.18,WNW,292,5.3,5.3,69,0.00,,,0.00,VWS V14.01,2013-01-13 21:13:00,
2013-01-13 15:14:00,16.5,8.1,30.18,WNW,292,5.3,5.3,69,0.00,,,0.00,VWS V14.01,2013-01-13 21:14:00,
2013-01-13 15:15:00,16.1,7.1,30.19,West,270,12.0,12.0,67,0.00,,,0.00,VWS V14.01,2013-01-13 21:15:00,
2013-01-13 15:16:00,16.1,7.1,30.19,West,270,12.0,12.0,67,0.00,,,0.00,VWS V14.01,2013-01-13 21:16:00,
2013-01-13 15:17:00,16.1,7.1,30.19,West,270,12.0,12.0,67,0.00,,,0.00,VWS V14.01,2013-01-13 21:17:00,
2013-01-13 15:18:00,15.6,6.9,30.19,West,270,6.4,6.4,68,0.00,,,0.00,VWS V14.01,2013-01-13 21:18:00,
2013-01-13 15:19:00,15.6,6.9,30.19,West,270,6.4,6.4,68,0.00,,,0.00,VWS V14.01,2013-01-13 21:19:00,
2013-01-13 15:20:00,15.2,6.6,30.19,West,270,8.2,8.2,68,0.00,,,0.00,VWS V14.01,2013-01-13 21:20:00,
2013-01-13 15:21:00,15.2,6.6,30.19,West,270,8.2,8.2,68,0.00,,,0.00,VWS V14.01,2013-01-13 21:21:00,
2013-01-13 15:22:00,15.2,6.6,30.19,West,270,8.2,8.2,68,0.00,,,0.00,VWS V14.01,2013-01-13 21:22:00,
2013-01-13 15:23:00,15.0,6.7,30.19,WNW,292,10.5,10.5,69,0.00,,,0.00,VWS V14.01,2013-01-13 21:23:00,
2013-01-13 15:24:00,14.9,6.3,30.19,WNW,292,6.9,10.5,68,0.00,,,0.00,VWS V14.01,2013-01-13 21:24:00,
2013-01-13 15:25:00,14.9,6.3,30.19,WNW,292,6.9,6.9,68,0.00,,,0.00,VWS V14.01,2013-01-13 21:25:00,
2013-01-13 15:26:00,15.0,6.4,30.19,WNW,292,8.5,8.5,68,0.00,,,0.00,VWS V14.01,2013-01-13 21:26:00,
2013-01-13 15:27:00,15.0,6.4,30.19,WNW,292,8.5,8.5,68,0.00,,,0.00,VWS V14.01,2013-01-13 21:27:00,
2013-01-13 15:28:00,15.4,7.1,30.19,NW,315,10.2,10.2,69,0.00,,,0.00,VWS V14.01,2013-01-13 21:28:00,
2013-01-13 15:29:00,15.4,7.1,30.19,NW,315,10.2,10.2,69,0.00,,,0.00,VWS V14.01,2013-01-13 21:29:00,
2013-01-13 15:30:00,15.2,6.9,30.19,West,270,7.6,10.2,69,0.00,,,0.00,VWS V14.01,2013-01-13 21:30:00,
2013-01-13 15:31:00,15.2,6.9,30.19,West,270,7.6,7.6,69,0.00,,,0.00,VWS V14.01,2013-01-13 21:31:00,
2013-01-13 15:32:00,15.2,6.9,30.19,West,270,7.6,7.6,69,0.00,,,0.00,VWS V14.01,2013-01-13 21:32:00,
2013-01-13 15:33:00,15.0,6.4,30.19,West,270,4.4,4.4,68,0.00,,,0.00,VWS V14.01,2013-01-13 21:33:00,
2013-01-13 15:34:00,15.0,6.4,30.19,West,270,9.3,9.3,68,0.00,,,0.00,VWS V14.01,2013-01-13 21:34:00,
2013-01-13 15:35:00,14.7,6.1,30.19,West,270,9.3,9.3,68,0.00,,,0.00,VWS V14.01,2013-01-13 21:35:00,
2013-01-13 15:36:00,14.7,6.1,30.19,West,270,9.3,9.3,68,0.00,,,0.00,VWS V14.01,2013-01-13 21:36:00,
2013-01-13 15:37:00,14.7,6.1,30.19,West,270,9.3,9.3,68,0.00,,,0.00,VWS V14.01,2013-01-13 21:37:00,
2013-01-13 15:38:00,14.7,6.1,30.19,West,270,11.4,11.4,68,0.00,,,0.00,VWS V14.01,2013-01-13 21:38:00,
2013-01-13 15:39:00,14.5,5.9,30.19,West,270,4.6,11.4,68,0.00,,,0.00,VWS V14.01,2013-01-13 21:39:00,
2013-01-13 15:40:00,14.5,5.9,30.19,West,270,4.6,4.6,68,0.00,,,0.00,VWS V14.01,2013-01-13 21:40:00,
2013-01-13 15:41:00,14.9,6.3,30.19,West,270,7.1,7.1,68,0.00,,,0.00,VWS V14.01,2013-01-13 21:41:00,
2013-01-13 15:42:00,14.9,6.3,30.19,West,270,7.1,7.1,68,0.00,,,0.00,VWS V14.01,2013-01-13 21:42:00,
2013-01-13 15:43:00,15.6,6.9,30.19,West,270,8.2,8.2,68,0.00,,,0.00,VWS V14.01,2013-01-13 21:43:00,
2013-01-13 15:44:00,15.6,6.9,30.19,West,270,8.2,8.2,68,0.00,,,0.00,VWS V14.01,2013-01-13 21:44:00,
2013-01-13 15:45:00,15.4,6.4,30.19,West,270,3.1,8.2,67,0.00,,,0.00,VWS V14.01,2013-01-13 21:45:00,
2013-01-13 15:46:00,15.4,6.4,30.19,West,270,3.1,3.1,67,0.00,,,0.00,VWS V14.01,2013-01-13 21:46:00,
2013-01-13 15:47:00,15.4,6.4,30.19,West,270,3.1,3.1,67,0.00,,,0.00,VWS V14.01,2013-01-13 21:47:00,
2013-01-13 15:48:00,15.6,6.9,30.20,WNW,292,7.1,7.1,68,0.00,,,0.00,VWS V14.01,2013-01-13 21:48:00,
2013-01-13 15:49:00,15.6,6.9,30.20,WNW,292,7.1,7.1,68,0.00,,,0.00,VWS V14.01,2013-01-13 21:49:00,
2013-01-13 15:50:00,15.4,6.7,30.20,West,270,6.0,7.1,68,0.00,,,0.00,VWS V14.01,2013-01-13 21:50:00,
2013-01-13 15:51:00,15.4,6.7,30.20,West,270,6.0,6.0,68,0.00,,,0.00,VWS V14.01,2013-01-13 21:51:00,
2013-01-13 15:52:00,15.4,6.7,30.20,West,270,6.0,6.0,68,0.00,,,0.00,VWS V14.01,2013-01-13 21:52:00,
2013-01-13 15:53:00,14.9,5.9,30.20,West,270,7.8,7.8,67,0.00,,,0.00,VWS V14.01,2013-01-13 21:53:00,
2013-01-13 15:54:00,14.7,6.1,30.20,WNW,292,10.7,10.7,68,0.00,,,0.00,VWS V14.01,2013-01-13 21:54:00,
2013-01-13 15:55:00,14.7,6.1,30.20,WNW,292,10.7,10.7,68,0.00,,,0.00,VWS V14.01,2013-01-13 21:55:00,
2013-01-13 15:56:00,14.7,6.1,30.20,West,270,3.8,10.7,68,0.00,,,0.00,VWS V14.01,2013-01-13 21:56:00,
2013-01-13 15:57:00,14.7,6.1,30.20,West,270,3.8,3.8,68,0.00,,,0.00,VWS V14.01,2013-01-13 21:57:00,
2013-01-13 15:58:00,14.9,6.6,30.20,West,270,5.1,5.1,69,0.00,,,0.00,VWS V14.01,2013-01-13 21:58:00,
2013-01-13 15:59:00,14.9,6.6,30.20,West,270,5.1,5.1,69,0.00,,,0.00,VWS V14.01,2013-01-13 21:59:00,
2013-01-13 16:00:00,14.9,6.3,30.20,West,270,4.9,5.1,68,0.00,,,0.00,VWS V14.01,2013-01-13 22:00:00,
2013-01-13 16:01:00,14.9,6.3,30.20,West,270,4.9,4.9,68,0.00,,,0.00,VWS V14.01,2013-01-13 22:01:00,
2013-01-13 16:02:00,14.9,6.3,30.20,West,270,4.9,4.9,68,0.00,,,0.00,VWS V14.01,2013-01-13 22:02:00,
2013-01-13 16:03:00,14.7,6.4,30.21,West,270,2.0,2.0,69,0.00,,,0.00,VWS V14.01,2013-01-13 22:03:00,
2013-01-13 16:04:00,14.5,6.2,30.20,West,270,11.6,11.6,69,0.00,,,0.00,VWS V14.01,2013-01-13 22:04:00,
2013-01-13 16:05:00,14.5,6.2,30.20,West,270,11.6,11.6,69,0.00,,,0.00,VWS V14.01,2013-01-13 22:05:00,
2013-01-13 16:06:00,14.5,6.2,30.20,West,270,11.6,11.6,69,0.00,,,0.00,VWS V14.01,2013-01-13 22:06:00,
2013-01-13 16:07:00,14.5,6.2,30.20,West,270,11.6,11.6,69,0.00,,,0.00,VWS V14.01,2013-01-13 22:07:00,
2013-01-13 16:08:00,14.3,6.0,30.20,West,270,4.0,4.0,69,0.00,,,0.00,VWS V14.01,2013-01-13 22:08:00,
2013-01-13 16:09:00,14.5,6.5,30.20,West,270,5.8,5.8,70,0.00,,,0.00,VWS V14.01,2013-01-13 22:09:00,
2013-01-13 16:10:00,14.5,6.5,30.20,West,270,5.8,5.8,70,0.00,,,0.00,VWS V14.01,2013-01-13 22:10:00,
2013-01-13 16:11:00,14.7,6.4,30.21,West,270,14.3,14.3,69,0.00,,,0.00,VWS V14.01,2013-01-13 22:11:00,
2013-01-13 16:12:00,14.7,6.4,30.21,West,270,14.3,14.3,69,0.00,,,0.00,VWS V14.01,2013-01-13 22:12:00,
2013-01-13 16:13:00,14.5,6.2,30.21,WNW,292,9.6,14.3,69,0.00,,,0.00,VWS V14.01,2013-01-13 22:13:00,
2013-01-13 16:14:00,14.5,6.2,30.21,WNW,292,9.6,9.6,69,0.00,,,0.00,VWS V14.01,2013-01-13 22:14:00,
2013-01-13 16:15:00,14.5,6.5,30.21,West,270,6.9,9.6,70,0.00,,,0.00,VWS V14.01,2013-01-13 22:15:00,
2013-01-13 16:16:00,14.5,6.5,30.21,West,270,6.9,6.9,70,0.00,,,0.00,VWS V14.01,2013-01-13 22:16:00,
2013-01-13 16:17:00,14.5,6.5,30.21,West,270,6.9,6.9,70,0.00,,,0.00,VWS V14.01,2013-01-13 22:17:00,
2013-01-13 16:18:00,14.1,5.8,30.21,WNW,292,10.0,10.0,69,0.00,,,0.00,VWS V14.01,2013-01-13 22:18:00,
2013-01-13 16:19:00,14.1,5.8,30.21,West,270,3.1,10.0,69,0.00,,,0.00,VWS V14.01,2013-01-13 22:19:00,
2013-01-13 16:20:00,13.8,5.5,30.21,West,270,3.1,3.1,69,0.00,,,0.00,VWS V14.01,2013-01-13 22:20:00,
2013-01-13 16:21:00,13.8,5.5,30.21,West,270,3.1,3.1,69,0.00,,,0.00,VWS V14.01,2013-01-13 22:21:00,
2013-01-13 16:22:00,13.8,5.5,30.21,West,270,3.1,3.1,69,0.00,,,0.00,VWS V14.01,2013-01-13 22:22:00,
2013-01-13 16:23:00,13.8,5.8,30.21,West,270,2.9,2.9,70,0.00,,,0.00,VWS V14.01,2013-01-13 22:23:00,
2013-01-13 16:24:00,13.6,6.0,30.22,WNW,292,2.0,2.9,71,0.00,,,0.00,VWS V14.01,2013-01-13 22:24:00,
2013-01-13 16:25:00,13.6,6.0,30.22,WNW,292,2.0,2.0,71,0.00,,,0.00,VWS V14.01,2013-01-13 22:25:00,
2013-01-13 16:26:00,13.6,6.0,30.22,West,270,7.1,7.1,71,0.00,,,0.00,VWS V14.01,2013-01-13 22:26:00,
2013-01-13 16:27:00,13.6,6.0,30.22,West,270,7.1,7.1,71,0.00,,,0.00,VWS V14.01,2013-01-13 22:27:00,
2013-01-13 16:28:00,13.6,6.0,30.22,West,270,8.7,8.7,71,0.00,,,0.00,VWS V14.01,2013-01-13 22:28:00,
2013-01-13 16:29:00,13.6,6.0,30.22,West,270,8.7,8.7,71,0.00,,,0.00,VWS V14.01,2013-01-13 22:29:00,
2013-01-13 16:30:00,13.6,6.0,30.22,WNW,292,9.8,9.8,71,0.00,,,0.00,VWS V14.01,2013-01-13 22:30:00,
2013-01-13 16:31:00,13.6,6.0,30.22,WNW,292,9.8,9.8,71,0.00,,,0.00,VWS V14.01,2013-01-13 22:31:00,
2013-01-13 16:32:00,13.6,6.0,30.22,WNW,292,9.8,9.8,71,0.00,,,0.00,VWS V14.01,2013-01-13 22:32:00,
2013-01-13 16:33:00,13.4,5.5,30.21,WNW,292,8.5,8.5,70,0.00,,,0.00,VWS V14.01,2013-01-13 22:33:00,
2013-01-13 16:34:00,13.2,5.3,30.21,WNW,292,6.0,8.5,70,0.00,,,0.00,VWS V14.01,2013-01-13 22:34:00,
2013-01-13 16:35:00,13.2,5.3,30.22,WNW,292,6.0,6.0,70,0.00,,,0.00,VWS V14.01,2013-01-13 22:35:00,
2013-01-13 16:36:00,13.2,5.3,30.22,WNW,292,6.0,6.0,70,0.00,,,0.00,VWS V14.01,2013-01-13 22:36:00,
2013-01-13 16:37:00,13.2,5.3,30.22,WNW,292,6.0,6.0,70,0.00,,,0.00,VWS V14.01,2013-01-13 22:37:00,
2013-01-13 16:38:00,13.2,5.6,30.22,West,270,4.0,4.0,71,0.00,,,0.00,VWS V14.01,2013-01-13 22:38:00,
2013-01-13 16:39:00,13.1,5.5,30.22,WNW,292,13.1,13.1,71,0.00,,,0.00,VWS V14.01,2013-01-13 22:39:00,
2013-01-13 16:40:00,13.1,5.5,30.22,WNW,292,13.1,13.1,71,0.00,,,0.00,VWS V14.01,2013-01-13 22:40:00,
2013-01-13 16:41:00,13.1,5.5,30.22,WNW,292,16.7,16.7,71,0.00,,,0.00,VWS V14.01,2013-01-13 22:41:00,
2013-01-13 16:42:00,13.1,5.5,30.22,WNW,292,16.7,16.7,71,0.00,,,0.00,VWS V14.01,2013-01-13 22:42:00,
2013-01-13 16:43:00,13.1,5.5,30.22,West,270,6.9,16.7,71,0.00,,,0.00,VWS V14.01,2013-01-13 22:43:00,
2013-01-13 16:44:00,13.1,5.5,30.22,West,270,6.9,6.9,71,0.00,,,0.00,VWS V14.01,2013-01-13 22:44:00,
2013-01-13 16:45:00,12.9,5.3,30.22,West,270,8.2,8.2,71,0.00,,,0.00,VWS V14.01,2013-01-13 22:45:00,
2013-01-13 16:46:00,12.9,5.3,30.23,West,270,8.2,8.2,71,0.00,,,0.00,VWS V14.01,2013-01-13 22:46:00,
2013-01-13 16:47:00,12.9,5.3,30.23,West,270,8.2,8.2,71,0.00,,,0.00,VWS V14.01,2013-01-13 22:47:00,
2013-01-13 16:48:00,12.7,5.1,30.22,WNW,292,2.4,2.4,71,0.00,,,0.00,VWS V14.01,2013-01-13 22:48:00,
2013-01-13 16:49:00,12.7,5.1,30.23,West,270,8.7,8.7,71,0.00,,,0.00,VWS V14.01,2013-01-13 22:49:00,
2013-01-13 16:50:00,12.7,5.1,30.22,West,270,8.7,8.7,71,0.00,,,0.00,VWS V14.01,2013-01-13 22:50:00,
2013-01-13 16:51:00,12.7,5.1,30.22,West,270,8.7,8.7,71,0.00,,,0.00,VWS V14.01,2013-01-13 22:51:00,
2013-01-13 16:52:00,12.7,5.1,30.22,West,270,8.7,8.7,71,0.00,,,0.00,VWS V14.01,2013-01-13 22:52:00,
2013-01-13 16:53:00,12.9,5.3,30.23,WNW,292,5.8,5.8,71,0.00,,,0.00,VWS V14.01,2013-01-13 22:53:00,
2013-01-13 16:54:00,12.7,5.1,30.23,WNW,292,4.4,5.8,71,0.00,,,0.00,VWS V14.01,2013-01-13 22:54:00,
2013-01-13 16:55:00,12.7,5.1,30.23,WNW,292,4.4,4.4,71,0.00,,,0.00,VWS V14.01,2013-01-13 22:55:00,
2013-01-13 16:56:00,12.7,5.1,30.23,WNW,292,5.8,5.8,71,0.00,,,0.00,VWS V14.01,2013-01-13 22:56:00,
2013-01-13 16:57:00,12.7,5.1,30.23,WNW,292,5.8,5.8,71,0.00,,,0.00,VWS V14.01,2013-01-13 22:57:00,
2013-01-13 16:58:00,12.7,5.1,30.23,WNW,292,5.5,5.8,71,0.00,,,0.00,VWS V14.01,2013-01-13 22:58:00,
2013-01-13 16:59:00,12.7,5.1,30.23,WNW,292,5.5,5.5,71,0.00,,,0.00,VWS V14.01,2013-01-13 22:59:00,
2013-01-13 17:00:00,12.7,5.1,30.23,WNW,292,3.3,5.5,71,0.00,,,0.00,VWS V14.01,2013-01-13 23:00:00,
2013-01-13 17:01:00,12.7,5.1,30.23,WNW,292,3.3,3.3,71,0.00,,,0.00,VWS V14.01,2013-01-13 23:01:00,
2013-01-13 17:02:00,12.7,5.1,30.23,WNW,292,3.3,3.3,71,0.00,,,0.00,VWS V14.01,2013-01-13 23:02:00,
2013-01-13 17:03:00,12.9,5.3,30.24,WNW,292,5.3,5.3,71,0.00,,,0.00,VWS V14.01,2013-01-13 23:03:00,
2013-01-13 17:04:00,12.9,5.3,30.24,WNW,292,5.3,5.3,71,0.00,,,0.00,VWS V14.01,2013-01-13 23:04:00,
2013-01-13 17:05:00,12.9,5.3,30.24,WNW,292,4.2,5.3,71,0.00,,,0.00,VWS V14.01,2013-01-13 23:05:00,
2013-01-13 17:06:00,12.7,5.1,30.24,WNW,292,4.2,4.2,71,0.00,,,0.00,VWS V14.01,2013-01-13 23:06:00,
2013-01-13 17:07:00,12.7,5.1,30.24,WNW,292,4.2,4.2,71,0.00,,,0.00,VWS V14.01,2013-01-13 23:07:00,
2013-01-13 17:08:00,12.7,5.1,30.24,WNW,292,7.1,7.1,71,0.00,,,0.00,VWS V14.01,2013-01-13 23:08:00,
2013-01-13 17:09:00,12.7,5.4,30.24,West,270,5.1,7.1,72,0.00,,,0.00,VWS V14.01,2013-01-13 23:09:00,
2013-01-13 17:10:00,12.7,5.4,30.24,West,270,5.1,5.1,72,0.00,,,0.00,VWS V14.01,2013-01-13 23:10:00,
2013-01-13 17:11:00,12.7,5.4,30.24,West,270,5.3,5.3,72,0.00,,,0.00,VWS V14.01,2013-01-13 23:11:00,
2013-01-13 17:12:00,12.7,5.4,30.24,West,270,5.3,5.3,72,0.00,,,0.00,VWS V14.01,2013-01-13 23:12:00,
2013-01-13 17:13:00,12.7,5.4,30.24,West,270,2.0,5.3,72,0.00,,,0.00,VWS V14.01,2013-01-13 23:13:00,
2013-01-13 17:14:00,12.7,5.4,30.24,West,270,2.0,2.0,72,0.00,,,0.00,VWS V14.01,2013-01-13 23:14:00,
2013-01-13 17:15:00,12.7,5.4,30.24,WSW,248,3.8,3.8,72,0.00,,,0.00,VWS V14.01,2013-01-13 23:15:00,
2013-01-13 17:16:00,12.7,5.4,30.24,WSW,248,3.8,3.8,72,0.00,,,0.00,VWS V14.01,2013-01-13 23:16:00,
2013-01-13 17:17:00,12.7,5.4,30.24,WSW,248,3.8,3.8,72,0.00,,,0.00,VWS V14.01,2013-01-13 23:17:00,
2013-01-13 17:18:00,12.5,5.5,30.24,WSW,248,1.5,1.5,73,0.00,,,0.00,VWS V14.01,2013-01-13 23:18:00,
2013-01-13 17:19:00,12.3,5.3,30.24,WNW,292,4.4,4.4,73,0.00,,,0.00,VWS V14.01,2013-01-13 23:19:00,
2013-01-13 17:20:00,12.3,5.3,30.24,WNW,292,4.4,4.4,73,0.00,,,0.00,VWS V14.01,2013-01-13 23:20:00,
2013-01-13 17:21:00,12.3,5.3,30.24,WNW,292,4.4,4.4,73,0.00,,,0.00,VWS V14.01,2013-01-13 23:21:00,
2013-01-13 17:22:00,12.3,5.3,30.24,WNW,292,4.4,4.4,73,0.00,,,0.00,VWS V14.01,2013-01-13 23:22:00,
2013-01-13 17:23:00,12.3,5.3,30.24,WSW,248,5.3,5.3,73,0.00,,,0.00,VWS V14.01,2013-01-13 23:23:00,
2013-01-13 17:24:00,12.3,5.6,30.24,WNW,292,2.4,5.3,74,0.00,,,0.00,VWS V14.01,2013-01-13 23:24:00,
2013-01-13 17:25:00,12.3,5.6,30.24,WNW,292,2.4,2.4,74,0.00,,,0.00,VWS V14.01,2013-01-13 23:25:00,
2013-01-13 17:26:00,12.3,5.6,30.24,WNW,292,2.9,2.9,74,0.00,,,0.00,VWS V14.01,2013-01-13 23:26:00,
2013-01-13 17:27:00,12.3,5.6,30.24,WNW,292,2.9,2.9,74,0.00,,,0.00,VWS V14.01,2013-01-13 23:27:00,
2013-01-13 17:28:00,12.3,5.6,30.24,West,270,4.0,4.0,74,0.00,,,0.00,VWS V14.01,2013-01-13 23:28:00,
2013-01-13 17:29:00,12.3,5.6,30.24,West,270,4.0,4.0,74,0.00,,,0.00,VWS V14.01,2013-01-13 23:29:00,
2013-01-13 17:30:00,12.3,5.6,30.25,West,270,0.0,4.0,74,0.00,,,0.00,VWS V14.01,2013-01-13 23:30:00,
2013-01-13 17:31:00,12.3,5.6,30.25,West,270,0.0,0.0,74,0.00,,,0.00,VWS V14.01,2013-01-13 23:31:00,
2013-01-13 17:32:00,12.3,5.6,30.25,West,270,0.0,0.0,74,0.00,,,0.00,VWS V14.01,2013-01-13 23:32:00,
2013-01-13 17:33:00,12.5,5.8,30.24,WNW,292,6.0,6.0,74,0.00,,,0.00,VWS V14.01,2013-01-13 23:33:00,
2013-01-13 17:34:00,12.5,5.8,30.24,West,270,5.5,6.0,74,0.00,,,0.00,VWS V14.01,2013-01-13 23:34:00,
2013-01-13 17:35:00,12.3,5.6,30.25,West,270,5.5,5.5,74,0.00,,,0.00,VWS V14.01,2013-01-13 23:35:00,
2013-01-13 17:36:00,12.3,5.6,30.25,West,270,5.5,5.5,74,0.00,,,0.00,VWS V14.01,2013-01-13 23:36:00,
2013-01-13 17:37:00,12.3,5.6,30.25,West,270,5.5,5.5,74,0.00,,,0.00,VWS V14.01,2013-01-13 23:37:00,
2013-01-13 17:38:00,12.3,5.6,30.25,West,270,3.5,3.5,74,0.00,,,0.00,VWS V14.01,2013-01-13 23:38:00,
2013-01-13 17:39:00,12.3,5.6,30.25,West,270,6.9,6.9,74,0.00,,,0.00,VWS V14.01,2013-01-13 23:39:00,
2013-01-13 17:40:00,12.3,5.6,30.25,West,270,6.9,6.9,74,0.00,,,0.00,VWS V14.01,2013-01-13 23:40:00,
2013-01-13 17:41:00,12.3,5.6,30.25,WSW,248,3.1,6.9,74,0.00,,,0.00,VWS V14.01,2013-01-13 23:41:00,
2013-01-13 17:42:00,12.3,5.6,30.25,WSW,248,3.1,3.1,74,0.00,,,0.00,VWS V14.01,2013-01-13 23:42:00,
2013-01-13 17:43:00,12.3,5.6,30.25,West,270,2.9,3.1,74,0.00,,,0.00,VWS V14.01,2013-01-13 23:43:00,
2013-01-13 17:44:00,12.3,5.6,30.25,West,270,2.9,2.9,74,0.00,,,0.00,VWS V14.01,2013-01-13 23:44:00,
2013-01-13 17:45:00,12.3,5.6,30.25,West,270,3.5,3.5,74,0.00,,,0.00,VWS V14.01,2013-01-13 23:45:00,
2013-01-13 17:46:00,12.3,5.6,30.25,West,270,3.5,3.5,74,0.00,,,0.00,VWS V14.01,2013-01-13 23:46:00,
2013-01-13 17:47:00,12.3,5.6,30.25,West,270,3.5,3.5,74,0.00,,,0.00,VWS V14.01,2013-01-13 23:47:00,
2013-01-13 17:48:00,12.5,5.8,30.25,West,270,2.0,2.0,74,0.00,,,0.00,VWS V14.01,2013-01-13 23:48:00,
2013-01-13 17:49:00,12.5,5.8,30.25,West,270,12.9,12.9,74,0.00,,,0.00,VWS V14.01,2013-01-13 23:49:00,
2013-01-13 17:50:00,12.5,5.8,30.25,West,270,12.9,12.9,74,0.00,,,0.00,VWS V14.01,2013-01-13 23:50:00,
2013-01-13 17:51:00,12.5,5.8,30.25,West,270,12.9,12.9,74,0.00,,,0.00,VWS V14.01,2013-01-13 23:51:00,
2013-01-13 17:52:00,12.5,5.8,30.25,West,270,12.9,12.9,74,0.00,,,0.00,VWS V14.01,2013-01-13 23:52:00,
2013-01-13 17:53:00,12.5,5.8,30.25,West,270,4.6,4.6,74,0.00,,,0.00,VWS V14.01,2013-01-13 23:53:00,
2013-01-13 17:54:00,12.3,5.6,30.26,WSW,248,2.2,4.6,74,0.00,,,0.00,VWS V14.01,2013-01-13 23:54:00,
2013-01-13 17:55:00,12.3,5.6,30.25,WSW,248,2.2,2.2,74,0.00,,,0.00,VWS V14.01,2013-01-13 23:55:00,
2013-01-13 17:56:00,12.3,5.6,30.26,West,270,0.8,2.2,74,0.00,,,0.00,VWS V14.01,2013-01-13 23:56:00,
2013-01-13 17:57:00,12.3,5.6,30.26,West,270,0.8,0.8,74,0.00,,,0.00,VWS V14.01,2013-01-13 23:57:00,
2013-01-13 17:58:00,12.5,5.5,30.26,West,270,1.1,1.1,73,0.00,,,0.00,VWS V14.01,2013-01-13 23:58:00,
2013-01-13 17:59:00,12.5,5.5,30.26,West,270,1.1,1.1,73,0.00,,,0.00,VWS V14.01,2013-01-13 23:59:00,
2013-01-13 18:00:00,12.3,5.3,30.26,West,270,2.6,2.6,73,0.00,,,0.00,VWS V14.01,2013-01-14 00:00:00,
2013-01-13 18:01:00,12.3,5.3,30.26,West,270,2.6,2.6,73,0.00,,,0.00,VWS V14.01,2013-01-14 00:01:00,
2013-01-13 18:02:00,12.3,5.3,30.26,West,270,2.6,2.6,73,0.00,,,0.00,VWS V14.01,2013-01-14 00:02:00,
2013-01-13 18:03:00,12.3,5.3,30.26,WNW,292,3.5,3.5,73,0.00,,,0.00,VWS V14.01,2013-01-14 00:03:00,
2013-01-13 18:04:00,12.3,5.3,30.26,West,270,6.9,6.9,73,0.00,,,0.00,VWS V14.01,2013-01-14 00:04:00,
2013-01-13 18:05:00,12.3,5.3,30.25,West,270,6.9,6.9,73,0.00,,,0.00,VWS V14.01,2013-01-14 00:05:00,
2013-01-13 18:06:00,12.3,5.3,30.25,West,270,6.9,6.9,73,0.00,,,0.00,VWS V14.01,2013-01-14 00:06:00,
2013-01-13 18:07:00,12.3,5.3,30.25,West,270,6.9,6.9,73,0.00,,,0.00,VWS V14.01,2013-01-14 00:07:00,
2013-01-13 18:08:00,12.3,5.3,30.25,West,270,0.0,0.0,73,0.00,,,0.00,VWS V14.01,2013-01-14 00:08:00,
2013-01-13 18:09:00,12.3,5.3,30.26,WNW,292,6.2,6.2,73,0.00,,,0.00,VWS V14.01,2013-01-14 00:09:00,
2013-01-13 18:10:00,12.3,5.3,30.25,WNW,292,6.2,6.2,73,0.00,,,0.00,VWS V14.01,2013-01-14 00:10:00,
2013-01-13 18:11:00,12.3,5.3,30.26,West,270,3.5,6.2,73,0.00,,,0.00,VWS V14.01,2013-01-14 00:11:00,
2013-01-13 18:12:00,12.3,5.3,30.26,West,270,3.5,3.5,73,0.00,,,0.00,VWS V14.01,2013-01-14 00:12:00,
2013-01-13 18:13:00,12.3,5.3,30.26,South,180,5.8,5.8,73,0.00,,,0.00,VWS V14.01,2013-01-14 00:13:00,
2013-01-13 18:14:00,12.3,5.3,30.26,South,180,5.8,5.8,73,0.00,,,0.00,VWS V14.01,2013-01-14 00:14:00,
2013-01-13 18:15:00,12.3,5.3,30.26,WNW,292,10.5,10.5,73,0.00,,,0.00,VWS V14.01,2013-01-14 00:15:00,
2013-01-13 18:16:00,12.3,5.3,30.26,WNW,292,10.5,10.5,73,0.00,,,0.00,VWS V14.01,2013-01-14 00:16:00,
2013-01-13 18:17:00,12.3,5.3,30.26,WNW,292,10.5,10.5,73,0.00,,,0.00,VWS V14.01,2013-01-14 00:17:00,
2013-01-13 18:18:00,12.3,5.3,30.26,West,270,4.4,4.4,73,0.00,,,0.00,VWS V14.01,2013-01-14 00:18:00,
2013-01-13 18:19:00,12.3,5.3,30.26,West,270,5.3,5.3,73,0.00,,,0.00,VWS V14.01,2013-01-14 00:19:00,
2013-01-13 18:20:00,12.2,5.2,30.26,West,270,5.3,5.3,73,0.00,,,0.00,VWS V14.01,2013-01-14 00:20:00,
2013-01-13 18:21:00,12.2,5.2,30.26,West,270,5.3,5.3,73,0.00,,,0.00,VWS V14.01,2013-01-14 00:21:00,
2013-01-13 18:22:00,12.2,5.2,30.26,West,270,5.3,5.3,73,0.00,,,0.00,VWS V14.01,2013-01-14 00:22:00,
2013-01-13 18:23:00,12.0,5.3,30.26,West,270,4.4,4.4,74,0.00,,,0.00,VWS V14.01,2013-01-14 00:23:00,
2013-01-13 18:24:00,12.0,5.3,30.26,WNW,292,2.0,4.4,74,0.00,,,0.00,VWS V14.01,2013-01-14 00:24:00,
2013-01-13 18:25:00,12.0,5.3,30.26,WNW,292,2.0,2.0,74,0.00,,,0.00,VWS V14.01,2013-01-14 00:25:00,
2013-01-13 18:26:00,12.0,5.3,30.26,West,270,5.3,5.3,74,0.00,,,0.00,VWS V14.01,2013-01-14 00:26:00,
2013-01-13 18:27:00,12.0,5.3,30.26,West,270,5.3,5.3,74,0.00,,,0.00,VWS V14.01,2013-01-14 00:27:00,
2013-01-13 18:28:00,12.0,5.3,30.26,WNW,292,6.2,6.2,74,0.00,,,0.00,VWS V14.01,2013-01-14 00:28:00,
2013-01-13 18:29:00,12.0,5.3,30.26,WNW,292,6.2,6.2,74,0.00,,,0.00,VWS V14.01,2013-01-14 00:29:00,
2013-01-13 18:30:00,12.0,5.0,30.26,West,270,4.0,6.2,73,0.00,,,0.00,VWS V14.01,2013-01-14 00:30:00,
2013-01-13 18:31:00,12.0,5.0,30.26,West,270,4.0,4.0,73,0.00,,,0.00,VWS V14.01,2013-01-14 00:31:00,
2013-01-13 18:32:00,12.0,5.0,30.26,West,270,4.0,4.0,73,0.00,,,0.00,VWS V14.01,2013-01-14 00:32:00,
2013-01-13 18:33:00,12.0,5.0,30.26,West,270,10.5,10.5,73,0.00,,,0.00,VWS V14.01,2013-01-14 00:33:00,
2013-01-13 18:34:00,12.0,5.0,30.26,WNW,292,15.8,15.8,73,0.00,,,0.00,VWS V14.01,2013-01-14 00:34:00,
2013-01-13 18:35:00,12.0,5.0,30.26,WNW,292,15.8,15.8,73,0.00,,,0.00,VWS V14.01,2013-01-14 00:35:00,
2013-01-13 18:36:00,12.0,5.0,30.26,WNW,292,15.8,15.8,73,0.00,,,0.00,VWS V14.01,2013-01-14 00:36:00,
2013-01-13 18:37:00,12.0,5.0,30.26,WNW,292,15.8,15.8,73,0.00,,,0.00,VWS V14.01,2013-01-14 00:37:00,
2013-01-13 18:38:00,12.0,5.0,30.26,WNW,292,5.3,5.3,73,0.00,,,0.00,VWS V14.01,2013-01-14 00:38:00,
2013-01-13 18:39:00,12.0,5.0,30.26,WNW,292,14.9,14.9,73,0.00,,,0.00,VWS V14.01,2013-01-14 00:39:00,
2013-01-13 18:40:00,12.0,5.0,30.26,WNW,292,14.9,14.9,73,0.00,,,0.00,VWS V14.01,2013-01-14 00:40:00,
2013-01-13 18:41:00,12.0,5.0,30.26,WNW,292,7.6,14.9,73,0.00,,,0.00,VWS V14.01,2013-01-14 00:41:00,
2013-01-13 18:42:00,12.0,5.0,30.26,WNW,292,7.6,7.6,73,0.00,,,0.00,VWS V14.01,2013-01-14 00:42:00,
2013-01-13 18:43:00,12.0,5.0,30.27,West,270,1.7,7.6,73,0.00,,,0.00,VWS V14.01,2013-01-14 00:43:00,
2013-01-13 18:44:00,12.0,5.0,30.27,West,270,1.7,1.7,73,0.00,,,0.00,VWS V14.01,2013-01-14 00:44:00,
2013-01-13 18:45:00,12.0,5.0,30.27,West,270,8.5,8.5,73,0.00,,,0.00,VWS V14.01,2013-01-14 00:45:00,
2013-01-13 18:46:00,12.0,5.0,30.27,West,270,8.5,8.5,73,0.00,,,0.00,VWS V14.01,2013-01-14 00:46:00,
2013-01-13 18:47:00,12.0,5.0,30.27,West,270,8.5,8.5,73,0.00,,,0.00,VWS V14.01,2013-01-14 00:47:00,
2013-01-13 18:48:00,12.0,5.0,30.27,West,270,6.7,6.7,73,0.00,,,0.00,VWS V14.01,2013-01-14 00:48:00,
2013-01-13 18:49:00,12.0,5.0,30.28,West,270,6.7,6.7,73,0.00,,,0.00,VWS V14.01,2013-01-14 00:49:00,
2013-01-13 18:50:00,12.0,5.0,30.27,West,270,1.1,6.7,73,0.00,,,0.00,VWS V14.01,2013-01-14 00:50:00,
2013-01-13 18:51:00,12.0,5.0,30.27,West,270,1.1,1.1,73,0.00,,,0.00,VWS V14.01,2013-01-14 00:51:00,
2013-01-13 18:52:00,12.0,5.0,30.27,West,270,1.1,1.1,73,0.00,,,0.00,VWS V14.01,2013-01-14 00:52:00,
2013-01-13 18:53:00,12.0,5.0,30.27,West,270,4.2,4.2,73,0.00,,,0.00,VWS V14.01,2013-01-14 00:53:00,
2013-01-13 18:54:00,11.8,5.1,30.27,West,270,1.5,4.2,74,0.00,,,0.00,VWS V14.01,2013-01-14 00:54:00,
2013-01-13 18:55:00,11.8,5.1,30.27,West,270,1.5,1.5,74,0.00,,,0.00,VWS V14.01,2013-01-14 00:55:00,
2013-01-13 18:56:00,11.8,5.1,30.27,WNW,292,11.1,11.1,74,0.00,,,0.00,VWS V14.01,2013-01-14 00:56:00,
2013-01-13 18:57:00,11.8,5.1,30.27,WNW,292,11.1,11.1,74,0.00,,,0.00,VWS V14.01,2013-01-14 00:57:00,
2013-01-13 18:58:00,11.6,5.2,30.27,WNW,292,8.2,11.1,75,0.00,,,0.00,VWS V14.01,2013-01-14 00:58:00,
2013-01-13 18:59:00,11.6,5.2,30.26,WNW,292,8.2,8.2,75,0.00,,,0.00,VWS V14.01,2013-01-14 00:59:00,
2013-01-13 19:00:00,11.6,5.2,30.26,West,270,1.3,8.2,75,0.00,,,0.00,VWS V14.01,2013-01-14 01:00:00,
2013-01-13 19:01:00,11.6,5.2,30.26,West,270,1.3,1.3,75,0.00,,,0.00,VWS V14.01,2013-01-14 01:01:00,
2013-01-13 19:02:00,11.6,5.2,30.26,West,270,1.3,1.3,75,0.00,,,0.00,VWS V14.01,2013-01-14 01:02:00,
2013-01-13 19:03:00,11.6,4.9,30.26,WNW,292,10.5,10.5,74,0.00,,,0.00,VWS V14.01,2013-01-14 01:03:00,
2013-01-13 19:04:00,11.8,5.1,30.26,WNW,292,10.5,10.5,74,0.00,,,0.00,VWS V14.01,2013-01-14 01:04:00,
2013-01-13 19:05:00,11.8,5.1,30.26,WNW,292,3.8,10.5,74,0.00,,,0.00,VWS V14.01,2013-01-14 01:05:00,
2013-01-13 19:06:00,11.8,5.1,30.27,WNW,292,3.8,3.8,74,0.00,,,0.00,VWS V14.01,2013-01-14 01:06:00,
2013-01-13 19:07:00,11.8,5.1,30.27,WNW,292,3.8,3.8,74,0.00,,,0.00,VWS V14.01,2013-01-14 01:07:00,
2013-01-13 19:08:00,11.8,5.1,30.27,West,270,5.1,5.1,74,0.00,,,0.00,VWS V14.01,2013-01-14 01:08:00,
2013-01-13 19:09:00,11.8,5.1,30.27,WNW,292,12.5,12.5,74,0.00,,,0.00,VWS V14.01,2013-01-14 01:09:00,
2013-01-13 19:10:00,11.8,5.1,30.27,WNW,292,12.5,12.5,74,0.00,,,0.00,VWS V14.01,2013-01-14 01:10:00,
2013-01-13 19:11:00,11.8,4.8,30.27,WNW,292,5.1,12.5,73,0.00,,,0.00,VWS V14.01,2013-01-14 01:11:00,
2013-01-13 19:12:00,11.8,4.8,30.27,WNW,292,5.1,5.1,73,0.00,,,0.00,VWS V14.01,2013-01-14 01:12:00,
2013-01-13 19:13:00,11.8,5.1,30.28,West,270,8.5,8.5,74,0.00,,,0.00,VWS V14.01,2013-01-14 01:13:00,
2013-01-13 19:14:00,11.8,5.1,30.28,West,270,8.5,8.5,74,0.00,,,0.00,VWS V14.01,2013-01-14 01:14:00,
2013-01-13 19:15:00,11.8,5.1,30.28,WNW,292,4.9,8.5,74,0.00,,,0.00,VWS V14.01,2013-01-14 01:15:00,
2013-01-13 19:16:00,11.8,5.1,30.27,WNW,292,4.9,4.9,74,0.00,,,0.00,VWS V14.01,2013-01-14 01:16:00,
2013-01-13 19:17:00,11.8,5.1,30.27,WNW,292,4.9,4.9,74,0.00,,,0.00,VWS V14.01,2013-01-14 01:17:00,
2013-01-13 19:18:00,11.8,5.1,30.28,West,270,0.8,0.8,74,0.00,,,0.00,VWS V14.01,2013-01-14 01:18:00,
2013-01-13 19:19:00,11.8,5.1,30.28,West,270,0.8,0.8,74,0.00,,,0.00,VWS V14.01,2013-01-14 01:19:00,
2013-01-13 19:20:00,11.8,5.1,30.28,West,270,4.2,4.2,74,0.00,,,0.00,VWS V14.01,2013-01-14 01:20:00,
2013-01-13 19:21:00,11.8,5.1,30.28,West,270,4.2,4.2,74,0.00,,,0.00,VWS V14.01,2013-01-14 01:21:00,
2013-01-13 19:22:00,11.8,5.1,30.28,West,270,4.2,4.2,74,0.00,,,0.00,VWS V14.01,2013-01-14 01:22:00,
2013-01-13 19:23:00,11.8,5.1,30.28,West,270,6.7,6.7,74,0.00,,,0.00,VWS V14.01,2013-01-14 01:23:00,
2013-01-13 19:24:00,11.8,4.8,30.28,West,270,5.5,6.7,73,0.00,,,0.00,VWS V14.01,2013-01-14 01:24:00,
2013-01-13 19:25:00,11.8,4.8,30.28,West,270,5.5,5.5,73,0.00,,,0.00,VWS V14.01,2013-01-14 01:25:00,
2013-01-13 19:26:00,11.8,5.1,30.28,West,270,5.3,5.5,74,0.00,,,0.00,VWS V14.01,2013-01-14 01:26:00,
2013-01-13 19:27:00,11.8,5.1,30.28,West,270,5.3,5.3,74,0.00,,,0.00,VWS V14.01,2013-01-14 01:27:00,
2013-01-13 19:28:00,11.8,5.1,30.27,West,270,3.5,5.3,74,0.00,,,0.00,VWS V14.01,2013-01-14 01:28:00,
2013-01-13 19:29:00,11.8,5.1,30.27,West,270,3.5,3.5,74,0.00,,,0.00,VWS V14.01,2013-01-14 01:29:00,
2013-01-13 19:30:00,11.6,4.9,30.27,West,270,2.0,3.5,74,0.00,,,0.00,VWS V14.01,2013-01-14 01:30:00,
2013-01-13 19:31:00,11.6,4.9,30.28,West,270,2.0,2.0,74,0.00,,,0.00,VWS V14.01,2013-01-14 01:31:00,
2013-01-13 19:32:00,11.6,4.9,30.28,West,270,2.0,2.0,74,0.00,,,0.00,VWS V14.01,2013-01-14 01:32:00,
2013-01-13 19:33:00,11.6,4.9,30.27,West,270,12.7,12.7,74,0.00,,,0.00,VWS V14.01,2013-01-14 01:33:00,
2013-01-13 19:34:00,11.6,4.9,30.28,West,270,6.0,12.7,74,0.00,,,0.00,VWS V14.01,2013-01-14 01:34:00,
2013-01-13 19:35:00,11.6,4.9,30.28,West,270,6.0,6.0,74,0.00,,,0.00,VWS V14.01,2013-01-14 01:35:00,
2013-01-13 19:36:00,11.6,4.9,30.28,West,270,6.0,6.0,74,0.00,,,0.00,VWS V14.01,2013-01-14 01:36:00,
2013-01-13 19:37:00,11.6,4.9,30.28,West,270,6.0,6.0,74,0.00,,,0.00,VWS V14.01,2013-01-14 01:37:00,
2013-01-13 19:38:00,11.6,4.9,30.27,West,270,4.4,4.4,74,0.00,,,0.00,VWS V14.01,2013-01-14 01:38:00,
2013-01-13 19:39:00,11.6,4.9,30.28,West,270,1.7,4.4,74,0.00,,,0.00,VWS V14.01,2013-01-14 01:39:00,
2013-01-13 19:40:00,11.6,4.9,30.28,West,270,1.7,1.7,74,0.00,,,0.00,VWS V14.01,2013-01-14 01:40:00,
2013-01-13 19:41:00,11.4,5.0,30.28,WNW,292,6.2,6.2,75,0.00,,,0.00,VWS V14.01,2013-01-14 01:41:00,
2013-01-13 19:42:00,11.4,5.0,30.28,WNW,292,6.2,6.2,75,0.00,,,0.00,VWS V14.01,2013-01-14 01:42:00,
2013-01-13 19:43:00,11.4,5.0,30.28,NW,315,13.6,13.6,75,0.00,,,0.00,VWS V14.01,2013-01-14 01:43:00,
2013-01-13 19:44:00,11.4,5.0,30.28,NW,315,13.6,13.6,75,0.00,,,0.00,VWS V14.01,2013-01-14 01:44:00,
2013-01-13 19:45:00,11.4,5.0,30.28,WNW,292,2.6,13.6,75,0.00,,,0.00,VWS V14.01,2013-01-14 01:45:00,
2013-01-13 19:46:00,11.4,5.0,30.28,WNW,292,2.6,2.6,75,0.00,,,0.00,VWS V14.01,2013-01-14 01:46:00,
2013-01-13 19:47:00,11.4,5.0,30.28,WNW,292,2.6,2.6,75,0.00,,,0.00,VWS V14.01,2013-01-14 01:47:00,
2013-01-13 19:48:00,11.4,5.0,30.28,West,270,3.8,3.8,75,0.00,,,0.00,VWS V14.01,2013-01-14 01:48:00,
2013-01-13 19:49:00,11.4,5.0,30.28,West,270,1.7,3.8,75,0.00,,,0.00,VWS V14.01,2013-01-14 01:49:00,
2013-01-13 19:50:00,11.4,5.0,30.28,West,270,1.7,1.7,75,0.00,,,0.00,VWS V14.01,2013-01-14 01:50:00,
2013-01-13 19:51:00,11.4,5.0,30.29,West,270,1.7,1.7,75,0.00,,,0.00,VWS V14.01,2013-01-14 01:51:00,
2013-01-13 19:52:00,11.4,5.0,30.29,West,270,1.7,1.7,75,0.00,,,0.00,VWS V14.01,2013-01-14 01:52:00,
2013-01-13 19:53:00,11.3,4.9,30.28,West,270,4.2,4.2,75,0.00,,,0.00,VWS V14.01,2013-01-14 01:53:00,
2013-01-13 19:54:00,11.3,4.9,30.29,West,270,0.0,4.2,75,0.00,,,0.00,VWS V14.01,2013-01-14 01:54:00,
2013-01-13 19:55:00,11.3,4.9,30.28,West,270,0.0,0.0,75,0.00,,,0.00,VWS V14.01,2013-01-14 01:55:00,
2013-01-13 19:56:00,11.3,4.9,30.29,West,270,2.0,2.0,75,0.00,,,0.00,VWS V14.01,2013-01-14 01:56:00,
2013-01-13 19:57:00,11.3,4.9,30.29,West,270,2.0,2.0,75,0.00,,,0.00,VWS V14.01,2013-01-14 01:57:00,
2013-01-13 19:58:00,11.3,4.9,30.29,West,270,4.4,4.4,75,0.00,,,0.00,VWS V14.01,2013-01-14 01:58:00,
2013-01-13 19:59:00,11.3,4.9,30.29,West,270,4.4,4.4,75,0.00,,,0.00,VWS V14.01,2013-01-14 01:59:00,
2013-01-13 20:00:00,11.1,4.7,30.29,WNW,292,4.6,4.6,75,0.00,,,0.00,VWS V14.01,2013-01-14 02:00:00,
2013-01-13 20:01:00,11.1,4.7,30.29,WNW,292,4.6,4.6,75,0.00,,,0.00,VWS V14.01,2013-01-14 02:01:00,
2013-01-13 20:02:00,11.1,4.7,30.29,WNW,292,4.6,4.6,75,0.00,,,0.00,VWS V14.01,2013-01-14 02:02:00,
2013-01-13 20:03:00,11.1,5.0,30.29,West,270,3.1,3.1,76,0.00,,,0.00,VWS V14.01,2013-01-14 02:03:00,
2013-01-13 20:04:00,11.1,5.0,30.29,WNW,292,8.0,8.0,76,0.00,,,0.00,VWS V14.01,2013-01-14 02:04:00,
2013-01-13 20:05:00,11.1,5.0,30.29,WNW,292,8.0,8.0,76,0.00,,,0.00,VWS V14.01,2013-01-14 02:05:00,
2013-01-13 20:06:00,11.1,5.0,30.29,WNW,292,8.0,8.0,76,0.00,,,0.00,VWS V14.01,2013-01-14 02:06:00,
2013-01-13 20:07:00,11.1,5.0,30.29,WNW,292,8.0,8.0,76,0.00,,,0.00,VWS V14.01,2013-01-14 02:07:00,
2013-01-13 20:08:00,11.1,5.0,30.29,West,270,0.0,0.0,76,0.00,,,0.00,VWS V14.01,2013-01-14 02:08:00,
2013-01-13 20:09:00,11.1,5.0,30.30,NW,315,6.0,6.0,76,0.00,,,0.00,VWS V14.01,2013-01-14 02:09:00,
2013-01-13 20:10:00,11.1,5.0,30.29,NW,315,6.0,6.0,76,0.00,,,0.00,VWS V14.01,2013-01-14 02:10:00,
2013-01-13 20:11:00,11.1,5.0,30.29,West,270,3.8,6.0,76,0.00,,,0.00,VWS V14.01,2013-01-14 02:11:00,
2013-01-13 20:12:00,11.1,5.0,30.29,West,270,3.8,3.8,76,0.00,,,0.00,VWS V14.01,2013-01-14 02:12:00,
2013-01-13 20:13:00,11.1,5.0,30.29,West,270,5.3,5.3,76,0.00,,,0.00,VWS V14.01,2013-01-14 02:13:00,
2013-01-13 20:14:00,11.1,5.0,30.29,West,270,5.3,5.3,76,0.00,,,0.00,VWS V14.01,2013-01-14 02:14:00,
2013-01-13 20:15:00,10.9,4.8,30.30,WNW,292,2.6,5.3,76,0.00,,,0.00,VWS V14.01,2013-01-14 02:15:00,
2013-01-13 20:16:00,10.9,4.8,30.29,WNW,292,2.6,2.6,76,0.00,,,0.00,VWS V14.01,2013-01-14 02:16:00,
2013-01-13 20:17:00,10.9,4.8,30.29,WNW,292,2.6,2.6,76,0.00,,,0.00,VWS V14.01,2013-01-14 02:17:00,
2013-01-13 20:18:00,10.9,4.8,30.30,West,270,2.4,2.4,76,0.00,,,0.00,VWS V14.01,2013-01-14 02:18:00,
2013-01-13 20:19:00,10.9,4.8,30.30,West,270,2.6,2.6,76,0.00,,,0.00,VWS V14.01,2013-01-14 02:19:00,
2013-01-13 20:20:00,10.7,4.6,30.30,West,270,2.6,2.6,76,0.00,,,0.00,VWS V14.01,2013-01-14 02:20:00,
2013-01-13 20:21:00,10.7,4.6,30.30,West,270,2.6,2.6,76,0.00,,,0.00,VWS V14.01,2013-01-14 02:21:00,
2013-01-13 20:22:00,10.7,4.6,30.30,West,270,2.6,2.6,76,0.00,,,0.00,VWS V14.01,2013-01-14 02:22:00,
2013-01-13 20:23:00,10.9,5.1,30.30,West,270,2.4,2.4,77,0.00,,,0.00,VWS V14.01,2013-01-14 02:23:00,
2013-01-13 20:24:00,10.7,4.9,30.30,WNW,292,4.4,4.4,77,0.00,,,0.00,VWS V14.01,2013-01-14 02:24:00,
2013-01-13 20:25:00,10.7,4.9,30.30,WNW,292,4.4,4.4,77,0.00,,,0.00,VWS V14.01,2013-01-14 02:25:00,
2013-01-13 20:26:00,10.7,4.9,30.30,WNW,292,5.8,5.8,77,0.00,,,0.00,VWS V14.01,2013-01-14 02:26:00,
2013-01-13 20:27:00,10.7,4.9,30.30,WNW,292,5.8,5.8,77,0.00,,,0.00,VWS V14.01,2013-01-14 02:27:00,
2013-01-13 20:28:00,10.7,4.9,30.30,WNW,292,2.6,5.8,77,0.00,,,0.00,VWS V14.01,2013-01-14 02:28:00,
2013-01-13 20:29:00,10.7,4.9,30.30,WNW,292,2.6,2.6,77,0.00,,,0.00,VWS V14.01,2013-01-14 02:29:00,
2013-01-13 20:30:00,10.7,4.9,30.30,WNW,292,7.6,7.6,77,0.00,,,0.00,VWS V14.01,2013-01-14 02:30:00,
2013-01-13 20:31:00,10.7,4.9,30.30,WNW,292,7.6,7.6,77,0.00,,,0.00,VWS V14.01,2013-01-14 02:31:00,
2013-01-13 20:32:00,10.7,4.9,30.30,WNW,292,7.6,7.6,77,0.00,,,0.00,VWS V14.01,2013-01-14 02:32:00,
2013-01-13 20:33:00,10.7,4.9,30.30,West,270,4.2,4.2,77,0.00,,,0.00,VWS V14.01,2013-01-14 02:33:00,
2013-01-13 20:34:00,10.7,4.9,30.29,WNW,292,7.1,7.1,77,0.00,,,0.00,VWS V14.01,2013-01-14 02:34:00,
2013-01-13 20:35:00,10.7,4.9,30.30,WNW,292,7.1,7.1,77,0.00,,,0.00,VWS V14.01,2013-01-14 02:35:00,
2013-01-13 20:36:00,10.7,4.9,30.30,WNW,292,7.1,7.1,77,0.00,,,0.00,VWS V14.01,2013-01-14 02:36:00,
2013-01-13 20:37:00,10.7,4.9,30.30,WNW,292,7.1,7.1,77,0.00,,,0.00,VWS V14.01,2013-01-14 02:37:00,
2013-01-13 20:38:00,10.7,4.9,30.29,WNW,292,6.9,6.9,77,0.00,,,0.00,VWS V14.01,2013-01-14 02:38:00,
2013-01-13 20:39:00,10.9,5.1,30.30,WNW,292,4.6,6.9,77,0.00,,,0.00,VWS V14.01,2013-01-14 02:39:00,
2013-01-13 20:40:00,10.9,5.1,30.30,WNW,292,4.6,4.6,77,0.00,,,0.00,VWS V14.01,2013-01-14 02:40:00,
2013-01-13 20:41:00,10.9,5.1,30.30,WNW,292,7.3,7.3,77,0.00,,,0.00,VWS V14.01,2013-01-14 02:41:00,
2013-01-13 20:42:00,10.9,5.1,30.30,WNW,292,7.3,7.3,77,0.00,,,0.00,VWS V14.01,2013-01-14 02:42:00,
2013-01-13 20:43:00,10.9,5.1,30.29,WNW,292,4.6,7.3,77,0.00,,,0.00,VWS V14.01,2013-01-14 02:43:00,
2013-01-13 20:44:00,10.9,5.1,30.29,WNW,292,4.6,4.6,77,0.00,,,0.00,VWS V14.01,2013-01-14 02:44:00,
2013-01-13 20:45:00,10.9,5.1,30.29,West,270,5.8,5.8,77,0.00,,,0.00,VWS V14.01,2013-01-14 02:45:00,
2013-01-13 20:46:00,10.9,5.1,30.30,West,270,5.8,5.8,77,0.00,,,0.00,VWS V14.01,2013-01-14 02:46:00,
2013-01-13 20:47:00,10.9,5.1,30.30,West,270,5.8,5.8,77,0.00,,,0.00,VWS V14.01,2013-01-14 02:47:00,
2013-01-13 20:48:00,11.1,5.3,30.30,WNW,292,6.9,6.9,77,0.00,,,0.00,VWS V14.01,2013-01-14 02:48:00,
2013-01-13 20:49:00,11.1,5.3,30.30,WNW,292,5.8,6.9,77,0.00,,,0.00,VWS V14.01,2013-01-14 02:49:00,
2013-01-13 20:50:00,10.9,5.1,30.30,WNW,292,5.8,5.8,77,0.00,,,0.00,VWS V14.01,2013-01-14 02:50:00,
2013-01-13 20:51:00,10.9,5.1,30.30,WNW,292,5.8,5.8,77,0.00,,,0.00,VWS V14.01,2013-01-14 02:51:00,
2013-01-13 20:52:00,10.9,5.1,30.30,WNW,292,5.8,5.8,77,0.00,,,0.00,VWS V14.01,2013-01-14 02:52:00,
2013-01-13 20:53:00,10.9,5.1,30.30,West,270,5.8,5.8,77,0.00,,,0.00,VWS V14.01,2013-01-14 02:53:00,
2013-01-13 20:54:00,10.9,5.1,30.30,West,270,5.3,5.8,77,0.00,,,0.00,VWS V14.01,2013-01-14 02:54:00,
2013-01-13 20:55:00,10.9,5.1,30.30,West,270,5.3,5.3,77,0.00,,,0.00,VWS V14.01,2013-01-14 02:55:00,
2013-01-13 20:56:00,10.9,5.1,30.30,West,270,1.5,5.3,77,0.00,,,0.00,VWS V14.01,2013-01-14 02:56:00,
2013-01-13 20:57:00,10.9,5.1,30.30,West,270,1.5,1.5,77,0.00,,,0.00,VWS V14.01,2013-01-14 02:57:00,
2013-01-13 20:58:00,10.9,5.1,30.30,WNW,292,5.8,5.8,77,0.00,,,0.00,VWS V14.01,2013-01-14 02:58:00,
2013-01-13 20:59:00,10.9,5.1,30.30,WNW,292,5.8,5.8,77,0.00,,,0.00,VWS V14.01,2013-01-14 02:59:00,
2013-01-13 21:00:00,10.9,5.1,30.30,West,270,5.1,5.8,77,0.00,,,0.00,VWS V14.01,2013-01-14 03:00:00,
2013-01-13 21:01:00,10.9,5.1,30.30,West,270,5.1,5.1,77,0.00,,,0.00,VWS V14.01,2013-01-14 03:01:00,
2013-01-13 21:02:00,10.9,5.1,30.30,West,270,5.1,5.1,77,0.00,,,0.00,VWS V14.01,2013-01-14 03:02:00,
2013-01-13 21:03:00,10.9,5.1,30.30,West,270,4.6,4.6,77,0.00,,,0.00,VWS V14.01,2013-01-14 03:03:00,
2013-01-13 21:04:00,10.9,5.1,30.30,West,270,0.0,4.6,77,0.00,,,0.00,VWS V14.01,2013-01-14 03:04:00,
2013-01-13 21:05:00,10.9,5.1,30.30,West,270,0.0,0.0,77,0.00,,,0.00,VWS V14.01,2013-01-14 03:05:00,
2013-01-13 21:06:00,10.9,5.1,30.30,West,270,0.0,0.0,77,0.00,,,0.00,VWS V14.01,2013-01-14 03:06:00,
2013-01-13 21:07:00,10.9,5.1,30.30,West,270,0.0,0.0,77,0.00,,,0.00,VWS V14.01,2013-01-14 03:07:00,
2013-01-13 21:08:00,10.9,5.1,30.30,West,270,3.5,3.5,77,0.00,,,0.00,VWS V14.01,2013-01-14 03:08:00,
2013-01-13 21:09:00,10.9,5.1,30.30,WNW,292,6.0,6.0,77,0.00,,,0.00,VWS V14.01,2013-01-14 03:09:00,
2013-01-13 21:10:00,10.9,5.1,30.30,WNW,292,6.0,6.0,77,0.00,,,0.00,VWS V14.01,2013-01-14 03:10:00,
2013-01-13 21:11:00,10.9,5.1,30.30,WNW,292,3.3,6.0,77,0.00,,,0.00,VWS V14.01,2013-01-14 03:11:00,
2013-01-13 21:12:00,10.9,5.1,30.30,WNW,292,3.3,3.3,77,0.00,,,0.00,VWS V14.01,2013-01-14 03:12:00,
2013-01-13 21:13:00,10.9,5.1,30.30,West,270,5.1,5.1,77,0.00,,,0.00,VWS V14.01,2013-01-14 03:13:00,
2013-01-13 21:14:00,10.9,5.1,30.30,West,270,5.1,5.1,77,0.00,,,0.00,VWS V14.01,2013-01-14 03:14:00,
2013-01-13 21:15:00,10.9,5.1,30.30,West,270,4.4,5.1,77,0.00,,,0.00,VWS V14.01,2013-01-14 03:15:00,
2013-01-13 21:16:00,10.9,5.1,30.30,West,270,4.4,4.4,77,0.00,,,0.00,VWS V14.01,2013-01-14 03:16:00,
2013-01-13 21:17:00,10.9,5.1,30.30,West,270,4.4,4.4,77,0.00,,,0.00,VWS V14.01,2013-01-14 03:17:00,
2013-01-13 21:18:00,10.9,5.1,30.30,West,270,3.5,3.5,77,0.00,,,0.00,VWS V14.01,2013-01-14 03:18:00,
2013-01-13 21:19:00,10.9,5.1,30.30,WNW,292,5.3,5.3,77,0.00,,,0.00,VWS V14.01,2013-01-14 03:19:00,
2013-01-13 21:20:00,10.9,5.1,30.30,WNW,292,5.3,5.3,77,0.00,,,0.00,VWS V14.01,2013-01-14 03:20:00,
2013-01-13 21:21:00,10.9,5.1,30.30,WNW,292,5.3,5.3,77,0.00,,,0.00,VWS V14.01,2013-01-14 03:21:00,
2013-01-13 21:22:00,10.9,5.1,30.30,WNW,292,5.3,5.3,77,0.00,,,0.00,VWS V14.01,2013-01-14 03:22:00,
2013-01-13 21:23:00,10.9,5.1,30.30,WNW,292,1.3,1.3,77,0.00,,,0.00,VWS V14.01,2013-01-14 03:23:00,
2013-01-13 21:24:00,10.9,5.1,30.30,West,270,1.7,1.7,77,0.00,,,0.00,VWS V14.01,2013-01-14 03:24:00,
2013-01-13 21:25:00,10.9,5.1,30.30,West,270,1.7,1.7,77,0.00,,,0.00,VWS V14.01,2013-01-14 03:25:00,
2013-01-13 21:26:00,10.9,5.1,30.31,West,270,2.0,2.0,77,0.00,,,0.00,VWS V14.01,2013-01-14 03:26:00,
2013-01-13 21:27:00,10.9,5.1,30.31,West,270,2.0,2.0,77,0.00,,,0.00,VWS V14.01,2013-01-14 03:27:00,
2013-01-13 21:28:00,10.9,5.1,30.30,West,270,2.9,2.9,77,0.00,,,0.00,VWS V14.01,2013-01-14 03:28:00,
2013-01-13 21:29:00,10.9,5.1,30.30,West,270,2.9,2.9,77,0.00,,,0.00,VWS V14.01,2013-01-14 03:29:00,
2013-01-13 21:30:00,10.9,5.1,30.30,WNW,292,6.9,6.9,77,0.00,,,0.00,VWS V14.01,2013-01-14 03:30:00,
2013-01-13 21:31:00,10.9,5.1,30.30,WNW,292,6.9,6.9,77,0.00,,,0.00,VWS V14.01,2013-01-14 03:31:00,
2013-01-13 21:32:00,10.9,5.1,30.30,WNW,292,6.9,6.9,77,0.00,,,0.00,VWS V14.01,2013-01-14 03:32:00,
2013-01-13 21:33:00,10.9,5.1,30.30,West,270,2.6,2.6,77,0.00,,,0.00,VWS V14.01,2013-01-14 03:33:00,
2013-01-13 21:34:00,10.9,5.1,30.30,West,270,0.4,2.6,77,0.00,,,0.00,VWS V14.01,2013-01-14 03:34:00,
2013-01-13 21:35:00,10.7,4.9,30.30,West,270,0.4,0.4,77,0.00,,,0.00,VWS V14.01,2013-01-14 03:35:00,
2013-01-13 21:36:00,10.7,4.9,30.30,West,270,0.4,0.4,77,0.00,,,0.00,VWS V14.01,2013-01-14 03:36:00,
2013-01-13 21:37:00,10.7,4.9,30.30,West,270,0.4,0.4,77,0.00,,,0.00,VWS V14.01,2013-01-14 03:37:00,
2013-01-13 21:38:00,10.7,4.9,30.30,West,270,2.9,2.9,77,0.00,,,0.00,VWS V14.01,2013-01-14 03:38:00,
2013-01-13 21:39:00,10.5,5.0,30.30,West,270,2.0,2.9,78,0.00,,,0.00,VWS V14.01,2013-01-14 03:39:00,
2013-01-13 21:40:00,10.5,5.0,30.30,West,270,2.0,2.0,78,0.00,,,0.00,VWS V14.01,2013-01-14 03:40:00,
2013-01-13 21:41:00,10.5,5.0,30.31,West,270,2.2,2.2,78,0.00,,,0.00,VWS V14.01,2013-01-14 03:41:00,
2013-01-13 21:42:00,10.5,5.0,30.31,West,270,2.2,2.2,78,0.00,,,0.00,VWS V14.01,2013-01-14 03:42:00,
2013-01-13 21:43:00,10.5,5.0,30.30,West,270,1.5,2.2,78,0.00,,,0.00,VWS V14.01,2013-01-14 03:43:00,
2013-01-13 21:44:00,10.5,5.0,30.31,West,270,1.5,1.5,78,0.00,,,0.00,VWS V14.01,2013-01-14 03:44:00,
2013-01-13 21:45:00,10.5,5.0,30.31,West,270,4.6,4.6,78,0.00,,,0.00,VWS V14.01,2013-01-14 03:45:00,
2013-01-13 21:46:00,10.5,5.0,30.31,West,270,4.6,4.6,78,0.00,,,0.00,VWS V14.01,2013-01-14 03:46:00,
2013-01-13 21:47:00,10.5,5.0,30.31,West,270,4.6,4.6,78,0.00,,,0.00,VWS V14.01,2013-01-14 03:47:00,
2013-01-13 21:48:00,10.5,5.0,30.30,WNW,292,0.6,0.6,78,0.00,,,0.00,VWS V14.01,2013-01-14 03:48:00,
2013-01-13 21:49:00,10.5,5.0,30.31,WNW,292,1.5,1.5,78,0.00,,,0.00,VWS V14.01,2013-01-14 03:49:00,
2013-01-13 21:50:00,10.5,5.0,30.31,WNW,292,1.5,1.5,78,0.00,,,0.00,VWS V14.01,2013-01-14 03:50:00,
2013-01-13 21:51:00,10.5,5.0,30.31,WNW,292,3.3,3.3,78,0.00,,,0.00,VWS V14.01,2013-01-14 03:51:00,
2013-01-13 21:52:00,10.5,5.0,30.31,WNW,292,3.3,3.3,78,0.00,,,0.00,VWS V14.01,2013-01-14 03:52:00,
2013-01-13 21:53:00,10.5,5.0,30.31,WNW,292,3.3,3.3,78,0.00,,,0.00,VWS V14.01,2013-01-14 03:53:00,
2013-01-13 21:54:00,10.5,5.0,30.31,WNW,292,5.1,5.1,78,0.00,,,0.00,VWS V14.01,2013-01-14 03:54:00,
2013-01-13 21:55:00,10.5,5.0,30.31,WNW,292,5.1,5.1,78,0.00,,,0.00,VWS V14.01,2013-01-14 03:55:00,
2013-01-13 21:56:00,10.5,5.0,30.30,West,270,0.0,5.1,78,0.00,,,0.00,VWS V14.01,2013-01-14 03:56:00,
2013-01-13 21:57:00,10.5,5.0,30.30,West,270,0.0,0.0,78,0.00,,,0.00,VWS V14.01,2013-01-14 03:57:00,
2013-01-13 21:58:00,10.5,5.0,30.31,West,270,1.7,1.7,78,0.00,,,0.00,VWS V14.01,2013-01-14 03:58:00,
2013-01-13 21:59:00,10.5,5.0,30.31,West,270,1.7,1.7,78,0.00,,,0.00,VWS V14.01,2013-01-14 03:59:00,
2013-01-13 22:00:00,10.5,5.0,30.31,West,270,4.0,4.0,78,0.00,,,0.00,VWS V14.01,2013-01-14 04:00:00,
2013-01-13 22:01:00,10.5,5.0,30.30,West,270,4.0,4.0,78,0.00,,,0.00,VWS V14.01,2013-01-14 04:01:00,
2013-01-13 22:02:00,10.5,5.0,30.30,West,270,4.0,4.0,78,0.00,,,0.00,VWS V14.01,2013-01-14 04:02:00,
2013-01-13 22:03:00,10.5,5.0,30.31,West,270,3.8,3.8,78,0.00,,,0.00,VWS V14.01,2013-01-14 04:03:00,
2013-01-13 22:04:00,10.5,5.0,30.31,WNW,292,5.3,5.3,78,0.00,,,0.00,VWS V14.01,2013-01-14 04:04:00,
2013-01-13 22:05:00,10.5,5.0,30.31,WNW,292,5.3,5.3,78,0.00,,,0.00,VWS V14.01,2013-01-14 04:05:00,
2013-01-13 22:06:00,10.5,5.0,30.31,WNW,292,5.3,5.3,78,0.00,,,0.00,VWS V14.01,2013-01-14 04:06:00,
2013-01-13 22:07:00,10.5,5.0,30.31,WNW,292,5.3,5.3,78,0.00,,,0.00,VWS V14.01,2013-01-14 04:07:00,
2013-01-13 22:08:00,10.5,5.0,30.31,West,270,5.3,5.3,78,0.00,,,0.00,VWS V14.01,2013-01-14 04:08:00,
2013-01-13 22:09:00,10.5,5.0,30.31,West,270,4.6,5.3,78,0.00,,,0.00,VWS V14.01,2013-01-14 04:09:00,
2013-01-13 22:10:00,10.5,5.0,30.31,West,270,4.6,4.6,78,0.00,,,0.00,VWS V14.01,2013-01-14 04:10:00,
2013-01-13 22:11:00,10.5,5.0,30.31,West,270,0.8,4.6,78,0.00,,,0.00,VWS V14.01,2013-01-14 04:11:00,
2013-01-13 22:12:00,10.5,5.0,30.31,West,270,0.8,0.8,78,0.00,,,0.00,VWS V14.01,2013-01-14 04:12:00,
2013-01-13 22:13:00,10.5,5.3,30.31,West,270,7.6,7.6,79,0.00,,,0.00,VWS V14.01,2013-01-14 04:13:00,
2013-01-13 22:14:00,10.5,5.3,30.31,West,270,7.6,7.6,79,0.00,,,0.00,VWS V14.01,2013-01-14 04:14:00,
2013-01-13 22:15:00,10.5,5.0,30.31,WNW,292,6.0,7.6,78,0.00,,,0.00,VWS V14.01,2013-01-14 04:15:00,
2013-01-13 22:16:00,10.5,5.0,30.31,WNW,292,6.0,6.0,78,0.00,,,0.00,VWS V14.01,2013-01-14 04:16:00,
2013-01-13 22:17:00,10.5,5.0,30.31,WNW,292,6.0,6.0,78,0.00,,,0.00,VWS V14.01,2013-01-14 04:17:00,
2013-01-13 22:18:00,10.5,5.3,30.31,WNW,292,7.1,7.1,79,0.00,,,0.00,VWS V14.01,2013-01-14 04:18:00,
2013-01-13 22:19:00,10.5,5.3,30.31,West,270,7.8,7.8,79,0.00,,,0.00,VWS V14.01,2013-01-14 04:19:00,
2013-01-13 22:20:00,10.5,5.3,30.31,West,270,7.8,7.8,79,0.00,,,0.00,VWS V14.01,2013-01-14 04:20:00,
2013-01-13 22:21:00,10.5,5.0,30.31,West,270,7.8,7.8,78,0.00,,,0.00,VWS V14.01,2013-01-14 04:21:00,
2013-01-13 22:22:00,10.5,5.0,30.31,West,270,7.8,7.8,78,0.00,,,0.00,VWS V14.01,2013-01-14 04:22:00,
2013-01-13 22:23:00,10.5,5.0,30.31,West,270,5.5,5.5,78,0.00,,,0.00,VWS V14.01,2013-01-14 04:23:00,
2013-01-13 22:24:00,10.5,5.0,30.31,West,270,3.8,5.5,78,0.00,,,0.00,VWS V14.01,2013-01-14 04:24:00,
2013-01-13 22:25:00,10.5,5.0,30.31,West,270,3.8,3.8,78,0.00,,,0.00,VWS V14.01,2013-01-14 04:25:00,
2013-01-13 22:26:00,10.5,5.0,30.31,WNW,292,9.6,9.6,78,0.00,,,0.00,VWS V14.01,2013-01-14 04:26:00,
2013-01-13 22:27:00,10.5,5.0,30.31,WNW,292,9.6,9.6,78,0.00,,,0.00,VWS V14.01,2013-01-14 04:27:00,
2013-01-13 22:28:00,10.5,5.0,30.31,WNW,292,3.3,9.6,78,0.00,,,0.00,VWS V14.01,2013-01-14 04:28:00,
2013-01-13 22:29:00,10.5,5.0,30.31,WNW,292,3.3,3.3,78,0.00,,,0.00,VWS V14.01,2013-01-14 04:29:00,
2013-01-13 22:30:00,10.5,5.0,30.31,West,270,0.0,3.3,78,0.00,,,0.00,VWS V14.01,2013-01-14 04:30:00,
2013-01-13 22:31:00,10.5,5.0,30.31,West,270,0.0,0.0,78,0.00,,,0.00,VWS V14.01,2013-01-14 04:31:00,
2013-01-13 22:32:00,10.5,5.0,30.31,West,270,0.0,0.0,78,0.00,,,0.00,VWS V14.01,2013-01-14 04:32:00,
2013-01-13 22:33:00,10.5,5.0,30.31,West,270,3.8,3.8,78,0.00,,,0.00,VWS V14.01,2013-01-14 04:33:00,
2013-01-13 22:34:00,10.5,5.0,30.31,WNW,292,4.6,4.6,78,0.00,,,0.00,VWS V14.01,2013-01-14 04:34:00,
2013-01-13 22:35:00,10.5,5.0,30.31,WNW,292,4.6,4.6,78,0.00,,,0.00,VWS V14.01,2013-01-14 04:35:00,
2013-01-13 22:36:00,10.5,5.0,30.31,WNW,292,4.6,4.6,78,0.00,,,0.00,VWS V14.01,2013-01-14 04:36:00,
2013-01-13 22:37:00,10.5,5.0,30.31,WNW,292,4.6,4.6,78,0.00,,,0.00,VWS V14.01,2013-01-14 04:37:00,
2013-01-13 22:38:00,10.5,5.0,30.31,WNW,292,4.2,4.2,78,0.00,,,0.00,VWS V14.01,2013-01-14 04:38:00,
2013-01-13 22:39:00,10.4,4.9,30.31,WNW,292,5.3,5.3,78,0.00,,,0.00,VWS V14.01,2013-01-14 04:39:00,
2013-01-13 22:40:00,10.4,4.9,30.31,WNW,292,5.3,5.3,78,0.00,,,0.00,VWS V14.01,2013-01-14 04:40:00,
2013-01-13 22:41:00,10.2,4.7,30.31,WNW,292,2.4,5.3,78,0.00,,,0.00,VWS V14.01,2013-01-14 04:41:00,
2013-01-13 22:42:00,10.2,4.7,30.31,WNW,292,2.4,2.4,78,0.00,,,0.00,VWS V14.01,2013-01-14 04:42:00,
2013-01-13 22:43:00,10.2,5.0,30.31,WNW,292,7.1,7.1,79,0.00,,,0.00,VWS V14.01,2013-01-14 04:43:00,
2013-01-13 22:44:00,10.2,5.0,30.31,WNW,292,7.1,7.1,79,0.00,,,0.00,VWS V14.01,2013-01-14 04:44:00,
2013-01-13 22:45:00,10.2,5.0,30.31,WNW,292,4.9,7.1,79,0.00,,,0.00,VWS V14.01,2013-01-14 04:45:00,
2013-01-13 22:46:00,10.2,5.0,30.31,WNW,292,4.9,4.9,79,0.00,,,0.00,VWS V14.01,2013-01-14 04:46:00,
2013-01-13 22:47:00,10.2,5.0,30.31,WNW,292,4.9,4.9,79,0.00,,,0.00,VWS V14.01,2013-01-14 04:47:00,
2013-01-13 22:48:00,10.2,5.0,30.31,West,270,3.1,3.1,79,0.00,,,0.00,VWS V14.01,2013-01-14 04:48:00,
2013-01-13 22:49:00,10.2,5.0,30.31,West,270,6.7,6.7,79,0.00,,,0.00,VWS V14.01,2013-01-14 04:49:00,
2013-01-13 22:50:00,10.2,5.0,30.31,West,270,6.7,6.7,79,0.00,,,0.00,VWS V14.01,2013-01-14 04:50:00,
2013-01-13 22:51:00,10.2,5.0,30.31,West,270,6.7,6.7,79,0.00,,,0.00,VWS V14.01,2013-01-14 04:51:00,
2013-01-13 22:52:00,10.2,5.0,30.31,West,270,6.7,6.7,79,0.00,,,0.00,VWS V14.01,2013-01-14 04:52:00,
2013-01-13 22:53:00,10.4,5.2,30.31,West,270,3.8,3.8,79,0.00,,,0.00,VWS V14.01,2013-01-14 04:53:00,
2013-01-13 22:54:00,10.2,5.0,30.31,WNW,292,6.4,6.4,79,0.00,,,0.00,VWS V14.01,2013-01-14 04:54:00,
2013-01-13 22:55:00,10.2,5.0,30.31,WNW,292,6.4,6.4,79,0.00,,,0.00,VWS V14.01,2013-01-14 04:55:00,
2013-01-13 22:56:00,10.2,5.0,30.31,WNW,292,6.0,6.4,79,0.00,,,0.00,VWS V14.01,2013-01-14 04:56:00,
2013-01-13 22:57:00,10.2,5.0,30.31,WNW,292,6.0,6.0,79,0.00,,,0.00,VWS V14.01,2013-01-14 04:57:00,
2013-01-13 22:58:00,10.2,5.0,30.31,WNW,292,8.5,8.5,79,0.00,,,0.00,VWS V14.01,2013-01-14 04:58:00,
2013-01-13 22:59:00,10.2,5.0,30.31,WNW,292,8.5,8.5,79,0.00,,,0.00,VWS V14.01,2013-01-14 04:59:00,
2013-01-13 23:00:00,10.2,5.0,30.31,WNW,292,8.5,8.5,79,0.00,,,0.00,VWS V14.01,2013-01-14 05:00:00,
2013-01-13 23:01:00,10.5,5.3,30.31,WNW,292,6.0,6.0,79,0.00,,,0.00,VWS V14.01,2013-01-14 05:01:00,
2013-01-13 23:02:00,10.5,5.3,30.31,WNW,292,6.0,6.0,79,0.00,,,0.00,VWS V14.01,2013-01-14 05:02:00,
2013-01-13 23:03:00,10.5,5.3,30.31,NW,315,8.5,8.5,79,0.00,,,0.00,VWS V14.01,2013-01-14 05:03:00,
2013-01-13 23:04:00,10.5,5.3,30.31,WNW,292,6.4,8.5,79,0.00,,,0.00,VWS V14.01,2013-01-14 05:04:00,
2013-01-13 23:05:00,10.5,5.3,30.31,WNW,292,6.4,6.4,79,0.00,,,0.00,VWS V14.01,2013-01-14 05:05:00,
2013-01-13 23:06:00,10.5,5.3,30.31,WNW,292,6.4,6.4,79,0.00,,,0.00,VWS V14.01,2013-01-14 05:06:00,
2013-01-13 23:07:00,10.5,5.3,30.31,WNW,292,7.1,7.1,79,0.00,,,0.00,VWS V14.01,2013-01-14 05:07:00,
2013-01-13 23:08:00,10.5,5.3,30.31,WNW,292,7.1,7.1,79,0.00,,,0.00,VWS V14.01,2013-01-14 05:08:00,
2013-01-13 23:09:00,10.5,5.0,30.31,WNW,292,6.4,7.1,78,0.00,,,0.00,VWS V14.01,2013-01-14 05:09:00,
2013-01-13 23:10:00,10.5,5.0,30.31,WNW,292,6.4,6.4,78,0.00,,,0.00,VWS V14.01,2013-01-14 05:10:00,
2013-01-13 23:11:00,10.5,5.0,30.32,NW,315,8.5,8.5,78,0.00,,,0.00,VWS V14.01,2013-01-14 05:11:00,
2013-01-13 23:12:00,10.5,5.0,30.32,NW,315,8.5,8.5,78,0.00,,,0.00,VWS V14.01,2013-01-14 05:12:00,
2013-01-13 23:13:00,10.5,5.0,30.32,NW,315,8.5,8.5,78,0.00,,,0.00,VWS V14.01,2013-01-14 05:13:00,
2013-01-13 23:14:00,10.5,5.0,30.32,WNW,292,5.5,5.5,78,0.00,,,0.00,VWS V14.01,2013-01-14 05:14:00,
2013-01-13 23:15:00,10.7,5.2,30.32,WNW,292,3.5,5.5,78,0.00,,,0.00,VWS V14.01,2013-01-14 05:15:00,
2013-01-13 23:16:00,10.7,5.2,30.32,WNW,292,3.5,3.5,78,0.00,,,0.00,VWS V14.01,2013-01-14 05:16:00,
2013-01-13 23:17:00,10.7,5.2,30.32,North,0,5.5,5.5,78,0.00,,,0.00,VWS V14.01,2013-01-14 05:17:00,
2013-01-13 23:18:00,10.7,5.2,30.32,North,0,5.5,5.5,78,0.00,,,0.00,VWS V14.01,2013-01-14 05:18:00,
2013-01-13 23:19:00,10.9,5.4,30.32,WNW,292,7.6,7.6,78,0.00,,,0.00,VWS V14.01,2013-01-14 05:19:00,
2013-01-13 23:20:00,10.9,5.4,30.32,WNW,292,7.6,7.6,78,0.00,,,0.00,VWS V14.01,2013-01-14 05:20:00,
2013-01-13 23:21:00,10.9,5.4,30.32,WNW,292,7.6,7.6,78,0.00,,,0.00,VWS V14.01,2013-01-14 05:21:00,
2013-01-13 23:22:00,10.9,5.4,30.32,WNW,292,5.1,7.6,78,0.00,,,0.00,VWS V14.01,2013-01-14 05:22:00,
2013-01-13 23:23:00,10.9,5.4,30.32,WNW,292,5.1,5.1,78,0.00,,,0.00,VWS V14.01,2013-01-14 05:23:00,
2013-01-13 23:24:00,10.9,5.4,30.32,WNW,292,10.0,10.0,78,0.00,,,0.00,VWS V14.01,2013-01-14 05:24:00,
2013-01-13 23:25:00,10.9,5.4,30.32,WNW,292,10.0,10.0,78,0.00,,,0.00,VWS V14.01,2013-01-14 05:25:00,
2013-01-13 23:26:00,11.1,5.3,30.32,WNW,292,6.0,10.0,77,0.00,,,0.00,VWS V14.01,2013-01-14 05:26:00,
2013-01-13 23:27:00,11.1,5.3,30.32,WNW,292,6.0,6.0,77,0.00,,,0.00,VWS V14.01,2013-01-14 05:27:00,
2013-01-13 23:28:00,11.1,5.3,30.32,WNW,292,6.0,6.0,77,0.00,,,0.00,VWS V14.01,2013-01-14 05:28:00,
2013-01-13 23:29:00,11.1,5.3,30.33,WNW,292,6.9,6.9,77,0.00,,,0.00,VWS V14.01,2013-01-14 05:29:00,
2013-01-13 23:30:00,11.1,5.3,30.33,WNW,292,9.3,9.3,77,0.00,,,0.00,VWS V14.01,2013-01-14 05:30:00,
2013-01-13 23:31:00,11.1,5.3,30.33,WNW,292,9.3,9.3,77,0.00,,,0.00,VWS V14.01,2013-01-14 05:31:00,
2013-01-13 23:32:00,11.1,5.3,30.33,West,270,8.0,9.3,77,0.00,,,0.00,VWS V14.01,2013-01-14 05:32:00,
2013-01-13 23:33:00,11.1,5.3,30.33,West,270,8.0,8.0,77,0.00,,,0.00,VWS V14.01,2013-01-14 05:33:00,
2013-01-13 23:34:00,11.1,5.3,30.33,WNW,292,5.8,8.0,77,0.00,,,0.00,VWS V14.01,2013-01-14 05:34:00,
2013-01-13 23:35:00,11.1,5.3,30.33,WNW,292,5.8,5.8,77,0.00,,,0.00,VWS V14.01,2013-01-14 05:35:00,
2013-01-13 23:36:00,11.1,5.3,30.33,WNW,292,5.8,5.8,77,0.00,,,0.00,VWS V14.01,2013-01-14 05:36:00,
2013-01-13 23:37:00,10.9,5.1,30.33,WNW,292,8.0,8.0,77,0.00,,,0.00,VWS V14.01,2013-01-14 05:37:00,
2013-01-13 23:38:00,10.9,5.1,30.33,WNW,292,8.0,8.0,77,0.00,,,0.00,VWS V14.01,2013-01-14 05:38:00,
2013-01-13 23:39:00,10.9,5.1,30.33,WNW,292,8.2,8.2,77,0.00,,,0.00,VWS V14.01,2013-01-14 05:39:00,
2013-01-13 23:40:00,10.9,5.1,30.33,WNW,292,8.2,8.2,77,0.00,,,0.00,VWS V14.01,2013-01-14 05:40:00,
2013-01-13 23:41:00,10.9,5.1,30.33,WNW,292,6.9,8.2,77,0.00,,,0.00,VWS V14.01,2013-01-14 05:41:00,
2013-01-13 23:42:00,10.9,5.1,30.33,WNW,292,6.9,6.9,77,0.00,,,0.00,VWS V14.01,2013-01-14 05:42:00,
2013-01-13 23:43:00,10.9,5.1,30.33,WNW,292,6.9,6.9,77,0.00,,,0.00,VWS V14.01,2013-01-14 05:43:00,
2013-01-13 23:44:00,10.9,5.1,30.33,WNW,292,8.2,8.2,77,0.00,,,0.00,VWS V14.01,2013-01-14 05:44:00,
2013-01-13 23:45:00,10.9,5.1,30.32,WNW,292,6.2,8.2,77,0.00,,,0.00,VWS V14.01,2013-01-14 05:45:00,
2013-01-13 23:46:00,10.9,5.1,30.33,WNW,292,6.2,6.2,77,0.00,,,0.00,VWS V14.01,2013-01-14 05:46:00,
2013-01-13 23:47:00,10.9,5.1,30.33,WNW,292,9.3,9.3,77,0.00,,,0.00,VWS V14.01,2013-01-14 05:47:00,
2013-01-13 23:48:00,10.9,5.1,30.33,WNW,292,9.3,9.3,77,0.00,,,0.00,VWS V14.01,2013-01-14 05:48:00,
2013-01-13 23:49:00,10.7,4.9,30.33,WNW,292,6.2,9.3,77,0.00,,,0.00,VWS V14.01,2013-01-14 05:49:00,
2013-01-13 23:50:00,10.7,4.9,30.33,WNW,292,6.2,6.2,77,0.00,,,0.00,VWS V14.01,2013-01-14 05:50:00,
2013-01-13 23:51:00,10.7,4.9,30.33,WNW,292,6.2,6.2,77,0.00,,,0.00,VWS V14.01,2013-01-14 05:51:00,
2013-01-13 23:52:00,10.7,4.9,30.33,WNW,292,7.3,7.3,77,0.00,,,0.00,VWS V14.01,2013-01-14 05:52:00,
2013-01-13 23:53:00,10.7,4.9,30.33,WNW,292,7.3,7.3,77,0.00,,,0.00,VWS V14.01,2013-01-14 05:53:00,
2013-01-13 23:54:00,10.5,4.7,30.33,WNW,292,1.5,7.3,77,0.00,,,0.00,VWS V14.01,2013-01-14 05:54:00,
2013-01-13 23:55:00,10.5,4.7,30.33,WNW,292,1.5,1.5,77,0.00,,,0.00,VWS V14.01,2013-01-14 05:55:00,
2013-01-13 23:56:00,10.5,5.0,30.33,WNW,292,5.1,5.1,78,0.00,,,0.00,VWS V14.01,2013-01-14 05:56:00,
2013-01-13 23:57:00,10.5,5.0,30.34,WNW,292,5.1,5.1,78,0.00,,,0.00,VWS V14.01,2013-01-14 05:57:00,
2013-01-13 23:58:00,10.5,5.0,30.34,WNW,292,5.1,5.1,78,0.00,,,0.00,VWS V14.01,2013-01-14 05:58:00,
2013-01-13 23:59:00,10.5,5.0,30.33,WNW,292,5.8,5.8,78,0.00,,,0.00,VWS V14.01,2013-01-14 05:59:00,